[[{"header":{"parameterUnit":"m.s-1","parameterCategory":1,"la1":30.6,"la2":28.766,"lo1":-90.7593,"lo2":-88.6598,"dy":0.0162,"dx":0.0183,"nx":116,"ny":114,"refTime":"2024-04-25T06:00:00:Z","depth":0,"parameterNumber":2,"parameterNumberName":"U-component_of_WINDS"},"data":[0.0,0.0,0.0,0.0,0.0,0.0,0.0,0.0,0.0,0.0,0.0,0.0,0.0,0.0,0.0,0.0,0.0,0.0,0.0,0.0,0.0,0.0,0.0,0.0,0.0,0.0,0.0,0.0,0.0,0.0,0.0,0.0,0.0,0.0,0.0,0.0,0.0,0.0,0.0,0.0,0.0,0.0,0.0,0.0,0.0,0.0,0.0,0.0,0.0,0.0,0.0,0.0,0.0,0.0,0.0,0.0,0.0,0.0,0.0,0.0,0.0,0.0,0.0,0.0,0.0,0.0,0.0,0.0,0.0,0.0,0.0,0.0,0.0,0.0,0.0,0.0,0.0,0.0,0.0,0.0,0.0,0.0,0.0,0.0,0.0,0.0,0.0,0.0,0.0,0.0,0.0,0.0,0.0,0.0,0.0,0.0,0.0,0.0,0.0,0.0,0.0,0.0,0.0,0.0,0.0,0.0,0.0,0.0,0.0,0.0,0.0,0.0,0.0,0.0,0.0,0.0,0.0,0.0,0.0,0.0,0.0,0.0,0.0,0.0,0.0,0.0,0.0,0.0,0.0,0.0,0.0,0.0,0.0,0.0,0.0,0.0,0.0,0.0,0.0,0.0,0.0,0.0,0.0,0.0,0.0,0.0,0.0,0.0,0.0,0.0,0.0,0.0,0.0,0.0,0.0,0.0,0.0,0.0,0.0,0.0,0.0,0.0,0.0,0.0,0.0,0.0,0.0,0.0,0.0,0.0,0.0,0.0,0.0,0.0,0.0,0.0,0.0,0.0,0.0,0.0,0.0,0.0,0.0,0.0,0.0,0.0,0.0,0.0,0.0,0.0,0.0,0.0,0.0,0.0,0.0,0.0,0.0,0.0,0.0,0.0,0.0,0.0,0.0,0.0,0.0,0.0,0.0,0.0,0.0,0.0,0.0,0.0,0.0,0.0,0.0,0.0,0.0,0.0,0.0,0.0,0.0,0.0,0.0,0.0,0.0,0.0,0.0,0.0,0.0,0.0,0.0,0.0,0.0,0.0,0.0,0.0,0.0,0.0,0.0,0.0,0.0,0.0,0.0,0.0,0.0,0.0,0.0,0.0,0.0,0.0,0.0,0.0,0.0,0.0,0.0,0.0,0.0,0.0,0.0,0.0,0.0,0.0,0.0,0.0,0.0,0.0,0.0,0.0,0.0,0.0,0.0,0.0,0.0,0.0,0.0,0.0,0.0,0.0,0.0,0.0,0.0,0.0,0.0,0.0,0.0,0.0,0.0,0.0,0.0,0.0,0.0,0.0,0.0,0.0,0.0,0.0,0.0,0.0,0.0,0.0,0.0,0.0,0.0,0.0,0.0,0.0,0.0,0.0,0.0,0.0,0.0,0.0,0.0,0.0,0.0,0.0,0.0,0.0,0.0,0.0,0.0,0.0,0.0,0.0,0.0,0.0,0.0,0.0,0.0,0.0,0.0,0.0,0.0,0.0,0.0,0.0,0.0,0.0,0.0,0.0,0.0,0.0,0.0,0.0,0.0,0.0,0.0,0.0,0.0,0.0,0.0,0.0,0.0,0.0,0.0,0.0,0.0,0.0,0.0,0.0,0.0,0.0,0.0,0.0,0.0,0.0,0.0,0.0,0.0,0.0,0.0,0.0,0.0,0.0,0.0,0.0,0.0,0.0,0.0,0.0,0.0,0.0,0.0,0.0,0.0,0.0,0.0,0.0,0.0,0.0,0.0,0.0,0.0,0.0,0.0,0.0,0.0,0.0,0.0,0.0,0.0,0.0,0.0,0.0,0.0,0.0,0.0,0.0,0.0,0.0,0.0,0.0,0.0,0.0,0.0,0.0,0.0,0.0,0.0,0.0,0.0,0.0,0.0,0.0,0.0,0.0,0.0,0.0,0.0,0.0,0.0,0.0,0.0,0.0,0.0,0.0,0.0,0.0,0.0,0.0,0.0,0.0,0.0,0.0,0.0,0.0,0.0,0.0,0.0,0.0,0.0,0.0,0.0,0.0,0.0,0.0,0.0,0.0,0.0,0.0,0.0,0.0,0.0,0.0,0.0,0.0,0.0,0.0,0.0,0.0,0.0,0.0,0.0,0.0,0.0,0.0,0.0,0.0,0.0,0.0,0.0,0.0,0.0,0.0,0.0,0.0,0.0,0.0,0.0,0.0,0.0,0.0,0.0,0.0,0.0,0.0,0.0,0.0,0.0,0.0,0.0,0.0,0.0,0.0,0.0,0.0,0.0,0.0,0.0,0.0,0.0,0.0,0.0,0.0,0.0,0.0,0.0,0.0,0.0,0.0,0.0,0.0,0.0,0.0,0.0,0.0,0.0,0.0,0.0,0.0,0.0,0.0,0.0,0.0,0.0,0.0,0.0,0.0,0.0,0.0,0.0,0.0,0.0,0.0,0.0,0.0,0.0,0.0,0.0,0.0,0.0,0.0,0.0,0.0,0.0,0.0,0.0,0.0,0.0,0.0,0.0,0.0,0.0,0.0,0.0,0.0,0.0,0.0,0.0,0.0,0.0,0.0,0.0,0.0,0.0,0.0,0.0,0.0,0.0,0.0,0.0,0.0,0.0,0.0,0.0,0.0,0.0,0.0,0.0,0.0,0.0,0.0,0.0,0.0,0.0,0.0,0.0,0.0,0.0,0.0,0.0,0.0,0.0,0.0,0.0,0.0,0.0,0.0,0.0,0.0,0.0,0.0,0.0,0.0,0.0,0.0,0.0,0.0,0.0,0.0,0.0,0.0,0.0,0.0,0.0,0.0,0.0,0.0,0.0,0.0,0.0,0.0,0.0,0.0,0.0,0.0,0.0,0.0,0.0,0.0,0.0,0.0,0.0,0.0,0.0,0.0,0.0,0.0,0.0,0.0,0.0,0.0,0.0,0.0,0.0,0.0,0.0,0.0,0.0,0.0,0.0,0.0,0.0,0.0,0.0,0.0,0.0,0.0,0.0,0.0,0.0,0.0,0.0,0.0,0.0,0.0,0.0,0.0,0.0,0.0,0.0,0.0,0.0,0.0,0.0,0.0,0.0,0.0,0.0,0.0,0.0,0.0,0.0,0.0,0.0,0.0,0.0,0.0,0.0,0.0,0.0,0.0,0.0,0.0,0.0,0.0,0.0,0.0,0.0,0.0,0.0,0.0,0.0,0.0,0.0,0.0,0.0,0.0,0.0,0.0,0.0,0.0,0.0,0.0,0.0,0.0,0.0,0.0,0.0,0.0,0.0,0.0,0.0,0.0,0.0,0.0,0.0,0.0,0.0,0.0,0.0,0.0,0.0,0.0,0.0,0.0,0.0,0.0,0.0,0.0,0.0,0.0,0.0,0.0,0.0,0.0,0.0,0.0,0.0,0.0,0.0,0.0,0.0,0.0,0.0,0.0,0.0,0.0,0.0,0.0,0.0,0.0,0.0,0.0,0.0,0.0,0.0,0.0,0.0,0.0,0.0,0.0,0.0,0.0,0.0,0.0,0.0,0.0,0.0,0.0,0.0,0.0,0.0,0.0,0.0,0.0,0.0,0.0,0.0,0.0,0.0,0.0,0.0,0.0,0.0,0.0,0.0,0.0,0.0,0.0,0.0,0.0,0.0,0.0,0.0,0.0,0.0,0.0,0.0,0.0,0.0,0.0,0.0,0.0,0.0,0.0,0.0,0.0,0.0,0.0,0.0,0.0,0.0,0.0,0.0,0.0,0.0,0.0,0.0,0.0,0.0,0.0,0.0,0.0,0.0,0.0,0.0,0.0,0.0,0.0,0.0,0.0,0.0,0.0,0.0,0.0,0.0,0.0,0.0,0.0,0.0,0.0,0.0,0.0,0.0,0.0,0.0,0.0,0.0,0.0,0.0,0.0,0.0,0.0,0.0,0.0,0.0,0.0,0.0,0.0,0.0,0.0,0.0,0.0,0.0,0.0,0.0,0.0,0.0,0.0,0.0,0.0,0.0,0.0,0.0,0.0,0.0,0.0,0.0,0.0,0.0,0.0,0.0,0.0,0.0,0.0,0.0,0.0,0.0,0.0,0.0,0.0,0.0,0.0,0.0,0.0,0.0,0.0,0.0,0.0,0.0,0.0,0.0,0.0,0.0,0.0,0.0,0.0,0.0,0.0,0.0,0.0,0.0,0.0,0.0,0.0,0.0,0.0,0.0,0.0,0.0,0.0,0.0,0.0,0.0,0.0,0.0,0.0,0.0,0.0,0.0,0.0,0.0,0.0,0.0,0.0,0.0,0.0,0.0,0.0,0.0,0.0,0.0,0.0,0.0,0.0,0.0,0.0,0.0,0.0,0.0,0.0,0.0,0.0,0.0,0.0,0.0,0.0,0.0,0.0,0.0,0.0,0.0,0.0,0.0,0.0,0.0,0.0,0.0,0.0,0.0,0.0,0.0,0.0,0.0,0.0,0.0,0.0,0.0,0.0,0.0,0.0,0.0,0.0,0.0,0.0,0.0,0.0,0.0,0.0,0.0,0.0,0.0,0.0,0.0,0.0,0.0,0.0,0.0,0.0,0.0,0.0,0.0,0.0,0.0,0.0,0.0,0.0,0.0,0.0,0.0,0.0,0.0,0.0,0.0,0.0,0.0,0.0,0.0,0.0,0.0,0.0,0.0,0.0,0.0,0.0,0.0,0.0,0.0,0.0,0.0,0.0,0.0,0.0,0.0,0.0,0.0,0.0,0.0,0.0,0.0,0.0,0.0,0.0,0.0,0.0,0.0,0.0,0.0,0.0,0.0,0.0,0.0,0.0,0.0,0.0,0.0,0.0,0.0,0.0,0.0,0.0,0.0,0.0,0.0,0.0,0.0,0.0,0.0,0.0,0.0,0.0,0.0,0.0,0.0,0.0,0.0,0.0,0.0,0.0,0.0,0.0,0.0,0.0,0.0,0.0,0.0,0.0,0.0,0.0,0.0,0.0,0.0,0.0,0.0,0.0,0.0,0.0,0.0,0.0,0.0,0.0,0.0,0.0,0.0,0.0,0.0,0.0,0.0,0.0,0.0,0.0,0.0,0.0,0.0,0.0,0.0,0.0,0.0,0.0,0.0,0.0,0.0,0.0,0.0,0.0,0.0,0.0,0.0,0.0,0.0,0.0,0.0,0.0,0.0,0.0,0.0,0.0,0.0,0.0,0.0,0.0,0.0,0.0,0.0,0.0,0.0,0.0,0.0,0.0,0.0,0.0,0.0,0.0,0.0,0.0,0.0,0.0,0.0,0.0,0.0,0.0,0.0,0.0,0.0,0.0,0.0,0.0,0.0,0.0,0.0,0.0,0.0,0.0,0.0,0.0,0.0,0.0,0.0,0.0,0.0,0.0,0.0,0.0,0.0,0.0,0.0,0.0,0.0,0.0,0.0,0.0,0.0,0.0,0.0,0.0,0.0,0.0,0.0,0.0,0.0,0.0,0.0,0.0,0.0,0.0,0.0,0.0,0.0,0.0,0.0,0.0,0.0,0.0,0.0,0.0,0.0,0.0,0.0,0.0,0.0,0.0,0.0,0.0,0.0,0.0,0.0,0.0,0.0,0.0,0.0,0.0,0.0,0.0,0.0,0.0,0.0,0.0,0.0,0.0,0.0,0.0,0.0,0.0,0.0,0.0,0.0,0.0,0.0,0.0,0.0,0.0,0.0,0.0,0.0,0.0,0.0,0.0,0.0,0.0,0.0,0.0,0.0,0.0,0.0,0.0,0.0,0.0,0.0,0.0,0.0,0.0,0.0,0.0,0.0,0.0,0.0,0.0,0.0,0.0,0.0,0.0,0.0,0.0,0.0,0.0,0.0,0.0,0.0,0.0,0.0,0.0,0.0,0.0,0.0,0.0,0.0,0.0,0.0,0.0,0.0,0.0,0.0,0.0,0.0,0.0,0.0,0.0,0.0,0.0,0.0,0.0,0.0,0.0,0.0,0.0,0.0,0.0,0.0,0.0,0.0,0.0,0.0,0.0,0.0,0.0,0.0,0.0,0.0,0.0,0.0,0.0,0.0,0.0,0.0,0.0,0.0,0.0,0.0,0.0,0.0,0.0,0.0,0.0,0.0,0.0,0.0,0.0,0.0,0.0,0.0,0.0,0.0,0.0,0.0,0.0,0.0,0.0,0.0,0.0,-5.6372,-5.647,0.0,0.0,0.0,0.0,0.0,0.0,0.0,0.0,0.0,0.0,0.0,0.0,0.0,0.0,0.0,0.0,0.0,0.0,0.0,0.0,0.0,0.0,0.0,-5.7036,-5.6934,-5.734,-5.7679,-5.7881,-5.7881,-5.7881,-5.7881,-5.7881,-5.7881,-5.7845,-5.7772,-5.7551,-5.7364,-5.7176,-5.6949,-5.6834,-5.6719,-5.6719,-5.6872,-5.7139,0.0,0.0,0.0,0.0,0.0,0.0,0.0,0.0,0.0,0.0,0.0,0.0,0.0,0.0,0.0,0.0,0.0,0.0,0.0,0.0,0.0,0.0,0.0,0.0,0.0,0.0,0.0,0.0,0.0,0.0,0.0,0.0,0.0,0.0,0.0,0.0,0.0,0.0,0.0,0.0,0.0,0.0,0.0,0.0,0.0,0.0,0.0,0.0,0.0,0.0,0.0,0.0,0.0,0.0,0.0,0.0,0.0,0.0,0.0,0.0,0.0,0.0,0.0,0.0,0.0,0.0,0.0,0.0,0.0,0.0,-5.6028,-5.6042,0.0,0.0,0.0,0.0,0.0,0.0,0.0,0.0,0.0,0.0,0.0,0.0,0.0,0.0,0.0,0.0,0.0,0.0,0.0,0.0,0.0,-5.6799,-5.6799,-5.6697,-5.6664,-5.6799,-5.734,-5.7746,-5.7881,-5.7881,-5.7881,-5.7881,-5.7845,-5.7735,-5.7551,-5.7289,-5.6949,-5.6603,-5.629,-5.6053,-5.5854,-5.5854,-5.6132,-5.668,-5.6603,0.0,0.0,0.0,0.0,0.0,0.0,0.0,0.0,0.0,0.0,0.0,0.0,0.0,0.0,0.0,0.0,0.0,0.0,0.0,0.0,0.0,0.0,0.0,0.0,0.0,0.0,0.0,0.0,0.0,0.0,0.0,0.0,0.0,0.0,0.0,0.0,0.0,0.0,0.0,0.0,0.0,0.0,0.0,0.0,0.0,0.0,0.0,0.0,0.0,0.0,0.0,0.0,0.0,0.0,0.0,0.0,0.0,0.0,0.0,0.0,0.0,0.0,0.0,-5.588,-5.5731,-5.5531,-5.5531,-5.5381,-5.5229,-5.5681,-5.5516,-5.4928,-5.4977,0.0,0.0,0.0,0.0,0.0,0.0,0.0,0.0,0.0,0.0,0.0,0.0,0.0,0.0,0.0,0.0,0.0,0.0,0.0,-5.6799,-5.6799,-5.6258,-5.6122,-5.6731,-5.69,-5.7205,-5.7848,-5.7881,-5.7881,-5.7881,-5.7735,-5.7551,-5.7327,-5.6796,-5.6369,-5.61,-5.5539,-5.5131,-5.4883,-5.4883,-5.5049,-5.5377,-5.5934,-5.6205,-5.6244,0.0,0.0,0.0,0.0,0.0,0.0,0.0,0.0,0.0,0.0,0.0,0.0,0.0,0.0,0.0,0.0,0.0,0.0,0.0,0.0,0.0,0.0,0.0,0.0,0.0,0.0,0.0,0.0,0.0,0.0,0.0,0.0,0.0,0.0,0.0,0.0,0.0,0.0,0.0,0.0,0.0,-5.5979,-5.5979,0.0,0.0,0.0,0.0,0.0,0.0,0.0,0.0,0.0,0.0,0.0,0.0,0.0,-5.528,-5.528,-5.528,-5.528,-5.528,-5.528,-5.528,-5.5229,-5.5229,-5.5229,-5.5179,-5.528,0.0,-5.4684,-5.488,0.0,0.0,0.0,0.0,0.0,0.0,0.0,0.0,0.0,0.0,0.0,0.0,0.0,0.0,0.0,0.0,0.0,0.0,0.0,0.0,0.0,-5.5884,-5.5683,-5.5581,-5.5953,-5.6325,-5.663,-5.6928,-5.7055,-5.6945,-5.713,-5.7063,-5.6569,-5.6093,-5.5458,-5.4726,-5.4264,-5.4008,-5.3922,-5.3922,-5.3965,-5.4094,-5.4391,-5.4966,-5.5693,-5.5572,0.0,0.0,0.0,0.0,0.0,0.0,0.0,0.0,0.0,0.0,0.0,0.0,0.0,0.0,0.0,0.0,0.0,0.0,0.0,0.0,0.0,0.0,0.0,0.0,0.0,0.0,0.0,0.0,0.0,0.0,0.0,0.0,0.0,0.0,0.0,0.0,0.0,0.0,0.0,-5.5531,-5.5531,-5.5531,-5.5531,-5.5531,0.0,0.0,0.0,0.0,0.0,0.0,0.0,0.0,0.0,-5.5179,-5.5179,-5.5179,-5.5179,-5.5179,-5.5179,-5.5179,-5.5179,-5.5179,-5.5179,-5.5179,-5.5128,-5.5006,-5.5006,-5.4568,-5.3913,-5.3969,-5.3477,-5.2702,0.0,0.0,0.0,0.0,-5.0213,-4.964,0.0,0.0,0.0,0.0,0.0,0.0,0.0,0.0,0.0,0.0,0.0,0.0,-5.6089,-5.5818,-5.548,-5.4938,-5.5209,-5.5478,-5.5612,-5.5974,-5.6026,-5.577,-5.6008,-5.5814,-5.5115,-5.4583,-5.3798,-5.2816,-5.2797,-5.2759,-5.2745,-5.29,-5.2993,-5.3051,-5.3051,-5.3707,-5.4842,-5.4717,-5.4633,-5.4633,0.0,0.0,0.0,0.0,0.0,0.0,0.0,0.0,0.0,0.0,0.0,0.0,0.0,0.0,0.0,0.0,0.0,0.0,0.0,0.0,0.0,0.0,0.0,0.0,0.0,0.0,0.0,0.0,0.0,0.0,0.0,0.0,0.0,0.0,0.0,0.0,0.0,-5.5179,-5.5179,-5.5179,-5.5029,-5.494,0.0,0.0,0.0,0.0,0.0,0.0,-5.4431,-5.4461,-5.467,-5.5179,-5.5179,-5.5179,-5.5179,-5.5179,-5.5179,-5.5179,-5.5179,-5.5128,-5.5108,-5.5108,-5.4875,-5.4568,-5.4517,-5.4016,-5.3312,-5.3168,-5.2496,-5.1531,-5.072,-5.0184,-4.9746,-4.91,-4.8731,-4.838,0.0,0.0,0.0,0.0,0.0,0.0,0.0,0.0,0.0,0.0,0.0,-5.7543,-5.6833,-5.6122,-5.5716,-5.5683,-5.504,-5.4869,-5.5368,-5.5291,-5.5001,-5.4601,-5.4071,-5.3454,-5.2757,-5.1769,-5.0955,-5.0468,-5.1111,-5.1314,-5.1151,-5.179,-5.2155,-5.2352,-5.2352,-5.2726,-5.3403,-5.3403,-5.3403,-5.3403,-5.3359,0.0,0.0,0.0,0.0,0.0,0.0,0.0,0.0,0.0,0.0,0.0,0.0,0.0,0.0,0.0,0.0,0.0,0.0,0.0,0.0,0.0,0.0,0.0,0.0,0.0,0.0,0.0,0.0,0.0,0.0,0.0,0.0,0.0,0.0,0.0,0.0,0.0,0.0,-5.5179,-5.464,0.0,0.0,0.0,0.0,-5.4162,-5.4192,-5.4431,-5.5089,-5.5149,-5.5149,-5.5179,-5.5179,-5.5179,-5.5179,-5.5179,-5.5179,-5.5179,-5.5179,-5.5057,-5.4803,-5.4803,-5.4517,-5.3919,-5.3681,-5.3337,-5.304,-5.2952,-5.2163,-5.0973,-5.0419,-4.9695,-4.8831,-4.7971,-4.7541,-4.7236,0.0,0.0,0.0,-5.8875,-5.8631,-5.8455,-5.8241,-5.8027,-5.7881,-5.7881,-5.7881,-5.7611,-5.6867,-5.6156,-5.5513,-5.504,-5.4329,-5.3855,-5.3813,-5.393,-5.3724,-5.3057,-5.2863,-5.2331,-5.1413,-5.0691,-5.0201,-4.988,-4.9988,-4.9975,-4.9885,-5.0125,-5.0502,-5.0939,-5.0939,-5.1318,-5.1957,-5.2457,-5.2637,-5.2637,-5.2532,-5.2442,0.0,0.0,0.0,0.0,0.0,0.0,0.0,0.0,0.0,0.0,0.0,0.0,0.0,0.0,0.0,0.0,0.0,0.0,0.0,0.0,0.0,0.0,0.0,0.0,0.0,0.0,0.0,0.0,0.0,0.0,0.0,0.0,0.0,0.0,0.0,0.0,0.0,-5.3952,-5.4072,0.0,-5.4221,-5.3982,-5.3952,-5.4192,-5.3803,-5.3832,-5.4521,-5.4551,-5.476,-5.5179,-5.5057,-5.4824,-5.4641,-5.4436,-5.4282,-5.4104,-5.4104,-5.4052,-5.3948,-5.3762,-5.3419,-5.3049,-5.2541,-5.2164,-5.1866,-5.1478,-5.0982,-5.044,-4.945,-4.8612,-4.775,-4.6898,-4.6533,-4.6376,0.0,0.0,0.0,-5.8944,-5.8666,-5.8455,-5.8348,-5.8063,-5.7881,-5.7881,-5.7881,-5.7712,-5.7205,-5.6528,-5.5784,-5.504,-5.4296,-5.3584,-5.2834,-5.2879,-5.2561,-5.1662,-5.1207,-5.0559,-4.9659,-4.927,-4.8994,-4.8818,-4.8925,-4.897,-4.9,-4.9209,-4.9494,-4.9912,-4.9912,-5.0272,-5.087,-5.1379,-5.1729,-5.1941,-5.1787,-5.1741,-5.1741,0.0,0.0,0.0,0.0,0.0,0.0,0.0,0.0,0.0,0.0,0.0,0.0,0.0,0.0,0.0,0.0,0.0,0.0,0.0,0.0,0.0,0.0,0.0,0.0,0.0,0.0,0.0,0.0,0.0,0.0,0.0,0.0,0.0,0.0,-5.4072,-5.4042,-5.3593,-5.3922,-5.4221,-5.4221,-5.4012,-5.3952,-5.4192,-5.3773,-5.3832,-5.4491,-5.4551,-5.468,-5.5027,-5.4773,-5.4436,-5.4045,-5.3733,-5.3419,-5.3049,-5.3131,-5.3025,-5.273,-5.2594,-5.2326,-5.1839,-5.1348,-5.0989,-5.0712,-5.0152,-4.9721,-4.9267,-4.8533,-4.7688,-4.6769,-4.6034,-4.5768,-4.5635,0.0,0.0,0.0,-5.9081,-5.8736,-5.8525,-5.849,-5.8135,-5.7918,-5.7881,-5.7881,-5.7881,-5.7881,-5.7239,-5.6494,-5.5749,-5.504,-5.4056,-5.2659,-5.2203,-5.1549,-5.0525,-4.9056,-4.8091,-4.7624,-4.7396,-4.7309,-4.7309,-4.7938,-4.8267,-4.8267,-4.894,-4.9269,-4.9269,-4.9269,-4.9613,-5.0166,-5.0166,-5.0554,-5.1199,-5.1199,-5.1229,-5.1229,0.0,0.0,0.0,0.0,0.0,0.0,0.0,0.0,0.0,0.0,0.0,0.0,0.0,0.0,0.0,0.0,0.0,0.0,0.0,0.0,0.0,0.0,0.0,0.0,0.0,0.0,0.0,0.0,0.0,0.0,0.0,0.0,0.0,-5.3174,-5.3743,-5.4192,-5.4192,-5.4192,-5.4221,-5.4221,-5.3623,-5.3533,-5.4192,-5.4251,-5.4521,-5.5149,-5.5179,-5.5108,-5.4803,-5.4487,-5.4045,-5.3471,-5.3073,-5.2648,-5.2028,-5.2326,-5.2056,-5.1238,-5.1512,-5.1127,-5.0349,-5.0039,-4.9783,-4.9499,-4.9156,-4.8376,-4.7393,-4.7671,-4.7055,-4.5901,-4.5395,-4.518,-4.5126,0.0,0.0,-5.9453,-5.9081,-5.884,-5.8666,-5.8525,-5.8312,-5.8063,-5.7918,-5.7881,-5.7881,-5.7881,-5.7239,-5.6494,-5.5749,-5.504,-5.3986,-5.248,-5.202,-5.1065,-4.9493,-4.8552,-4.7922,-4.7624,-4.7396,-4.7309,-4.7309,-4.7489,-4.7578,-4.7578,-4.7758,-4.8087,-4.8566,-4.8566,-4.8925,-4.9523,-4.9523,-4.9912,-5.0495,-5.102,-5.1229,-5.1229,0.0,0.0,0.0,0.0,0.0,0.0,0.0,0.0,0.0,0.0,0.0,0.0,0.0,0.0,0.0,0.0,0.0,0.0,0.0,0.0,0.0,0.0,0.0,0.0,0.0,0.0,0.0,0.0,0.0,0.0,0.0,-5.3174,-5.3174,-5.3174,-5.3354,-5.3473,-5.3473,-5.3892,-5.4221,-5.4221,-5.4461,-5.473,-5.491,-5.491,-5.4999,-5.5179,-5.5179,-5.5108,-5.4803,-5.4126,-5.3366,-5.257,-5.1621,-5.0823,-5.0237,-5.0125,-4.9956,-4.9673,-4.9559,-4.9304,-4.9103,-4.8553,-4.8262,-4.8178,-4.7438,-4.6726,-4.6134,-4.6839,-4.6429,-4.5395,-4.4992,-4.4856,-4.483,0.0,-5.9816,-5.9453,-5.9081,-5.8909,-5.8736,-5.8525,-5.8348,-5.8099,-5.7918,-5.7881,-5.7881,-5.7881,-5.7509,-5.6833,-5.5818,-5.531,-5.4323,-5.2551,-5.1586,-5.0454,-4.9078,-4.8343,-4.788,-4.7624,-4.7396,-4.7309,-4.7309,-4.7309,-4.7429,-4.7728,-4.7728,-4.8057,-4.8686,-4.8416,-4.8656,-4.9299,-4.903,-4.9224,-4.9883,-5.0495,-5.0913,-5.1229,-5.1229,-5.1229,-5.1229,-5.1229,-5.1229,-5.1229,-5.1229,0.0,0.0,0.0,0.0,0.0,0.0,0.0,0.0,0.0,0.0,0.0,0.0,0.0,0.0,0.0,0.0,0.0,0.0,0.0,0.0,0.0,0.0,0.0,0.0,-5.2995,-5.3294,-5.3563,-5.3623,-5.3623,-5.3623,-5.4192,-5.461,-5.461,-5.5108,-5.5415,-5.5415,-5.5559,-5.5656,-5.5656,-5.5656,-5.5449,-5.5054,-5.3917,-5.2832,-5.1849,-5.0542,-4.9445,-4.8784,-4.8726,-4.8553,-4.8321,-4.8262,-4.812,-4.8003,-4.7619,-4.7501,-4.7416,-4.67,-4.6078,-4.5597,0.0,0.0,0.0,0.0,-4.4367,-4.4367,0.0,-5.9849,-5.9453,-5.9081,-5.8909,-5.8736,-5.8561,-5.8384,-5.8135,-5.7954,-5.7918,-5.7881,-5.7881,-5.7881,-5.734,-5.5953,-5.5749,-5.4829,-5.269,-5.1102,-4.99,-4.9159,-4.8427,-4.7964,-4.7709,-4.7452,-4.7382,-4.7472,-4.7429,-4.7758,-4.8386,-4.8386,-4.876,-4.9269,-4.87,-4.876,-4.9269,-4.8566,-4.87,-4.9359,-4.9823,-5.0405,-5.1109,-5.1199,-5.1229,-5.1229,-5.1229,-5.1229,-5.1229,-5.1229,0.0,0.0,0.0,0.0,0.0,0.0,0.0,0.0,0.0,0.0,0.0,0.0,0.0,0.0,0.0,0.0,0.0,0.0,0.0,0.0,0.0,0.0,0.0,0.0,-5.2808,-5.3465,-5.4212,-5.4331,-5.4331,-5.4381,-5.4889,-5.5227,-5.5317,-5.5619,-5.579,-5.579,-5.609,-5.6284,-5.6284,-5.6284,0.0,0.0,0.0,-5.2547,-5.1277,-4.9871,-4.8653,-4.7663,-4.7983,-4.7696,-4.7087,-4.7409,-4.7409,-4.7087,-4.7087,-4.7087,-4.7036,-4.6448,-4.5834,-4.5278,-4.4796,-4.431,-4.3899,-4.3899,-4.3899,-4.3899,0.0,-5.9914,-5.9453,-5.9081,-5.8978,-5.8909,-5.8736,-5.8561,-5.8384,-5.8171,-5.7991,-5.7881,-5.7881,-5.7881,-5.7543,-5.6664,-5.6055,-5.469,-5.2266,-5.1065,-5.0214,-4.9733,-4.8934,-4.8469,-4.8396,-4.7837,-4.7809,-4.835,-4.8175,-4.8446,-4.912,-4.912,-4.9179,-4.9299,-4.9179,-4.9179,-4.9269,-4.8566,-4.87,-4.9269,-4.8835,-4.9374,-5.0435,-5.0973,-5.1229,-5.1229,-5.1229,-5.1229,-5.1229,-5.1229,-5.1229,-5.1229,-5.1229,-5.1229,0.0,0.0,0.0,0.0,0.0,0.0,0.0,0.0,0.0,0.0,0.0,0.0,0.0,0.0,0.0,0.0,0.0,0.0,0.0,-5.298,-5.3275,-5.3748,-5.4931,-5.5108,-5.516,-5.5389,-5.5301,-5.5493,-5.6054,-5.6179,-5.6185,-5.6185,-5.6249,-5.6284,-5.6284,-5.604,-5.5634,-5.5005,-5.3754,-5.2508,-5.1206,-4.9969,-4.8782,-4.7596,-4.744,0.0,-4.6481,-4.6541,-4.6541,-4.6481,-4.6481,-4.6481,-4.6405,-4.5372,-4.4364,-4.3512,-4.3913,-4.3976,-4.3899,-4.3899,-4.3899,-4.3899,-6.0552,-5.9946,-5.9453,-5.9081,-5.9012,-5.8944,-5.8806,-5.8701,-5.8525,-5.8241,-5.8099,-5.7991,-5.7918,-5.7881,-5.7577,-5.6867,-5.5678,-5.4181,-5.2302,-5.1401,-5.0723,-5.0214,-4.9381,-4.9078,-4.9294,-4.8748,-4.8741,-4.9277,-4.9086,-4.9284,-4.9915,-4.9808,-4.9912,-5.0242,-4.9912,-4.9763,-4.9703,-4.9045,-4.882,-4.882,-4.882,-4.8985,-4.9374,-5.0315,-5.0883,-5.1229,-5.1229,-5.1229,-5.1229,-5.1229,-5.1229,-5.1229,-5.1229,-5.1229,-5.1229,0.0,0.0,0.0,0.0,0.0,0.0,0.0,0.0,0.0,0.0,0.0,0.0,0.0,0.0,-5.1147,-5.1356,0.0,-5.2623,-5.3272,-5.392,-5.4569,-5.5217,-5.5413,-5.5672,-5.5966,-5.586,-5.5955,-5.6255,-5.6442,-5.651,-5.651,-5.6694,-5.6705,-5.6624,-5.6263,-5.5676,-5.4742,-5.334,-5.2031,-5.0775,-4.9541,-4.8396,-4.7349,-4.7191,-4.6853,-4.6301,-4.6301,-4.615,-4.5924,-4.6175,-4.615,-4.5824,-4.497,-4.4141,-4.3419,-4.3422,-4.3432,-4.3432,-4.3432,-4.3432,-4.3432,-6.0768,-5.9984,-5.9453,-5.9081,-5.9012,-5.8944,-5.884,-5.8806,-5.8666,-5.8384,-5.8277,-5.8135,-5.7954,-5.7918,-5.7543,-5.6664,-5.5304,-5.3911,-5.2516,-5.1878,-5.1327,-5.0755,-5.0018,-4.9815,-5.033,-4.9747,-4.9806,-5.0459,-5.0106,-5.026,-5.0925,-5.0605,-5.0767,-5.1246,-5.0661,-5.0375,-5.0345,-4.9733,-4.9075,-4.8506,-4.897,-4.8745,-4.8386,-4.9464,-5.0272,-5.087,-5.099,-5.102,-5.105,-5.1169,-5.1229,-5.1229,-5.1229,-5.1229,-5.1229,-5.1229,-5.1229,0.0,0.0,0.0,0.0,0.0,0.0,0.0,0.0,-5.1011,-5.0852,-5.0876,-5.1128,-5.1405,-5.1591,-5.2532,-5.3267,-5.3414,-5.4413,-5.5207,-5.5325,-5.5669,-5.6084,-5.6447,-5.6358,-5.6358,-5.6476,-5.6753,-5.6881,-5.6881,-5.7125,-5.7191,-5.6936,-5.648,-5.5701,-5.4437,-5.2956,-5.1626,-5.0359,-4.9274,-4.8294,-4.7456,-4.733,-4.7004,-4.6476,-4.6351,-4.5999,-4.5522,-4.5949,-4.5824,-4.5271,-4.4819,-4.4292,-4.374,-4.3187,-4.2986,-4.2986,-4.2986,-4.2986,-4.2986,0.0,-6.0303,-5.9453,-5.9081,-5.9012,-5.8978,-5.8978,-5.8875,-5.8771,-5.8736,-5.8419,-5.8171,-5.8171,-5.7991,-5.734,-5.5953,-5.5473,-5.4589,-5.2934,-5.2449,-5.202,-5.1586,-5.0951,-5.0884,-5.1423,-5.0618,-5.0818,-5.2125,-5.144,-5.1452,-5.2093,-5.1636,-5.1466,-5.1526,-5.1233,-5.1109,-5.105,-5.0375,-4.9763,-4.9149,-4.8596,-4.8356,-4.8297,-4.8446,-4.8925,-4.9553,-5.0152,-5.0315,-5.0375,-5.102,-5.1229,-5.1229,-5.1229,-5.1229,-5.1229,-5.1229,-5.1229,-5.1229,-5.1229,-5.1229,-5.1229,-5.1229,-5.1229,-5.1229,0.0,-5.1011,-5.0876,-5.1276,-5.116,-5.1353,-5.2289,-5.2558,-5.2849,-5.3431,-5.4129,-5.4798,-5.5322,-5.5936,-5.6546,-5.7154,-5.6747,-5.663,-5.7154,-5.7214,-5.7243,-5.7243,-5.7274,-5.7191,-5.6936,-5.6077,-5.5116,-5.4079,-5.2754,-5.1642,-5.0575,-5.0143,-4.9457,-4.8586,-4.8058,-4.7556,-4.6968,-4.6527,-4.5999,-4.5497,-4.5547,-4.5246,-4.4719,-4.4644,-4.4292,-4.374,-4.3187,-4.2986,-4.2986,-4.2986,-4.2986,-4.2986,0.0,-6.1049,-6.0274,-5.9354,-5.9081,-5.9012,-5.9012,-5.8944,-5.8909,-5.8806,-5.8631,-5.8455,-5.8241,-5.8027,-5.7476,-5.6427,-5.5883,-5.5033,-5.3815,-5.3033,-5.252,-5.2236,-5.1769,-5.1689,-5.2094,-5.2012,-5.2272,-5.2913,-5.2895,-5.289,-5.2935,-5.2577,-5.2261,-5.1987,-5.1711,-5.1526,-5.1386,-5.0976,-5.0212,-4.9299,-4.9,-4.8386,-4.7728,-4.7728,-4.7878,-4.8267,-4.9314,-4.9673,0.0,-5.0002,-5.0331,-5.0614,-5.0614,-5.0853,-5.1229,-5.1229,-5.1229,-5.1229,-5.1229,-5.1229,-5.1229,-5.1229,-5.1229,-5.1319,-5.1708,-5.1435,-5.1276,-5.1857,-5.195,-5.2086,-5.2536,-5.2862,-5.3326,-5.3994,-5.4633,-5.5271,-5.591,-5.6549,-5.7013,-5.7274,-5.7071,-5.7013,-5.7274,-5.7303,-5.7247,-5.7107,-5.7107,-5.6766,-5.6135,-5.5351,-5.4318,-5.2929,-5.197,-5.1057,-5.004,-4.9847,-4.9442,-4.8761,-4.8184,-4.7631,-4.7043,-4.6552,-4.5999,-4.5447,-4.4794,-4.4744,-4.507,-4.4418,-4.4192,-4.4192,-4.3313,-4.2986,-4.2986,-4.2986,-4.2986,-4.2986,0.0,-6.1934,-6.099,-5.9868,-5.9355,-5.9047,-5.9012,-5.9012,-5.8944,-5.8875,-5.8806,-5.8631,-5.8241,-5.8063,-5.7683,-5.6867,-5.6325,-5.5545,-5.4426,-5.375,-5.3174,-5.2765,-5.2449,-5.2422,-5.2744,-5.3003,-5.3272,-5.3535,-5.3879,-5.3925,-5.3627,-5.3384,-5.3082,-5.2771,-5.2366,-5.1957,-5.1577,-5.1255,-5.0365,-4.9074,-4.903,-4.8327,-4.7309,-4.7309,-4.7309,-4.7459,-4.8596,-4.903,-4.906,-4.9239,-4.9583,-5.0002,-5.0136,-5.0524,-5.0943,-5.1169,-5.1229,-5.1229,-5.1229,-5.1229,-5.1229,-5.1229,-5.1349,-5.1618,-5.2097,-5.1951,-5.1886,-5.2564,-5.2661,-5.2681,-5.2804,-5.321,-5.3733,-5.44,-5.501,-5.5649,-5.6316,-5.6926,-5.7247,-5.7191,-5.7191,-5.7134,-5.7078,-5.7134,-5.7107,-5.6936,-5.6766,-5.625,-5.5437,-5.4556,-5.3416,-5.2006,-5.122,-5.0423,-4.959,-4.959,-4.9389,-4.8987,-4.8259,-4.7707,-4.7305,-4.6301,-4.5623,-4.5196,-4.4217,-4.4267,-4.497,-4.4141,-4.4041,-4.4292,-4.3338,-4.2986,-4.2986,-4.2986,-4.2986,-4.2986,0.0,0.0,-6.1328,-6.0766,-5.9905,-5.9251,-5.9012,-5.9012,-5.9012,-5.8978,-5.8875,-5.8631,-5.8241,-5.8171,-5.7827,-5.6867,-5.6799,-5.6156,-5.4702,-5.4566,-5.416,-5.3212,-5.2972,-5.3098,-5.3651,-5.3287,-5.3428,-5.4081,-5.415,-5.4188,-5.4148,-5.4041,-5.3934,-5.3891,-5.3258,-5.2445,-5.1577,-5.1194,-5.0077,-4.8605,-4.8385,-4.7908,-4.7309,-4.7309,-4.7309,-4.7399,-4.8087,-4.8327,-4.8416,-4.909,-4.9329,-4.9449,-4.9986,-5.0196,-5.0345,-5.0973,-5.1229,-5.1229,-5.1229,-5.1229,-5.1229,-5.1229,-5.1708,-5.2187,-5.2187,-5.2259,-5.2594,-5.3213,-5.2953,-5.2746,-5.3355,-5.35,-5.3733,-5.44,-5.501,-5.5649,-5.6316,-5.6926,-5.7191,-5.6936,-5.6936,-5.6766,-5.6451,-5.6709,-5.6936,-5.688,-5.6365,-5.5729,-5.5029,-5.3752,-5.2623,-5.1659,-5.0677,-4.9976,-4.959,-4.959,-4.959,-4.9565,-4.8435,-4.7908,-4.7807,-4.5648,-4.4669,-4.4618,-4.4041,-4.3815,-4.384,-4.3815,-4.3815,-4.3765,-4.3212,-4.2986,-4.2986,-4.2986,-4.2986,-4.2986,0.0,0.0,0.0,0.0,0.0,-5.9941,-5.9116,-5.9012,-5.9012,-5.9012,-5.8875,0.0,0.0,0.0,0.0,0.0,-5.7248,-5.6738,-5.6089,-5.5615,-5.4971,-5.416,-5.4057,-5.3818,-5.3409,-5.3738,-5.3892,-5.3835,-5.4344,-5.4448,-5.4142,-5.4098,-5.384,-5.3471,-5.2908,-5.2324,-5.1726,-5.1061,-5.0149,-4.9194,-4.8706,-4.8096,-4.7452,-4.7352,-4.7309,-4.7339,0.0,-4.7638,-4.7668,-4.7908,-4.8267,-4.8656,-4.8865,-4.9553,-5.0315,-5.102,-5.1229,-5.1229,-5.1229,-5.1229,-5.1229,-5.1229,-5.1708,-5.2306,-5.2755,-5.2991,-5.3242,-5.3861,-5.3545,-5.3268,-5.3471,-5.35,-5.3849,-5.4923,-5.5271,-5.5765,-5.6868,-5.7187,-5.7191,-5.6936,-5.6709,-5.648,-5.6135,-5.6423,-5.6423,-5.6019,-5.5351,-5.4616,-5.3779,-5.2685,-5.1695,-5.0968,-5.0359,-4.9937,-4.959,-4.959,-4.959,-4.959,-4.8435,-4.7531,-4.6803,-4.5296,-4.4618,-4.4568,-4.3664,-4.3463,-4.3765,-4.3413,-4.3463,-4.374,-4.3187,-4.2986,-4.2986,-4.2986,-4.2986,-4.2986,0.0,0.0,0.0,0.0,0.0,0.0,0.0,0.0,0.0,0.0,0.0,0.0,0.0,0.0,0.0,0.0,0.0,-5.7424,-5.7046,-5.6571,-5.5994,-5.5213,-5.4907,-5.45,-5.389,-5.4025,-5.3954,-5.3676,-5.4307,-5.4495,-5.417,-5.4287,-5.4124,-5.3743,-5.3285,-5.2724,-5.2061,-5.1287,-5.0414,-4.9543,-4.8901,-4.8273,-4.7709,-4.7495,-4.7352,0.0,-4.7309,-4.7309,-4.7309,-4.7309,-4.7578,-4.7967,-4.8207,-4.9194,-5.0285,-5.0704,-5.0973,-5.1229,-5.1229,-5.1229,-5.1229,-5.1229,-5.1887,-5.2665,-5.2987,-5.3366,-5.3781,-5.4112,-5.3815,-5.35,-5.35,-5.35,-5.3936,-5.5184,-5.5416,-5.5852,-5.7129,-5.7303,-5.7134,-5.6766,-5.6365,-5.5875,-5.5379,-5.5233,-5.5233,-5.5116,-5.4318,-5.3477,-5.2773,-5.1783,-5.0968,-5.0423,-5.0104,-4.9783,-4.959,-4.959,-4.9389,-4.8987,-4.8259,-4.7355,-4.6276,-4.5146,-4.4618,-4.4568,-4.3463,-4.3187,-4.3489,-4.3112,-4.3187,-4.3463,-4.3112,-4.2986,-4.2986,-4.2986,-4.2986,-4.2986,0.0,0.0,0.0,0.0,0.0,0.0,0.0,0.0,0.0,0.0,0.0,0.0,0.0,0.0,0.0,0.0,0.0,0.0,-5.7499,-5.7465,-5.7158,-5.6372,-5.562,-5.5176,-5.5175,-5.4259,-5.3751,-5.3751,-5.4126,-5.429,-5.4256,-5.4606,-5.4725,-5.4689,-5.425,-5.348,-5.2449,-5.1765,-5.0787,-4.9653,-4.8934,-4.8427,-4.8007,-4.7709,-4.7495,-4.7309,-4.7309,-4.7309,-4.7309,-4.7309,-4.7309,-4.7429,-4.8117,-4.9194,-5.0166,-5.0226,-5.0674,-5.1229,-5.1229,-5.1229,-5.1229,-5.1229,-5.2217,-5.3125,-5.2832,-5.3592,-5.42,-5.3971,-5.371,-5.35,-5.35,-5.35,-5.3936,-5.5184,-5.5416,-5.5852,-5.7129,-5.7303,-5.7078,-5.6451,-5.5903,-5.5085,-5.4079,-5.3443,-5.3416,-5.4259,-5.32,-5.2342,-5.2059,-5.1094,-5.0423,-5.004,-4.9783,-4.959,-4.959,-4.9565,-4.8987,-4.7908,-4.7883,-4.733,-4.6276,-4.5146,-4.4618,-4.4568,-4.3463,-4.2986,-4.2986,-4.2986,-4.2986,-4.2986,-4.2986,-4.2986,-4.2986,-4.2986,-4.2986,-4.2986,0.0,0.0,0.0,0.0,0.0,0.0,0.0,0.0,0.0,0.0,0.0,0.0,0.0,0.0,0.0,0.0,0.0,0.0,-5.8252,-5.8217,-5.7875,-5.7123,-5.6918,-5.6577,-5.5996,-5.5177,-5.4734,-5.4734,-5.416,-5.3855,-5.3822,-5.3855,-5.3751,-5.3612,-5.3332,-5.2986,-5.2536,-5.1773,-5.1151,-5.064,-4.9701,-4.9056,-4.8604,-4.8091,-4.7752,-4.7495,-4.7352,-4.7309,-4.7309,-4.7309,-4.7309,-4.7489,-4.87,-4.9254,-4.9703,-5.069,-5.1079,-5.1229,-5.1229,-5.1229,-5.1229,-5.1229,-5.2217,-5.3125,-5.2832,-5.3592,-5.42,-5.3971,-5.371,-5.35,-5.35,-5.35,-5.3936,-5.5184,-5.5416,-5.5852,-5.7129,-5.7303,-5.7078,-5.6451,-5.5903,-5.5026,-5.3833,-5.2922,-5.2218,-5.197,-5.1632,-5.1346,-5.0968,-5.0295,-4.9847,-4.9719,-4.9654,-4.959,-4.959,-4.9188,-4.8611,-4.7908,-4.7506,-4.6979,-4.6276,-4.5146,-4.4618,-4.4568,-4.3463,-4.2986,-4.2986,-4.2986,-4.2986,-4.2986,-4.2986,-4.2986,-4.2986,-4.2986,-4.2986,-4.2986,0.0,0.0,0.0,0.0,0.0,0.0,0.0,0.0,0.0,0.0,0.0,0.0,0.0,0.0,0.0,0.0,0.0,0.0,0.0,-5.8702,-5.853,-5.8118,-5.7775,-5.7432,-5.702,-5.6164,-5.572,-5.572,-5.5042,-5.4533,-5.4227,-5.4059,-5.372,-5.3348,-5.3212,-5.3041,-5.2835,-5.2307,-5.1842,0.0,0.0,-4.986,-4.9138,-4.848,-4.8007,-4.7581,-4.7396,-4.7309,-4.7309,-4.7309,-4.7309,-4.7489,-4.8506,-4.909,-4.9509,-5.0481,-5.0943,-5.1229,-5.1229,-5.1229,-5.1229,-5.1229,-5.2217,-5.3077,-5.2714,-5.3491,-5.42,-5.3815,-5.3605,-5.35,-5.35,-5.35,-5.3849,-5.4865,-5.5242,-5.5765,-5.6781,-5.7129,-5.7078,-5.6451,-5.5759,-5.4762,-5.3504,-5.2368,-5.1372,-5.0677,-5.0677,-5.0588,-5.0423,-4.9912,-4.959,-4.959,-4.959,-4.959,-4.959,-4.9063,-4.8485,-4.7908,-4.738,-4.6853,-4.6276,-4.5397,-4.4869,-4.4568,-4.3714,-4.3212,-4.2986,-4.2986,-4.2986,-4.2986,-4.2986,-4.2986,-4.2986,-4.2986,-4.2986,-4.2986,0.0,0.0,0.0,0.0,0.0,0.0,0.0,0.0,0.0,0.0,-5.9012,-5.9012,0.0,0.0,0.0,0.0,0.0,0.0,0.0,0.0,-5.9012,-5.9012,-5.8392,-5.8047,-5.8047,-5.7155,-5.671,-5.671,-5.6269,-5.5758,-5.5077,-5.4873,-5.4397,-5.3653,-5.3653,-5.3484,-5.3213,-5.3007,-5.2626,-5.2059,-5.1438,-5.0647,-4.9701,0.0,-4.8343,-4.7709,-4.7396,-4.7309,-4.7309,-4.7309,-4.7369,-4.7549,-4.8207,-4.8865,-4.9523,-5.0136,-5.0734,-5.1229,-5.1229,-5.1229,-5.1229,-5.1229,-5.2127,-5.2908,-5.2398,-5.3213,-5.3914,-5.3373,-5.3326,-5.3384,-5.3384,-5.3471,-5.3733,-5.44,-5.501,-5.5649,-5.6316,-5.6926,-5.7078,-5.6509,-5.5701,-5.4616,-5.3295,-5.197,-5.0931,-5.0193,-5.0065,-5.004,-5.004,-4.9783,-4.959,-4.959,-4.959,-4.959,-4.959,-4.8962,-4.841,-4.7908,-4.7305,-4.6778,-4.6301,-4.5748,-4.5171,-4.4593,-4.4041,-4.3489,-4.2986,-4.2986,-4.2986,-4.2986,-4.2986,-4.2986,-4.2986,-4.2986,-4.2986,-4.2986,0.0,0.0,0.0,0.0,0.0,0.0,0.0,0.0,0.0,0.0,-5.9012,-5.9012,0.0,0.0,0.0,0.0,0.0,0.0,0.0,0.0,0.0,-5.9012,-5.8875,-5.8806,-5.8806,-5.8048,-5.7635,-5.7635,-5.6814,-5.6268,-5.5962,-5.5826,-5.528,-5.4397,-5.4397,-5.4059,-5.3416,-5.3213,-5.3007,-5.2661,-5.2059,-5.1438,-5.0723,-4.9781,0.0,0.0,-4.7538,-4.7309,-4.7309,-4.7309,-4.7668,-4.8237,-4.894,-4.9553,-5.0136,-5.0794,-5.1139,-5.1229,-5.1229,-5.1229,-5.1229,-5.1229,-5.1798,-5.2222,-5.1689,-5.2181,-5.2591,-5.2035,-5.2368,-5.2746,-5.2746,-5.3152,-5.3733,-5.44,-5.501,-5.5649,-5.6316,-5.6926,-5.7191,-5.688,-5.625,-5.5175,-5.3571,-5.25,-5.1408,-5.0168,-4.9847,-4.9654,-4.9654,-4.9654,-4.959,-4.959,-4.959,-4.959,-4.959,-4.8586,-4.8008,-4.7908,-4.6928,-4.6401,-4.6301,-4.5748,-4.5171,-4.4593,-4.4041,-4.3489,-4.2986,-4.2986,-4.2986,-4.2986,-4.2986,-4.2986,-4.2986,-4.2986,-4.2986,-4.2986,0.0,0.0,0.0,0.0,0.0,0.0,0.0,-6.0461,-5.9909,-5.9116,-5.9012,-5.9012,-5.9012,-5.9012,-5.9012,0.0,0.0,0.0,0.0,0.0,0.0,-5.9012,-5.9012,-5.9012,-5.9012,-5.8668,-5.8495,-5.8495,0.0,-5.7398,-5.6816,-5.6643,-5.6061,-5.5175,-5.4769,-5.4397,-5.4059,-5.3551,-5.3246,-5.3007,-5.2626,-5.1987,-5.1177,-5.0377,0.0,0.0,-4.7666,-4.7396,-4.7309,-4.7309,-4.7758,-4.8386,-4.912,-4.9703,-5.0315,-5.102,-5.1229,-5.1229,-5.1229,-5.1229,-5.1229,-5.1229,-5.1708,-5.2043,-5.1512,-5.1945,-5.2267,-5.1715,-5.1875,-5.2165,-5.2565,-5.2833,-5.3239,-5.3878,-5.4409,-5.4938,-5.5603,-5.6099,-5.6392,-5.6451,-5.5845,-5.4939,-5.3685,-5.25,-5.1408,-5.0423,-4.9912,-4.959,-4.959,-4.959,-4.959,-4.959,-4.959,-4.959,-4.959,-4.8485,-4.7908,-4.7883,-4.6828,-4.6301,-4.6301,-4.6024,-4.5447,-4.4618,-4.4342,-4.374,-4.2986,-4.2986,-4.2986,-4.2986,-4.2986,-4.2986,-4.2986,-4.2986,-4.2986,-4.2986,0.0,0.0,0.0,0.0,0.0,0.0,-6.1461,-6.0806,-6.0082,-5.915,-5.9012,-5.9012,-5.9012,-5.9012,-5.9012,0.0,0.0,0.0,0.0,0.0,0.0,0.0,-5.9012,-5.9012,-5.9012,0.0,0.0,-5.9012,-5.8909,0.0,0.0,0.0,0.0,0.0,-5.5344,-5.4972,-5.4769,-5.4059,-5.3653,0.0,0.0,-5.2449,-5.1586,0.0,0.0,0.0,0.0,-4.7452,-4.7309,-4.7309,-4.7758,-4.8386,-4.912,-4.9703,-5.0315,-5.102,-5.1229,-5.1229,-5.1229,-5.1229,-5.1229,-5.1229,-5.1618,-5.1834,-5.1305,-5.1621,-5.1856,-5.1308,-5.1323,-5.1585,-5.2078,-5.2449,-5.2746,-5.3239,-5.3752,-5.4342,-5.4921,-5.5304,-5.5652,-5.6078,-5.5437,-5.4671,-5.3685,-5.2404,-5.1283,-5.055,-4.9912,-4.959,-4.959,-4.959,-4.959,-4.959,-4.959,-4.954,-4.9414,-4.841,-4.7857,-4.7732,-4.6778,-4.6301,-4.6301,-4.6301,-4.5698,-4.4618,-4.4618,-4.3991,-4.2986,-4.2986,-4.2986,-4.2986,-4.2986,-4.2986,-4.2986,-4.2986,-4.2986,-4.2986,0.0,0.0,0.0,0.0,0.0,0.0,-6.1566,-6.1254,-6.0668,-5.9185,-5.9012,-5.9012,-5.9012,-5.9012,-5.9012,0.0,0.0,0.0,0.0,0.0,0.0,0.0,0.0,0.0,0.0,0.0,0.0,-5.9012,-5.8978,0.0,0.0,0.0,0.0,0.0,0.0,-5.6224,-5.5581,-5.4803,0.0,0.0,0.0,0.0,0.0,0.0,0.0,0.0,0.0,-4.7452,-4.7309,-4.7309,-4.7758,-4.8386,-4.912,-4.9703,-5.0315,-5.102,-5.1229,-5.1229,-5.1229,-5.1229,-5.1229,-5.1229,-5.1259,-5.1178,-5.0685,-5.0648,-5.0533,-5.0019,-5.0336,-5.0772,-5.083,-5.1839,-5.2652,-5.2681,-5.3463,-5.4342,-5.4921,-5.5304,-5.5708,-5.628,-5.5584,-5.4616,-5.3631,-5.2377,-5.122,-5.0232,-4.9783,-4.959,-4.959,-4.959,-4.959,-4.959,-4.959,-4.9364,-4.8862,-4.8234,-4.7682,-4.7205,-4.6602,-4.6301,-4.6301,-4.6301,-4.5698,-4.4618,-4.4618,-4.3991,-4.2986,-4.2986,-4.2986,-4.2986,-4.2986,-4.2986,-4.2986,-4.2986,-4.2986,-4.2986,0.0,0.0,0.0,0.0,0.0,0.0,-6.2222,-6.2013,-6.1461,-5.9909,-5.9737,-5.953,-5.9047,-5.9012,-5.9012,-5.9012,-5.9012,0.0,0.0,0.0,0.0,0.0,0.0,0.0,0.0,0.0,-5.8944,-5.8875,-5.8875,0.0,0.0,0.0,0.0,0.0,0.0,-5.663,-5.6292,-5.5108,0.0,0.0,0.0,0.0,0.0,0.0,0.0,0.0,0.0,0.0,-4.7309,-4.7309,-4.7489,-4.7818,-4.8476,-4.9134,-4.9853,-5.09,-5.1229,-5.1229,-5.1229,-5.1229,-5.1229,-5.1229,-5.1229,-5.1088,-5.0596,-5.0501,-5.0357,-4.9815,-4.9872,-5.0191,-5.0647,-5.141,-5.2107,-5.2514,-5.2958,-5.3496,-5.4073,-5.4315,-5.4601,-5.4965,-5.4658,-5.4047,-5.3052,-5.197,-5.0867,-4.9847,-4.9654,-4.959,-4.959,-4.959,-4.959,-4.959,-4.959,-4.9339,-4.8786,-4.8209,-4.7657,-4.7068,-4.6577,-4.6301,-4.6301,-4.6301,-4.5698,-4.4618,-4.4618,-4.3991,-4.2986,-4.2986,-4.2986,-4.2986,-4.2986,-4.2986,-4.2986,-4.2986,-4.2986,-4.2986,0.0,0.0,0.0,0.0,0.0,-6.3892,-6.267,-6.2496,-6.2013,-6.0703,-6.053,-6.022,-5.9461,-5.9357,-5.9254,-5.9047,-5.9012,0.0,0.0,0.0,0.0,0.0,0.0,0.0,0.0,-5.8909,-5.8875,-5.8701,-5.8701,-5.8525,0.0,0.0,-5.8063,-5.7881,0.0,0.0,0.0,0.0,0.0,-5.4837,0.0,0.0,0.0,0.0,0.0,0.0,0.0,0.0,0.0,0.0,0.0,-4.7429,-4.8087,-4.8596,-4.9224,-5.0541,-5.1033,-5.1229,-5.1229,-5.1229,-5.1229,-5.1229,-5.1229,-5.1088,-5.0596,-5.0501,-5.0357,-4.9815,-4.9717,-4.9814,-5.0307,-5.0917,-5.1556,-5.2194,-5.2468,-5.2787,-5.3509,-5.3553,-5.3641,-5.3907,-5.3704,-5.3193,-5.2377,-5.1283,-5.0359,-4.9654,-4.959,-4.959,-4.959,-4.959,-4.959,-4.959,-4.9439,-4.9088,-4.851,-4.7958,-4.7405,-4.6878,-4.6502,-4.6301,-4.6301,-4.6301,-4.5698,-4.4618,-4.4618,-4.3991,-4.2986,-4.2986,-4.2986,-4.2986,-4.2986,-4.2986,-4.2986,-4.2986,-4.2986,-4.2986,0.0,0.0,0.0,0.0,0.0,-6.4662,-6.2776,-6.2496,-6.2186,-6.1392,-6.1289,-6.1013,-6.0254,-6.0185,-5.9875,-5.9081,-5.9012,0.0,0.0,0.0,0.0,0.0,-5.9012,-5.8944,-5.8771,-5.8771,-5.8701,-5.849,-5.849,-5.8419,-5.8171,-5.8171,-5.8063,-5.7881,0.0,0.0,0.0,0.0,-5.6359,-5.5511,0.0,0.0,-5.1327,0.0,0.0,0.0,0.0,0.0,0.0,0.0,0.0,0.0,0.0,-4.8297,-4.8566,-4.9807,-5.0674,-5.1229,-5.1229,-5.1229,-5.1229,-5.1229,-5.1229,-5.1088,-5.0596,-5.0501,-5.0357,-4.9815,-4.9717,-4.9717,-4.9746,-5.027,-5.0888,-5.1527,-5.1879,-5.2483,-5.3477,-5.3349,-5.3304,-5.3564,-5.2701,-5.1983,-5.1669,-5.0397,-4.959,-4.959,-4.959,-4.959,-4.959,-4.959,-4.959,-4.959,-4.9063,-4.851,-4.7933,-4.7405,-4.6853,-4.6326,-4.6301,-4.6301,-4.6301,-4.6301,-4.5698,-4.4618,-4.4618,-4.3991,-4.2986,-4.2986,-4.2986,-4.2986,-4.2986,-4.2986,-4.2986,-4.2986,-4.2986,-4.2986,0.0,0.0,0.0,0.0,0.0,0.0,-6.412,-6.3565,-6.2979,-6.222,-6.2117,-6.1806,-6.1047,-6.0944,-6.0634,-5.9909,-5.9323,0.0,0.0,0.0,0.0,-5.9012,-5.8909,-5.884,-5.8805,-5.8666,-5.849,-5.8278,-5.8278,-5.8171,-5.7991,-5.7991,-5.7954,-5.7881,-5.7881,-5.7881,0.0,-5.7103,-5.6018,-5.4661,0.0,-5.2265,-5.1102,0.0,0.0,0.0,0.0,0.0,0.0,0.0,0.0,0.0,0.0,0.0,0.0,-4.8775,-4.9673,-5.0614,-5.1109,-5.1229,-5.1229,-5.1229,-5.1058,-5.087,-5.0596,-5.0357,-5.0135,-4.9766,-4.9717,-4.9717,-4.9717,-5.027,-5.0888,-5.1527,-5.1879,-5.2311,-5.2905,-5.2901,-5.2799,-5.2663,-5.1937,-5.12,-5.0652,-4.9976,-4.959,-4.959,-4.959,-4.959,-4.959,-4.959,-4.959,-4.959,-4.9063,-4.8485,-4.7908,-4.738,-4.6853,-4.6301,-4.6301,-4.6301,-4.6301,-4.6301,-4.5698,-4.4618,-4.4618,-4.3991,-4.2986,-4.2986,-4.2986,-4.2986,-4.2986,-4.2986,-4.2986,-4.2986,-4.2986,-4.2986,0.0,0.0,0.0,0.0,0.0,0.0,-6.481,-6.4324,-6.3738,-6.3013,-6.291,-6.2599,-6.1841,-6.1737,-6.1461,-6.0668,-5.9909,0.0,0.0,0.0,0.0,-5.8909,-5.8771,-5.8631,-5.8561,-5.8455,-5.8312,-5.8063,-5.8063,-5.8027,-5.7881,-5.7881,-5.7881,-5.7881,-5.7881,-5.7881,0.0,-5.7103,-5.6115,-5.4886,-5.3672,-5.2552,-5.1377,0.0,0.0,0.0,0.0,0.0,0.0,0.0,0.0,0.0,0.0,0.0,0.0,0.0,-4.8865,-4.9703,-5.0554,-5.0973,-5.1229,-5.1229,-5.1011,-5.0728,-5.0548,-5.0279,-5.0038,-4.9766,-4.9717,-4.9717,-4.9717,-5.0017,-5.0598,-5.1468,-5.1677,-5.1942,-5.243,-5.2343,-5.196,-5.1373,-5.0769,-5.0257,-4.9976,-4.9719,-4.959,-4.959,-4.959,-4.959,-4.959,-4.9389,-4.9289,-4.9289,-4.8736,-4.8184,-4.7631,-4.7104,-4.6652,-4.6301,-4.6301,-4.6301,-4.6301,-4.6301,-4.5698,-4.4618,-4.4618,-4.3991,0.0,-4.2986,-4.2986,-4.2986,-4.2986,-4.2986,-4.2986,-4.2986,-4.2986,-4.2986,0.0,0.0,0.0,0.0,0.0,0.0,0.0,-6.4772,-6.4462,-6.3772,-6.3634,-6.3324,-6.2634,-6.2565,-6.2255,-6.1461,-6.0771,0.0,0.0,-5.8909,-5.8771,-5.8771,-5.8596,-5.8384,-5.8171,-5.8205,-5.8063,-5.7881,-5.7881,-5.7881,-5.7881,-5.7881,-5.7881,-5.7881,-5.7881,-5.7881,-5.7848,-5.7171,-5.6617,-5.6047,-5.428,-5.2988,0.0,0.0,0.0,0.0,0.0,0.0,0.0,0.0,0.0,0.0,0.0,0.0,0.0,0.0,0.0,0.0,0.0,-5.0554,-5.1139,-5.1092,-5.0934,-5.0728,-5.0548,-5.0231,0.0,-4.9717,-4.9717,-4.9717,-4.9717,-4.9669,-5.0104,-5.136,-5.1359,-5.1431,-5.2051,-5.1623,-5.0814,-4.9842,-4.9446,-4.9368,-4.9554,-4.9565,-4.959,-4.959,-4.959,-4.9565,-4.954,-4.9063,-4.8736,-4.8661,-4.8134,-4.7631,-4.7068,-4.6602,-4.6301,-4.6301,-4.6301,-4.6301,-4.6301,-4.6301,-4.5698,-4.4618,-4.4618,-4.3991,-4.2986,-4.2986,-4.2986,-4.2986,-4.2986,-4.2986,-4.2986,-4.2986,-4.2986,-4.2986,0.0,0.0,0.0,0.0,0.0,0.0,0.0,0.0,0.0,0.0,-6.3945,-6.3531,-6.3358,-6.3324,-6.3048,0.0,0.0,0.0,0.0,-5.9149,-5.8736,-5.8561,-5.8384,-5.8277,-5.8171,-5.8027,-5.7954,-5.7881,-5.7881,-5.7881,-5.7881,-5.7881,-5.7881,-5.7881,-5.7881,-5.7881,-5.7881,-5.7712,-5.7089,-5.6111,-5.5227,-5.3684,0.0,0.0,0.0,0.0,-4.8427,-4.8091,0.0,0.0,0.0,0.0,0.0,0.0,0.0,0.0,-4.7908,-4.8356,-4.8656,0.0,-5.0388,-5.0249,-5.0401,-5.0471,0.0,-4.999,-4.9766,-4.9717,-4.9717,-4.9717,-4.9717,-4.9551,-4.9808,-5.1106,-5.1052,-5.1147,-5.1781,-5.0929,-4.9876,-4.8927,-4.9091,-4.9217,-4.9026,-4.9339,-4.959,-4.959,-4.959,-4.9414,-4.8987,-4.8837,-4.8385,-4.7556,-4.738,-4.7255,-4.7068,-4.6602,-4.6301,-4.6301,-4.6301,-4.6301,-4.6301,-4.6301,-4.5698,-4.4618,-4.4618,-4.3991,-4.2986,-4.2986,-4.2986,-4.2986,-4.2986,-4.2986,-4.2986,-4.2986,-4.2986,-4.2986,0.0,0.0,0.0,0.0,0.0,0.0,0.0,0.0,0.0,0.0,-6.4358,-6.3979,-6.3634,-6.36,-6.3427,0.0,0.0,0.0,-6.0415,-5.9591,-5.8903,-5.8384,-5.8171,-5.8063,-5.8063,-5.7954,-5.7881,-5.7881,-5.7881,-5.7881,-5.7881,-5.7881,-5.7881,-5.7881,-5.7881,-5.7881,-5.7881,-5.7881,-5.7462,-5.6761,-5.5833,0.0,0.0,0.0,0.0,0.0,-4.8602,-4.8175,0.0,-4.7666,-4.7482,-4.7309,0.0,0.0,0.0,0.0,-4.7549,-4.7848,-4.7848,-4.9015,-5.015,-4.9918,-5.0189,-5.0453,-5.0135,-4.9892,-4.9717,-4.9717,-4.9717,-4.9717,-4.9717,-4.9502,-4.9659,-5.0771,-5.0536,-5.0222,-5.0324,-4.9511,-4.8721,-4.8146,-4.8186,-4.8296,-4.836,-4.8636,-4.8812,-4.8812,-4.8812,-4.8686,-4.8385,-4.8159,-4.7757,-4.7093,-4.6878,-4.6753,-4.6753,-4.6451,-4.6301,-4.6301,-4.6301,-4.6301,-4.6301,-4.6301,-4.5698,-4.4618,-4.4618,-4.3991,-4.2986,-4.2986,-4.2986,-4.2986,-4.2986,-4.2986,-4.2986,-4.2986,-4.2986,-4.2986,0.0,0.0,0.0,0.0,0.0,0.0,0.0,0.0,0.0,0.0,0.0,0.0,0.0,0.0,0.0,0.0,0.0,-6.2142,-6.1058,-6.0198,-5.9304,-5.8339,-5.8058,-5.7881,-5.7881,-5.7881,-5.7881,-5.7881,-5.7881,-5.7881,-5.7881,-5.7881,-5.7881,-5.7881,-5.7881,-5.7881,-5.7881,-5.7881,-5.7772,-5.7483,-5.625,0.0,0.0,0.0,0.0,0.0,0.0,0.0,0.0,-4.7752,-4.7525,-4.7309,-4.7309,0.0,0.0,0.0,0.0,0.0,-4.7309,-4.8611,-4.9954,-4.9723,-5.0082,-5.0357,-5.0086,-4.9892,-4.9717,-4.9717,-4.9669,-4.962,-4.962,-4.9355,-4.9381,-5.0218,-4.9774,-4.9118,-4.8594,-4.7971,-4.7589,-4.7475,-4.7262,-4.7305,-4.7732,-4.7857,-4.7908,-4.7908,-4.7908,-4.7883,-4.7782,-4.738,-4.7043,-4.7004,-4.6552,-4.6301,-4.6301,-4.6301,-4.6301,-4.6301,-4.6301,-4.6301,-4.6301,-4.6225,-4.5623,-4.4618,-4.4543,-4.3915,-4.2986,-4.2986,-4.2986,-4.2986,-4.2986,-4.2986,-4.2986,-4.2986,-4.2986,-4.2986,0.0,0.0,0.0,0.0,0.0,0.0,0.0,0.0,0.0,0.0,0.0,0.0,0.0,0.0,0.0,0.0,-6.3348,-6.2784,-6.1807,-6.087,-5.9936,-5.89,-5.8256,-5.7881,-5.7881,-5.7881,-5.7881,-5.7881,-5.7881,-5.7881,-5.7881,-5.7881,-5.7881,-5.7881,-5.7881,-5.7881,-5.7881,-5.7881,-5.7772,-5.7551,-5.6816,0.0,0.0,0.0,0.0,0.0,0.0,0.0,0.0,-4.7964,-4.7624,-4.7309,-4.7309,0.0,0.0,0.0,0.0,0.0,-4.7309,-4.8179,-4.907,-4.8765,-4.9445,-5.0086,-4.9815,-4.9717,-4.9717,-4.9717,-4.9551,-4.9355,-4.9355,-4.8781,-4.8404,-4.885,-4.8627,-4.8356,-4.8216,-4.7677,-4.7197,-4.6967,-4.7036,-4.7093,-4.7193,-4.7657,-4.7908,-4.7908,-4.7908,-4.7707,-4.728,-4.7118,-4.6928,-4.6451,-4.6351,-4.6301,-4.6301,-4.6301,-4.6301,-4.6301,-4.6301,-4.6301,-4.6301,-4.5824,-4.5246,-4.4593,-4.4141,-4.3564,-4.2986,-4.2986,-4.2986,-4.2986,-4.2986,-4.2986,-4.2986,-4.2986,-4.2986,-4.2986,0.0,0.0,0.0,0.0,0.0,0.0,0.0,0.0,0.0,0.0,0.0,0.0,0.0,0.0,0.0,0.0,-6.3414,-6.2918,-6.1978,-6.1003,-6.0068,-5.9032,-5.8287,-5.7881,-5.7881,-5.7881,-5.7881,-5.7881,-5.7881,-5.7881,-5.7881,-5.7881,-5.7881,-5.7881,-5.7881,-5.7881,-5.7881,-5.7881,-5.7772,-5.7551,0.0,0.0,0.0,0.0,0.0,0.0,0.0,0.0,0.0,0.0,-4.7666,-4.7309,-4.7309,0.0,0.0,0.0,0.0,0.0,-4.7728,-4.8268,-4.8752,-4.9014,-4.9574,-5.0038,-4.9766,-4.9717,-4.9669,-4.9502,-4.9404,-4.9207,-4.8909,-4.833,-4.7823,-4.7676,-4.7577,-4.7435,-4.739,-4.7172,-4.69,-4.6566,-4.6587,-4.6702,-4.6702,-4.6903,-4.7054,-4.7054,-4.7054,-4.6928,-4.6702,-4.6702,-4.6577,-4.6326,-4.6301,-4.6301,-4.6301,-4.6301,-4.6301,-4.6301,-4.6301,-4.6301,-4.6301,-4.5748,-4.5171,-4.4593,-4.4041,-4.3489,-4.2986,-4.2986,-4.2986,-4.2986,-4.2986,-4.2986,-4.2986,-4.2986,-4.2986,-4.2986,0.0,0.0,0.0,0.0,0.0,0.0,0.0,0.0,0.0,0.0,0.0,0.0,0.0,0.0,0.0,0.0,-6.348,-6.2912,-6.218,-6.1238,-6.0231,-5.9302,-5.8558,-5.8084,-5.7881,-5.7881,-5.7881,-5.7881,-5.7881,-5.7881,-5.7881,-5.7881,-5.7881,-5.7881,-5.7881,-5.7881,-5.7881,-5.7881,-5.7772,-5.7551,0.0,0.0,0.0,0.0,0.0,0.0,0.0,0.0,0.0,0.0,0.0,0.0,0.0,0.0,0.0,-4.7309,-4.7309,-4.7459,-4.8117,-4.8387,-4.8673,-4.9321,-4.9732,-4.9941,-4.9698,-4.96,-4.9502,-4.9207,-4.9009,-4.876,-4.8229,-4.76,-4.705,-4.6573,-4.6575,-4.6649,-4.6645,-4.6686,-4.6626,-4.6301,-4.6301,-4.6301,-4.6301,-4.6301,-4.6301,-4.6301,-4.6301,-4.6301,-4.6301,-4.6301,-4.6301,-4.6301,-4.6301,-4.6301,-4.6301,-4.6301,-4.6301,-4.6301,-4.6301,-4.625,-4.61,-4.5547,-4.497,-4.4392,-4.384,-4.3363,-4.2986,-4.2986,-4.2986,-4.2986,-4.2986,-4.2986,-4.2986,-4.2986,-4.2986,-4.2986,0.0,0.0,0.0,0.0,0.0,0.0,0.0,0.0,0.0,0.0,0.0,0.0,0.0,0.0,-6.4669,-6.4634,-6.3642,-6.3004,-6.2931,-6.1868,-6.0858,-6.0047,-5.9336,-5.8592,-5.7915,-5.7881,-5.7881,-5.7881,-5.7881,-5.7881,-5.7881,-5.7881,-5.7881,-5.7881,-5.7881,-5.7881,-5.7881,-5.7881,-5.7772,-5.7551,-5.6685,0.0,0.0,0.0,0.0,0.0,0.0,0.0,0.0,0.0,0.0,0.0,0.0,0.0,-4.7309,-4.7309,-4.7309,-4.7459,-4.8117,-4.8387,-4.8673,-4.9321,-4.9637,-4.9669,-4.9404,-4.9305,-4.9207,-4.8631,-4.8179,-4.7643,-4.705,-4.6223,-4.5607,-4.5582,-4.5795,-4.6062,-4.6285,-4.6301,-4.6301,-4.6301,-4.6301,-4.6301,-4.6301,-4.6301,-4.6301,-4.6301,-4.6301,-4.6301,-4.6301,-4.6301,-4.6301,-4.6301,-4.6301,-4.6301,-4.6301,-4.6301,-4.6301,-4.6301,-4.6301,-4.605,-4.5522,-4.4945,-4.4392,-4.384,-4.3263,-4.3011,-4.2986,-4.2986,-4.2986,-4.2986,-4.2986,-4.2986,-4.2986,-4.2986,-4.2986,-4.2986,0.0,0.0,0.0,0.0,0.0,0.0,0.0,0.0,0.0,0.0,0.0,-6.6014,-6.5221,0.0,-6.4531,-6.4048,-6.3364,-6.3,-6.3,-6.1936,-6.1163,-6.0858,-5.9674,-5.8896,-5.8592,-5.8118,-5.7881,-5.7881,-5.7881,-5.7881,-5.7881,-5.7881,-5.7881,-5.7881,-5.7881,-5.7808,-5.7698,-5.7588,-5.7252,-5.6796,-5.6179,-5.5499,0.0,0.0,0.0,0.0,0.0,0.0,0.0,0.0,-4.7752,-4.7452,-4.7352,-4.7309,-4.7399,-4.7788,-4.7908,-4.8147,-4.9224,-4.9307,-4.9292,-4.994,-4.9766,-4.9404,-4.9305,-4.9058,-4.8631,-4.8128,-4.7541,-4.6791,-4.5715,-4.5221,-4.5042,-4.5209,-4.5446,-4.5792,-4.6225,-4.6301,-4.6301,-4.6301,-4.6301,-4.6301,-4.6301,-4.6301,-4.6301,-4.6301,-4.6301,-4.6301,-4.6301,-4.6301,-4.6301,-4.6301,-4.6301,-4.6301,-4.6301,-4.6301,-4.6301,-4.6301,-4.6301,-4.6024,-4.5472,-4.4895,-4.4317,-4.3765,-4.3212,-4.2986,-4.2986,-4.2986,-4.2986,-4.2986,-4.2986,-4.2986,-4.2986,-4.2986,-4.2986,-4.2986,0.0,0.0,0.0,0.0,0.0,0.0,0.0,0.0,-6.5876,0.0,0.0,0.0,0.0,-6.4841,-6.4459,0.0,-6.3326,-6.2962,-6.2923,-6.2101,-6.1535,-6.1332,-6.0047,-5.9268,-5.9032,-5.8287,-5.7881,-5.7881,-5.7881,-5.7881,-5.7881,-5.7845,-5.7808,-5.7808,-5.7662,-5.7551,-5.7402,-5.7139,-5.6685,-5.6251,-5.5733,-5.5049,0.0,0.0,0.0,0.0,0.0,0.0,0.0,0.0,-4.8019,-4.7598,-4.7635,-4.7608,-4.7758,-4.8416,-4.864,-4.8835,-4.9897,-4.9872,-4.9646,-5.0324,-4.9844,-4.9157,-4.9058,-4.8631,-4.8027,-4.7312,-4.6506,-4.5555,-4.4505,-4.4519,-4.4738,-4.4915,-4.5389,-4.5874,-4.625,-4.6301,-4.6301,-4.6301,-4.6301,-4.6301,-4.6301,-4.6301,-4.6301,-4.6301,-4.6301,-4.6301,-4.6301,-4.6301,-4.6301,-4.6301,-4.6301,-4.6301,-4.6301,-4.6301,-4.6301,-4.6301,-4.6125,-4.5748,-4.5196,-4.4618,-4.4066,-4.3514,-4.3137,-4.2986,-4.2986,-4.2986,-4.2986,-4.2986,-4.2986,-4.2986,-4.2986,-4.2986,-4.2986,-4.2986,0.0,0.0,0.0,0.0,0.0,0.0,0.0,0.0,-6.5876,-6.5876,-6.5876,0.0,0.0,0.0,0.0,0.0,-6.3524,-6.2923,-6.2693,-6.2498,-6.2076,-6.1332,-6.0554,-5.9776,-5.9032,-5.8287,-5.7881,-5.7881,-5.7881,-5.7881,-5.7881,-5.7698,-5.7588,-5.7588,-5.7176,-5.6987,-5.6949,-5.6492,-5.6146,-5.5941,-5.5336,-5.4832,-5.4327,0.0,0.0,0.0,0.0,0.0,0.0,0.0,-4.8412,-4.7731,-4.8175,-4.8297,-4.8416,-4.912,-4.9329,-4.9404,-5.0062,-4.9872,-4.9646,-5.0324,-4.9698,-4.8859,-4.8531,-4.8078,-4.7363,-4.6218,-4.4856,-4.3764,-4.3462,-4.4036,-4.4618,-4.4618,-4.5573,-4.6301,-4.6301,-4.6301,-4.6301,-4.6301,-4.6301,-4.6301,-4.6301,-4.6301,-4.6301,-4.6301,-4.6301,-4.6301,-4.6301,-4.6301,-4.6301,-4.6301,-4.6301,-4.6301,-4.6301,-4.6301,-4.6301,-4.6301,-4.5748,-4.5171,-4.4593,-4.4041,-4.3489,-4.2986,-4.2986,-4.2986,-4.2986,-4.2986,-4.2986,-4.2986,-4.2986,-4.2986,-4.2986,-4.2986,-4.2986,-4.2986,0.0,0.0,0.0,0.0,0.0,0.0,0.0,0.0,-6.4289,-6.4289,-6.4289,0.0,0.0,0.0,0.0,0.0,0.0,-6.2923,-6.2693,-6.2498,-6.2279,-6.2076,-6.1366,-6.0588,-5.981,-5.8524,-5.7881,-5.7881,-5.7881,-5.7808,-5.7698,-5.7476,-5.7252,-5.6949,-5.6647,-5.6336,-5.606,-5.5588,-5.5181,-5.4842,-5.4295,-5.3856,-5.3452,0.0,0.0,0.0,0.0,0.0,0.0,0.0,0.0,0.0,-4.9059,-4.903,-4.9105,-4.9763,-4.9942,-5.0092,-5.075,-5.0555,-5.0235,-5.0442,-4.9698,-4.881,-4.833,-4.7466,-4.6376,-4.4856,-4.3984,-4.3462,-4.3184,-4.3922,-4.4618,-4.4618,-4.5573,-4.6301,-4.6301,-4.6301,-4.6301,-4.6301,-4.6301,-4.6301,-4.6301,-4.6301,-4.6301,-4.6301,-4.6301,-4.6301,-4.6301,-4.6301,-4.6301,-4.6301,-4.6301,-4.6301,-4.6301,-4.6301,-4.6125,-4.5723,-4.5146,-4.4794,-4.4593,-4.4041,-4.3489,-4.2986,-4.2986,-4.2986,-4.2986,-4.2986,-4.2986,-4.2986,-4.2986,-4.2986,-4.2986,-4.2986,-4.2986,-4.2986,0.0,0.0,0.0,0.0,0.0,0.0,-6.36,-6.36,-6.36,-6.36,-6.36,-6.36,0.0,0.0,0.0,-6.3189,-6.3,-6.2808,-6.2576,-6.2459,-6.2381,-6.2381,-6.167,-6.0926,-6.0114,-5.8856,-5.8174,-5.81,-5.7904,-5.7588,-5.7252,-5.7025,-5.668,-5.6139,-5.5829,-5.5499,-5.5131,-5.4685,-5.4338,-5.4114,-5.3726,-5.3409,-5.3086,0.0,0.0,0.0,0.0,0.0,0.0,0.0,0.0,0.0,-4.9719,-4.9643,-4.9793,-5.0375,-5.0584,-5.0674,-5.1109,-5.0852,-5.0501,-5.0501,-4.9698,-4.8581,-4.7387,-4.6348,-4.5368,-4.3984,-4.3462,-4.3184,-4.3042,-4.3689,-4.4367,-4.4593,-4.5397,-4.6075,-4.6276,-4.6301,-4.6301,-4.6301,-4.6301,-4.6301,-4.6301,-4.6301,-4.6301,-4.6301,-4.6301,-4.6301,-4.6301,-4.6301,-4.6301,-4.6301,-4.6301,-4.6301,-4.6301,-4.6301,-4.6024,-4.5472,-4.4895,-4.4518,-4.4267,-4.374,-4.3288,-4.2986,-4.2986,-4.2986,-4.2986,-4.2986,-4.2986,-4.2986,-4.2986,-4.2986,-4.2986,-4.2986,-4.2986,-4.2986,0.0,0.0,-6.36,-6.36,0.0,0.0,-6.36,-6.36,-6.36,-6.36,-6.36,-6.36,0.0,0.0,0.0,-6.3,-6.2808,-6.2615,-6.242,-6.2381,-6.2381,-6.2381,-6.167,-6.096,-6.0178,-5.9245,-5.8648,-5.8418,-5.7804,-5.7214,-5.6641,-5.6369,-5.5934,-5.5295,-5.4842,-5.4507,-5.4285,-5.3813,-5.364,-5.364,-5.3421,-5.3233,-5.3086,-5.3086,0.0,0.0,0.0,0.0,0.0,0.0,0.0,0.0,-5.0289,-5.0285,-5.0405,-5.1003,-5.1229,-5.1229,-5.1229,-5.0852,-5.0548,-5.0501,-4.9649,-4.8201,-4.5979,-4.5073,-4.4396,-4.3547,-4.3184,-4.2986,-4.2986,-4.3438,-4.3966,-4.4468,-4.507,-4.5673,-4.6175,-4.6276,-4.6301,-4.6301,-4.6301,-4.6301,-4.6301,-4.6301,-4.6301,-4.6301,-4.6301,-4.6301,-4.6301,-4.6301,-4.6301,-4.6301,-4.6301,-4.6301,-4.6301,-4.625,-4.5949,-4.5397,-4.4819,-4.4267,-4.3714,-4.3212,-4.2986,-4.2986,-4.2986,-4.2986,-4.2986,-4.2986,-4.2986,-4.2986,-4.2986,-4.2986,-4.2986,-4.2986,-4.2986,-4.2986,0.0,0.0,-6.36,-6.36,0.0,0.0,-6.36,-6.36,-6.36,-6.36,-6.36,-6.3526,-6.3377,-6.3302,0.0,-6.277,-6.2693,-6.2615,-6.242,-6.2381,-6.2381,-6.2381,-6.167,-6.112,-6.0762,-5.9823,-5.907,-5.8481,-5.7426,-5.6641,-5.6139,-5.5547,-5.5058,-5.4591,-5.4125,-5.3813,-5.3596,-5.3365,-5.3233,-5.3188,-5.2922,-5.2833,-5.2819,-5.2819,-5.2774,0.0,0.0,0.0,0.0,0.0,0.0,0.0,-5.1099,-5.0973,-5.0973,-5.1169,-5.1229,-5.1229,-5.1229,-5.0964,-5.068,-5.0548,-4.9227,-4.7541,-4.5873,-4.4912,-4.4148,-4.324,-4.3042,-4.2986,-4.2986,-4.3438,-4.384,-4.3966,-4.4819,-4.5522,-4.5648,-4.6024,-4.6301,-4.6301,-4.6301,-4.6301,-4.6301,-4.6301,-4.6301,-4.6301,-4.6301,-4.6301,-4.6301,-4.6301,-4.6301,-4.6301,-4.6301,-4.6301,-4.6301,-4.5874,-4.5372,-4.4794,-4.4242,-4.3689,-4.3162,-4.3037,-4.2986,-4.2986,-4.2986,-4.2986,-4.2986,-4.2986,-4.2986,-4.2986,-4.2986,-4.2986,-4.2986,-4.2986,-4.2986,-4.2986,0.0,0.0,0.0,0.0,0.0,0.0,0.0,0.0,-6.3563,-6.3452,-6.3452,-6.3377,-6.3189,-6.3076,0.0,0.0,-6.2576,-6.2498,-6.2381,-6.2381,-6.2381,-6.2381,-6.2009,-6.1728,-6.1425,-6.0291,-5.9444,-5.8873,-5.738,-5.6334,-5.5698,-5.5012,-5.438,-5.377,-5.354,-5.3277,-5.3055,-5.2922,-5.2908,-5.2908,-5.2774,-5.2698,-5.2698,-5.2698,-5.2698,-5.2698,-5.2698,0.0,0.0,0.0,0.0,0.0,0.0,0.0,-5.1229,-5.1229,-5.1229,-5.1229,-5.1229,-5.1011,-5.068,-5.0086,-4.8781,-4.7256,-4.582,-4.475,-4.3874,-4.3154,-4.2986,-4.2986,-4.2986,-4.3212,-4.3489,-4.3765,-4.4292,-4.4869,-4.5422,-4.5723,-4.6024,-4.6276,-4.6301,-4.6301,-4.6301,-4.6301,-4.6301,-4.6301,-4.6301,-4.6301,-4.6301,-4.6301,-4.6301,-4.6301,-4.6301,-4.6301,-4.6301,-4.5773,-4.5196,-4.4618,-4.4066,-4.3514,-4.2986,-4.2986,-4.2986,-4.2986,-4.2986,-4.2986,-4.2986,-4.2986,-4.2986,-4.2986,-4.2986,-4.2986,-4.2986,-4.2986,-4.2986,-4.2986,0.0,0.0,0.0,0.0,0.0,0.0,0.0,0.0,0.0,-6.3265,-6.3227,-6.3152,-6.2962,-6.2808,-6.2688,0.0,0.0,0.0,-6.2381,-6.2381,-6.2381,-6.2381,-6.2341,-6.2189,-6.1917,-6.0636,-5.972,-5.9281,-5.7448,-5.6195,-5.543,-5.4695,-5.3958,-5.3241,-5.3073,-5.2908,-5.2698,-5.2698,-5.2698,-5.2698,-5.2698,-5.2698,-5.2698,-5.2698,-5.2698,-5.2698,-5.2698,-5.2653,-5.2563,-5.2139,0.0,0.0,0.0,0.0,-5.1229,-5.1229,-5.1229,-5.1229,-5.1229,-5.1011,-5.0585,-4.9698,-4.8553,-4.7308,-4.5979,-4.475,-4.3764,-4.3184,-4.3042,-4.2986,-4.2986,-4.2986,-4.3137,-4.3589,-4.374,-4.4141,-4.507,-4.5372,-4.5648,-4.6125,-4.625,-4.6301,-4.6301,-4.6301,-4.6301,-4.6301,-4.6301,-4.6301,-4.6301,-4.6301,-4.6301,-4.6301,-4.6301,-4.6301,-4.6301,-4.5673,-4.5095,-4.4618,-4.3966,-4.3413,-4.2986,-4.2986,-4.2986,-4.2986,-4.2986,-4.2986,-4.2986,-4.2986,-4.2986,-4.2986,-4.2986,-4.2986,-4.2986,-4.2986,-4.2986,-4.2986,0.0,0.0,0.0,0.0,0.0,0.0,0.0,0.0,0.0,0.0,-6.3038,-6.2962,-6.2731,-6.2727,-6.2615,-6.2459,-6.242,-6.2381,-6.2381,0.0,0.0,-6.2381,-6.2189,-6.1877,-6.1506,-6.0745,-5.9903,-5.9024,-5.748,-5.6371,-5.5611,-5.4634,-5.4089,-5.3923,-5.311,-5.2698,-5.2698,-5.2698,-5.2698,-5.2698,-5.2698,-5.2698,-5.2698,-5.2698,-5.2698,-5.2698,-5.2698,-5.2563,-5.2306,-5.2063,-5.1834,0.0,0.0,0.0,-5.1229,-5.1229,-5.1229,-5.1229,-5.1229,-5.1011,-5.068,-5.0135,-4.8951,-4.7666,-4.6531,-4.5235,-4.4094,-4.3462,-4.3129,-4.2986,-4.2986,-4.2986,-4.3011,-4.3087,-4.3489,-4.384,-4.4016,-4.4869,-4.5522,-4.5598,-4.6024,-4.6301,-4.6301,-4.6301,-4.6301,-4.6301,-4.6301,-4.6301,-4.6301,-4.6301,-4.6301,-4.6301,-4.6301,-4.6301,-4.6301,-4.5271,-4.4694,-4.4618,-4.3589,-4.3062,-4.2986,-4.2986,-4.2986,-4.2986,-4.2986,-4.2986,-4.2986,-4.2986,-4.2986,-4.2986,-4.2986,-4.2986,-4.2986,-4.2986,-4.2986,-4.2986,0.0,0.0,0.0,0.0,0.0,0.0,0.0,0.0,0.0,0.0,0.0,-6.2731,-6.2537,-6.2537,-6.2498,-6.2381,-6.2381,-6.2381,-6.2381,-6.2381,-6.2381,-6.2381,-6.203,-6.1635,-6.1185,-6.0259,-5.9431,-5.8792,-5.7418,-5.6603,-5.6238,-5.5095,-5.4142,-5.3454,-5.2643,-5.2322,-5.2322,-5.2322,-5.2322,-5.2322,-5.2322,-5.2382,-5.2473,-5.2473,-5.2563,-5.2653,-5.2518,-5.2397,-5.2261,-5.1926,-5.1695,-5.1526,-5.1246,0.0,0.0,0.0,-5.1229,-5.1229,-5.1229,-5.1105,-5.087,-5.0279,-4.9248,-4.8094,-4.6895,-4.5662,-4.4559,-4.3819,-4.3432,-4.3184,-4.3042,-4.2986,-4.2986,-4.2986,-4.3187,-4.3438,-4.3765,-4.4242,-4.4769,-4.5422,-4.5698,-4.5974,-4.6276,-4.6301,-4.6301,-4.6301,-4.6301,-4.6301,-4.6301,-4.6301,-4.6301,-4.6301,-4.6301,-4.6301,-4.6301,-4.5196,-4.4317,-4.3689,-4.3212,-4.2986,-4.2986,-4.2986,-4.2986,-4.2986,-4.2986,-4.2986,-4.2986,-4.2986,-4.2986,-4.2986,-4.2986,-4.2986,-4.2986,-4.2986,-4.2986,-4.2986,0.0,0.0,0.0,0.0,0.0,0.0,0.0,0.0,0.0,0.0,0.0,-6.2537,-6.242,0.0,0.0,0.0,-6.2381,-6.2381,-6.2381,-6.2381,-6.2381,-6.2302,-6.179,-6.1309,-6.0853,-5.9707,-5.885,-5.8335,-5.718,-5.6554,-5.6409,-5.525,-5.4238,-5.327,-5.2563,-5.2154,-5.2002,-5.2002,-5.2002,-5.2002,-5.2002,-5.2063,-5.2215,-5.2215,-5.2337,-5.2473,-5.2291,-5.217,-5.2079,-5.1711,-5.1526,-5.1433,-5.1276,-5.1229,0.0,0.0,0.0,-5.1229,-5.1229,-5.1229,-5.1041,-5.0394,-4.964,-4.8724,-4.7513,-4.6269,-4.5181,-4.4367,-4.3874,-4.3462,-4.3129,-4.3017,-4.2986,-4.2986,-4.2986,-4.3112,-4.3539,-4.3714,-4.4116,-4.497,-4.5321,-4.5648,-4.6075,-4.6225,-4.6301,-4.6301,-4.6301,-4.6301,-4.6301,-4.6301,-4.6301,-4.6301,-4.6301,-4.6301,-4.6301,-4.5196,-4.4066,-4.2986,-4.2986,-4.2986,-4.2986,-4.2986,-4.2986,-4.2986,-4.2986,-4.2986,-4.2986,-4.2986,-4.2986,-4.2986,-4.2986,-4.2986,-4.2986,-4.2986,-4.2986,-4.2986,0.0,0.0,0.0,0.0,0.0,0.0,0.0,0.0,0.0,0.0,0.0,-6.242,-6.2381,-6.2381,-6.2381,-6.2381,-6.2381,-6.2381,-6.2381,-6.2381,-6.2302,-6.2037,-6.1399,0.0,-6.042,-5.9254,-5.8257,-5.759,-5.6748,-5.6096,-5.5631,-5.467,-5.4211,-5.4091,-5.3283,-5.2579,-5.2002,-5.2002,-5.2002,-5.2002,-5.2002,-5.2002,-5.2048,-5.2048,-5.2048,-5.2048,-5.2048,-5.1834,-5.1618,-5.1618,-5.1433,-5.1229,-5.1199,-5.1229,-5.1229,0.0,0.0,0.0,-5.1229,-5.1229,-5.1105,-5.087,-5.0202,-4.9424,-4.8524,-4.7308,-4.6058,-4.5235,-4.4422,-4.3764,-4.3462,-4.3184,-4.2986,-4.2986,-4.2986,-4.2986,-4.3011,-4.3463,-4.3815,-4.389,-4.4844,-4.5497,-4.5522,-4.5999,-4.6301,-4.6301,-4.6301,-4.6301,-4.6301,-4.6301,-4.6301,-4.6301,-4.6301,-4.6301,-4.6301,-4.5196,-4.4066,-4.2986,-4.2986,-4.2986,-4.2986,-4.2986,-4.2986,-4.2986,-4.2986,-4.2986,-4.2986,-4.2986,-4.2986,-4.2986,-4.2986,-4.2986,-4.2986,-4.2986,-4.2986,-4.2986,0.0,0.0,0.0,0.0,0.0,0.0,0.0,0.0,0.0,0.0,0.0,0.0,0.0,-6.2381,-6.2381,-6.2381,-6.2381,-6.2341,-6.215,-6.203,-6.179,-6.1358,-6.0694,-6.0054,-5.9431,-5.8578,-5.7778,-5.6988,-5.639,-5.5899,-5.5581,-5.509,-5.461,-5.4162,-5.3008,-5.2352,-5.2111,-5.169,-5.1509,-5.1509,-5.1509,-5.1602,-5.1741,-5.1741,-5.1834,-5.2002,-5.1787,-5.1695,-5.1572,-5.1386,-5.1276,-5.1229,-5.1229,-5.1229,-5.1229,-5.1229,-5.1229,-5.1229,-5.1229,-5.1229,-5.1105,-5.087,-5.0489,-5.0038,-4.9375,-4.8274,-4.7153,-4.6111,-4.5127,-4.4177,-4.3517,-4.3184,-4.2986,-4.2986,-4.2986,-4.2986,-4.2986,-4.3162,-4.3413,-4.3765,-4.4166,-4.4694,-4.5422,-4.5673,-4.5924,-4.6276,-4.6301,-4.6301,-4.6301,-4.6301,-4.6301,-4.6301,-4.6301,-4.5974,-4.5246,-4.4819,-4.4066,-4.2986,-4.2986,-4.2986,-4.2986,-4.2986,-4.2986,-4.2986,-4.2986,-4.2986,-4.2986,-4.2986,-4.2986,-4.2986,-4.2986,-4.2986,-4.2986,-4.2986,-4.2986,-4.2986,0.0,0.0,0.0,-6.2381,0.0,-6.2381,-6.2381,-6.2381,-6.2381,-6.2381,0.0,0.0,0.0,0.0,-6.2381,-6.2381,-6.2341,-6.215,-6.1917,-6.1635,-6.1268,-6.0811,-6.0054,-5.9387,-5.8805,-5.7933,-5.718,-5.6554,-5.6096,-5.5731,-5.5481,-5.528,-5.497,-5.4491,-5.3384,-5.2636,-5.2157,-5.1498,-5.1229,-5.1229,-5.1229,-5.1323,-5.1463,-5.1463,-5.1602,-5.1695,-5.1556,-5.1463,-5.1433,-5.1276,-5.1229,-5.1229,-5.1229,-5.1229,-5.1229,-5.1229,-5.1229,-5.1229,-5.1229,-5.1229,-5.1182,-5.0964,-5.0805,-5.0471,-5.0086,-4.91,-4.805,-4.6998,-4.5768,-4.4613,-4.3848,-4.3295,-4.2986,-4.2986,-4.2986,-4.2986,-4.2986,-4.2986,-4.3112,-4.3489,-4.3689,-4.4091,-4.4844,-4.5271,-4.5648,-4.5999,-4.62,-4.6301,-4.6301,-4.6301,-4.6301,-4.6301,-4.6301,-4.5773,-4.4644,-4.4618,-4.4066,-4.2986,-4.2986,-4.2986,-4.2986,-4.2986,-4.2986,-4.2986,-4.2986,-4.2986,-4.2986,-4.2986,-4.2986,-4.2986,-4.2986,-4.2986,-4.2986,-4.2986,-4.2986,-4.2986,-6.2381,-6.2381,-6.2381,-6.2381,-6.2381,-6.2381,-6.2381,-6.2381,-6.2381,-6.2381,0.0,0.0,0.0,0.0,0.0,-6.2381,-6.215,-6.1877,-6.1669,-6.1227,-6.0769,-6.0378,-5.9387,-5.876,-5.8564,-5.7322,-5.6554,-5.6262,-5.58,-5.5481,-5.5179,-5.5179,-5.5179,-5.5149,-5.4491,-5.3473,-5.2217,-5.1528,-5.1229,-5.1229,-5.1229,-5.1229,-5.1229,-5.1229,-5.1229,-5.1229,-5.1229,-5.1229,-5.1229,-5.1229,-5.1229,-5.1229,-5.1229,-5.1229,-5.1229,-5.1229,-5.1229,-5.1229,0.0,0.0,0.0,-5.1229,-5.1011,-5.0775,-5.0596,-4.9698,-4.8681,-4.7819,-4.6269,-4.4938,-4.4422,-4.3598,-4.2986,-4.2986,-4.2986,-4.2986,-4.2986,-4.2986,-4.2986,-4.2986,-4.3438,-4.379,-4.379,-4.4794,-4.5447,-4.5497,-4.5974,-4.6301,-4.6301,-4.6301,-4.6301,-4.6301,-4.6301,-4.5773,-4.4644,-4.4618,-4.4066,-4.2986,-4.2986,-4.2986,-4.2986,-4.2986,-4.2986,-4.2986,-4.2986,-4.2986,-4.2986,-4.2986,-4.2986,-4.2986,-4.2986,-4.2986,-4.2986,-4.2986,-4.2986,-4.2986,-6.2381,-6.2381,-6.2381,-6.2381,-6.2381,-6.2381,-6.2381,-6.2381,-6.2381,0.0,0.0,0.0,-6.215,-6.1991,-6.183,-6.1669,-6.1432,-6.1144,-6.0802,-6.0173,-5.9575,-5.9152,-5.8518,-5.7887,-5.7227,-5.6892,-5.6409,-5.58,-5.5681,-5.5481,-5.5179,-5.5179,-5.5179,-5.5149,-5.4491,-5.4012,-5.3593,-5.2426,-5.1648,-5.1229,-5.1229,-5.1229,-5.1229,-5.1229,-5.1229,-5.1229,-5.1229,-5.1229,-5.1229,-5.1229,-5.1229,-5.1229,-5.1229,-5.1229,-5.1229,-5.1229,-5.1229,-5.1229,-5.1229,0.0,0.0,0.0,0.0,0.0,-5.1041,-5.0202,-4.9227,-4.8346,-4.6712,-4.5154,-4.4422,-4.3598,-4.2986,-4.2986,-4.2986,-4.2986,-4.2986,-4.2986,-4.2986,-4.2986,-4.3112,-4.3363,-4.3765,-4.4091,-4.4618,-4.5422,-4.5623,-4.5899,-4.6276,-4.6301,-4.6301,-4.6301,-4.6301,-4.5773,-4.4644,-4.4618,-4.4066,-4.2986,-4.2986,-4.2986,-4.2986,-4.2986,-4.2986,-4.2986,-4.2986,-4.2986,-4.2986,-4.2986,-4.2986,-4.2986,-4.2986,-4.2986,-4.2986,-4.2986,-4.2986,-4.2986,-6.2381,-6.2381,-6.2381,-6.2381,-6.2381,-6.2341,-6.2229,-6.2229,-6.2189,0.0,0.0,0.0,-6.1513,-6.135,-6.1219,-6.0936,-6.0727,-6.043,-5.9957,-5.9343,-5.8805,-5.8335,-5.77,-5.718,-5.67,-5.6409,-5.6047,-5.5581,-5.5481,-5.533,-5.5179,-5.5179,-5.5179,-5.5179,-5.479,-5.4461,-5.4132,-5.3054,-5.2217,-5.1588,-5.1319,-5.1229,-5.1229,-5.1229,-5.1229,-5.1229,-5.1229,-5.1379,-5.1618,-5.1618,-5.1618,-5.1588,-5.1319,-5.1229,-5.1229,-5.1229,-5.1229,-5.1229,-5.1229,-5.1229,-5.1229,-5.1229,0.0,0.0,-5.1229,-5.0519,-4.9669,-4.8923,-4.7331,-4.5794,-4.4992,-4.4123,-4.3487,-4.3184,-4.3184,-4.3129,-4.3042,-4.2986,-4.2986,-4.2986,-4.2986,-4.3112,-4.3413,-4.3664,-4.4166,-4.507,-4.5347,-4.5723,-4.6276,-4.6301,-4.6301,-4.6301,-4.6075,-4.5522,-4.4644,-4.4392,-4.384,-4.2986,-4.2986,-4.2986,-4.2986,-4.2986,-4.2986,-4.2986,-4.2986,-4.2986,-4.2986,-4.2986,-4.2986,-4.2986,-4.2986,-4.2986,-4.2986,-4.2986,-4.2986,-4.2986,0.0,-6.2341,-6.2341,-6.2341,-6.2302,-6.2223,-6.1957,-6.1877,-6.1797,0.0,-6.1383,-6.1094,-6.0633,-6.0548,-6.043,-6.0141,-5.9957,-5.9575,-5.9177,-5.8714,-5.8211,-5.7778,-5.7036,-5.6651,-5.6554,-5.5948,-5.5581,-5.5531,-5.533,-5.5179,-5.5179,-5.5179,-5.5179,-5.5179,-5.5179,-5.488,-5.4281,-5.3593,-5.2905,-5.2247,-5.1498,-5.1229,-5.1229,-5.1289,-5.1319,-5.1349,-5.1409,-5.1828,-5.2306,-5.2306,-5.2247,-5.2097,-5.1498,-5.1289,-5.1229,-5.1229,-5.1229,-5.1229,-5.1229,-5.1229,-5.1229,-5.1229,-5.1229,0.0,-5.1229,-5.0662,-4.999,-4.9473,-4.8021,-4.6635,-4.5848,-4.4964,-4.4148,-4.3572,-4.3406,-4.3295,-4.3042,-4.2986,-4.2986,-4.2986,-4.2986,-4.2986,-4.2986,-4.3413,-4.394,-4.4493,-4.5121,-4.5723,-4.6276,-4.6301,-4.6301,-4.6301,-4.5773,-4.5221,-4.4644,-4.4091,-4.3514,-4.2986,-4.2986,-4.2986,-4.2986,-4.2986,-4.2986,-4.2986,-4.2986,-4.2986,-4.2986,-4.2986,-4.2986,-4.2986,-4.2986,-4.2986,-4.2986,-4.2986,-4.2986,-4.2986,-6.215,-6.2076,-6.1997,-6.187,-6.1709,-6.1588,-6.1547,-6.1219,-6.0969,-6.0886,-6.0515,-6.0173,-5.9838,-5.9696,-5.9387,-5.8985,-5.8714,-5.8441,-5.8197,-5.7653,-5.7275,-5.694,-5.6634,-5.6274,-5.583,-5.5681,-5.5481,-5.528,-5.5229,-5.5179,-5.5179,-5.5179,-5.5179,-5.5179,-5.5179,-5.5119,-5.497,-5.4281,-5.3623,-5.2875,-5.1708,-5.1229,-5.1289,-5.1798,-5.2007,-5.2067,-5.2606,-5.2875,-5.2995,-5.2995,-5.2636,-5.2187,-5.2067,-5.1648,-5.1229,-5.1229,-5.1229,-5.1229,-5.1229,-5.1229,-5.1229,-5.1229,-5.1229,0.0,-5.1229,-5.0805,-5.0279,-4.9717,-4.8424,-4.7205,-4.6374,-4.5342,-4.4476,-4.3874,-4.3572,-4.3295,-4.3042,-4.2986,-4.2986,-4.2986,-4.2986,-4.2986,-4.2986,-4.3062,-4.3363,-4.3915,-4.492,-4.5723,-4.6276,-4.6301,-4.6301,-4.6301,-4.5773,-4.5221,-4.4644,-4.4091,-4.3514,-4.2986,-4.2986,-4.2986,-4.2986,-4.2986,-4.2986,-4.2986,-4.2986,-4.2986,-4.2986,-4.2986,-4.2986,-4.2986,-4.2986,-4.2986,-4.2986,-4.2986,-4.2986,-4.2986,-6.175,-6.1513,-6.1309,-6.1219,-6.0978,-6.0769,-6.0525,-6.0269,-6.0087,-5.9827,-5.952,-5.9165,-5.8773,-5.8669,-5.8473,-5.8072,-5.7933,-5.77,-5.7353,-5.7036,-5.6748,-5.639,-5.6127,-5.588,-5.5631,-5.5481,-5.533,-5.5179,-5.5179,-5.5179,-5.5179,-5.5179,-5.5179,-5.5179,-5.5179,-5.5179,-5.5149,-5.4491,-5.4012,-5.3563,-5.2247,-5.1708,-5.1738,-5.2067,-5.2396,-5.2725,-5.3054,-5.3384,-5.3683,-5.3683,-5.3234,-5.2636,-5.2306,-5.1738,-5.1229,-5.1229,-5.1229,-5.1229,-5.1229,-5.1229,-5.1229,-5.1229,-5.1229,0.0,0.0,-5.0899,-5.0567,-5.0183,-4.9326,-4.8374,-4.7564,-4.6583,-4.5662,-4.4804,-4.4232,-4.3683,-4.324,-4.3073,-4.2986,-4.2986,-4.2986,-4.2986,-4.2986,-4.2986,-4.3313,-4.4141,-4.4995,-4.5723,-4.6276,-4.6301,-4.6301,-4.6301,-4.5497,-4.492,-4.4618,-4.379,-4.3263,-4.2986,-4.2986,-4.2986,-4.2986,-4.2986,-4.2986,-4.2986,-4.2986,-4.2986,-4.2986,-4.2986,-4.2986,-4.2986,-4.2986,-4.2986,-4.2986,-4.2986,-4.2986,-4.2986,-6.1136,-6.0769,-6.0473,-6.0463,-6.0173,-5.9838,-5.9487,-5.9311,-5.9043,-5.8546,-5.8349,-5.8072,-5.7637,-5.759,-5.7495,-5.7258,-5.7211,-5.7019,-5.6603,-5.6554,-5.639,-5.5929,-5.5731,-5.5581,-5.5531,-5.528,-5.5179,-5.5179,-5.5179,-5.5179,-5.5179,-5.5179,-5.5179,-5.5179,-5.5179,-5.5179,-5.5149,-5.461,-5.4311,-5.4132,-5.3025,-5.2516,-5.2396,-5.2546,-5.2905,-5.3384,-5.3533,-5.3922,-5.4401,-5.4401,-5.3862,-5.3084,-5.2546,-5.1858,-5.1229,-5.1229,-5.1229,-5.1229,-5.1229,-5.1229,-5.1229,-5.1229,-5.1229,-5.1229,0.0,0.0,0.0,-5.0614,-5.0183,-4.9571,-4.8753,-4.792,-4.6998,-4.5873,-4.4966,-4.4232,-4.3572,-4.324,-4.3073,-4.3042,-4.2986,-4.2986,-4.2986,-4.2986,-4.3388,-4.4392,-4.4995,-4.5573,-4.6125,-4.625,-4.6301,-4.6301,-4.5221,-4.4618,-4.4618,-4.3539,-4.2986,-4.2986,-4.2986,-4.2986,-4.2986,-4.2986,-4.2986,-4.2986,-4.2986,-4.2986,-4.2986,-4.2986,-4.2986,-4.2986,-4.2986,-4.2986,-4.2986,-4.2986,-4.2986,-4.2986,-6.0044,-5.9925,-5.9663,-5.9476,-5.9075,-5.876,-5.8714,-5.8165,-5.7559,-5.7036,-5.694,-5.6796,-5.6506,-5.6506,-5.6409,-5.6225,-5.6176,-5.6127,-5.6077,-5.6077,-5.5979,-5.5631,-5.5631,-5.5481,-5.5229,-5.5229,-5.5179,-5.5179,-5.5179,-5.5179,-5.5179,-5.5179,-5.5179,-5.5179,-5.5179,-5.5179,-5.5179,-5.5119,-5.473,-5.4192,-5.4042,-5.3623,-5.3144,-5.3743,-5.4012,-5.4162,-5.476,-5.4999,-5.5089,-5.5089,-5.4221,-5.3174,-5.3084,-5.2217,-5.1229,-5.1229,-5.1229,-5.1229,-5.1229,-5.1229,-5.1229,-5.1229,-5.1229,-5.1229,-5.1229,0.0,-5.1058,-5.0822,0.0,-5.0135,-4.9375,0.0,0.0,-4.6478,-4.5555,-4.4722,-4.3929,-4.3572,-4.3295,-4.3042,-4.2986,-4.2986,-4.2986,-4.2986,-4.3237,-4.384,-4.4392,-4.497,-4.5547,-4.605,-4.6301,-4.6301,-4.5221,-4.4618,-4.4618,-4.3539,-4.2986,-4.2986,-4.2986,-4.2986,-4.2986,-4.2986,-4.2986,-4.2986,-4.2986,-4.2986,-4.2986,-4.2986,-4.2986,-4.2986,-4.2986,-4.2986,-4.2986,-4.2986,-4.2986,-4.2986,-5.9075,-5.8895,-5.8532,-5.8303,-5.798,-5.7606,-5.7322,-5.6892,-5.6537,-5.6342,-5.6293,-5.6244,-5.6145,-5.6145,-5.6096,-5.6028,-5.5979,-5.5929,-5.578,-5.578,-5.5631,-5.5381,-5.5381,-5.533,-5.5179,-5.5179,-5.5179,-5.5179,-5.5179,-5.5179,-5.5179,-5.5179,-5.5179,-5.5179,-5.5179,-5.5179,-5.5179,-5.5179,-5.5029,-5.479,-5.479,-5.461,-5.4341,-5.4251,-5.4431,-5.482,-5.5089,-5.5179,-5.5179,-5.5179,-5.4551,-5.3713,-5.3294,-5.2546,-5.1708,-5.1319,-5.1229,-5.1229,-5.1229,-5.1229,-5.1229,-5.1229,-5.1229,-5.1229,-5.1229,-5.1229,-5.1182,-5.1058,0.0,0.0,0.0,0.0,0.0,0.0,-4.6583,-4.5555,-4.4722,-4.4094,-4.3543,-4.3042,-4.2986,-4.2986,-4.2986,-4.2986,-4.3212,-4.3765,-4.4317,-4.4869,-4.5447,-4.6024,-4.6301,-4.6301,-4.5221,-4.4618,-4.4618,-4.3539,-4.2986,-4.2986,-4.2986,-4.2986,-4.2986,-4.2986,-4.2986,-4.2986,-4.2986,-4.2986,-4.2986,-4.2986,-4.2986,-4.2986,-4.2986,-4.2986,-4.2986,-4.2986,-4.2986,-4.2986,-5.784,-5.7731,-5.7495,-5.7227,-5.694,-5.6634,-5.6195,-5.5998,-5.588,-5.578,-5.578,-5.578,-5.578,-5.578,-5.578,-5.578,-5.578,-5.5681,-5.5481,-5.5481,-5.5381,-5.5179,-5.5179,-5.5179,-5.5179,-5.5179,-5.5179,-5.5179,-5.5179,-5.5179,-5.5179,-5.5179,-5.5179,-5.5179,-5.5179,-5.5179,-5.5179,-5.5179,-5.5179,-5.5179,-5.5179,-5.5158,-5.5048,-5.462,-5.479,-5.5179,-5.5179,-5.5179,-5.5179,-5.5179,-5.476,-5.4132,-5.3623,-5.2826,-5.2001,-5.1476,-5.1208,-5.1058,-5.1058,-5.1105,-5.1229,-5.1229,-5.1229,-5.1229,-5.1229,-5.1229,-5.1229,-5.1229,-5.1229,0.0,0.0,0.0,-4.962,-4.8802,0.0,-4.6531,-4.5609,-4.4722,-4.3929,-4.3184,-4.3042,-4.2986,-4.2986,-4.2986,-4.3137,-4.3539,-4.4217,-4.4794,-4.5221,-4.5924,-4.6301,-4.6301,-4.5372,-4.4794,-4.4618,-4.3689,-4.3137,-4.2986,-4.2986,-4.2986,-4.2986,-4.2986,-4.2986,-4.2986,-4.2986,-4.2986,-4.2986,-4.2986,-4.2986,-4.2986,-4.2986,-4.2986,-4.2986,-4.2986,-4.2986,-4.2986,-5.6127,-5.6439,-5.6651,-5.6409,-5.6195,-5.5929,-5.5681,-5.5631,-5.5531,-5.5229,-5.5229,-5.5229,-5.5229,-5.5229,-5.5229,-5.5229,-5.5229,-5.5229,-5.5179,-5.5179,-5.5179,-5.5179,-5.5179,-5.5179,-5.5179,-5.5179,-5.5179,-5.5179,-5.5179,-5.5179,-5.5179,-5.5179,-5.5179,-5.5179,-5.5179,-5.5179,-5.5179,-5.5179,-5.5179,-5.5179,-5.5179,-5.5027,-5.4854,-5.5078,-5.5179,-5.5179,-5.5179,-5.5179,-5.5179,-5.5179,-5.476,-5.4221,-5.4192,-5.3068,-5.1832,-5.1803,-5.1327,-5.0793,-5.0793,-5.1011,-5.1229,-5.1229,-5.1229,-5.1229,-5.1229,-5.1229,-5.1229,-5.1229,-5.1229,-5.1105,-5.087,-5.0614,-5.0183,-4.9424,-4.8553,0.0,0.0,-4.5609,-4.4668,-4.3517,-4.3129,-4.2986,-4.2986,-4.2986,-4.2986,-4.3011,-4.4016,-4.4644,-4.4644,-4.5698,-4.6301,-4.6301,-4.5748,-4.5196,-4.4644,-4.4066,-4.3514,-4.2986,-4.2986,-4.2986,-4.2986,-4.2986,-4.2986,-4.2986,-4.2986,-4.2986,-4.2986,-4.2986,-4.2986,-4.2986,-4.2986,-4.2986,-4.2986,-4.2986,-4.2986,-4.2986,-5.578,-5.588,-5.5948,-5.5849,-5.578,-5.5631,-5.5381,-5.533,-5.528,-5.5179,-5.5179,-5.5179,-5.5179,-5.5179,-5.5179,-5.5179,-5.5179,-5.5179,-5.5179,-5.5179,-5.5179,-5.5179,-5.5179,-5.5179,-5.5179,-5.5179,-5.5179,-5.5179,-5.5179,-5.5179,-5.5179,-5.5179,-5.5179,-5.5179,-5.5179,-5.5179,-5.5179,-5.5006,-5.4955,-5.4905,-5.4692,-5.4539,-5.4487,-5.4824,-5.4824,-5.4641,-5.4875,-5.4824,-5.4641,-5.4875,-5.4522,-5.392,-5.3508,-5.2712,-5.1882,-5.1187,-5.0729,-5.0417,-5.0319,-5.0423,-5.0519,-5.0662,-5.0739,-5.0739,-5.0739,-5.0852,-5.0964,-5.0964,-5.1058,-5.1182,-5.1058,-5.087,-5.0537,-5.0183,-4.9424,-4.8553,0.0,-4.5953,-4.4505,-4.3492,-4.3129,-4.2986,-4.2986,-4.2986,-4.2986,-4.2986,-4.3991,-4.4618,-4.4618,-4.5698,-4.6301,-4.6301,-4.5773,-4.5221,-4.4644,-4.4091,-4.3514,-4.2986,-4.2986,-4.2986,-4.2986,-4.2986,-4.2986,-4.2986,-4.2986,-4.2986,-4.2986,-4.2986,-4.2986,-4.2986,-4.2986,-4.2986,-4.2986,-4.2986,-4.2986,-4.3037,-5.5481,-5.5431,-5.5431,-5.5431,-5.5431,-5.5381,-5.5229,-5.5179,-5.5179,-5.5179,-5.5179,-5.5179,-5.5179,-5.5179,-5.5179,-5.5179,-5.5179,-5.5179,-5.5179,-5.5179,-5.5179,-5.5179,-5.5179,-5.5179,-5.5179,-5.5179,-5.5179,-5.5179,-5.5179,-5.5179,-5.5179,-5.5179,-5.5179,-5.5179,-5.5179,-5.5179,-5.5179,-5.4905,-5.4803,-5.4803,-5.4436,-5.42,-5.4075,-5.4259,-5.423,-5.42,-5.4385,-5.4282,-5.3993,-5.4126,-5.3919,-5.3437,-5.2822,-5.2167,-5.1428,-5.0503,-4.9995,-4.9681,-4.9449,-4.9493,-4.9669,-4.9863,-4.9912,-4.9912,-5.0038,-5.0154,-5.0268,-5.0394,-5.0632,-5.0805,-5.0805,-5.0757,-5.0614,-5.0375,-4.9746,-4.8852,0.0,-4.5874,-4.4396,-4.3683,-4.3265,-4.2986,-4.2986,-4.2986,-4.3062,-4.3263,-4.4116,-4.4719,-4.492,-4.5799,-4.6301,-4.6301,-4.5974,-4.5397,-4.4644,-4.4267,-4.3714,-4.2986,-4.2986,-4.2986,-4.2986,-4.2986,-4.2986,-4.2986,-4.2986,-4.2986,-4.2986,-4.2986,-4.2986,-4.2986,-4.2986,-4.3112,-4.3263,-4.3263,-4.3388,-4.3614,-5.5179,-5.5179,-5.5179,-5.5179,-5.5179,-5.5179,-5.5179,-5.5179,-5.5179,-5.5179,-5.5179,-5.5179,-5.5179,-5.5179,-5.5179,-5.5179,-5.5179,-5.5179,-5.5179,-5.5149,-5.5149,-5.5149,-5.5119,-5.5089,-5.5089,-5.5089,-5.5089,-5.5089,-5.5119,-5.5149,-5.5149,-5.5179,-5.5179,-5.5179,-5.5179,-5.5179,-5.5128,-5.4905,-5.4751,-5.47,-5.4385,-5.3971,-5.3477,-5.3477,-5.3576,-5.3704,-5.3756,-5.36,-5.3256,-5.2934,-5.2799,-5.2669,-5.2133,-5.1307,-5.0477,-4.9677,-4.9116,-4.8682,-4.8094,-4.8274,-4.8646,-4.8696,-4.8696,-4.8745,-4.91,-4.9198,-4.9326,-4.9571,-4.9815,-5.0038,-5.0038,-5.0231,-5.0327,-5.0086,-4.9551,-4.8531,-4.669,-4.5422,-4.4531,-4.3955,-4.3402,-4.3011,-4.3011,-4.3011,-4.3237,-4.379,-4.4342,-4.4895,-4.5472,-4.6024,-4.6301,-4.6301,-4.6301,-4.5773,-4.4644,-4.4618,-4.4066,-4.2986,-4.2986,-4.2986,-4.2986,-4.2986,-4.2986,-4.2986,-4.2986,-4.2986,-4.2986,-4.2986,-4.2986,-4.2986,-4.2986,-4.3338,-4.384,-4.384,-4.4192,-4.4669,-5.5179,-5.5179,-5.5179,-5.5179,-5.5179,-5.5179,-5.5179,-5.5179,-5.5179,-5.5179,-5.5179,-5.5179,-5.5179,-5.5179,-5.5179,-5.5179,-5.5179,-5.5179,-5.5179,-5.473,-5.4461,-5.4461,-5.3982,-5.3683,-5.3683,-5.3683,-5.3683,-5.3683,-5.4221,-5.4461,-5.4461,-5.497,-5.5179,-5.5179,-5.5179,-5.5108,-5.4905,-5.4539,-5.4178,-5.3844,-5.371,-5.35,-5.316,-5.3001,-5.2124,-5.111,-5.175,-5.136,-5.0541,-5.0219,-4.9846,-4.9526,-4.9529,-4.914,-4.8559,-4.8482,-4.797,-4.7405,-4.7162,-4.6883,-4.6684,-4.6892,-4.7126,-4.7331,-4.741,-4.792,-4.8324,-4.8424,-4.8823,-4.912,-4.912,-4.917,-4.9219,-4.912,-4.8524,-4.7643,-4.6585,-4.5422,-4.4531,-4.3955,-4.3731,-4.3589,-4.3589,-4.3589,-4.3815,-4.4367,-4.4945,-4.5321,-4.5472,-4.6024,-4.6301,-4.6301,-4.6301,-4.5773,-4.4644,-4.4618,-4.4066,-4.2986,-4.2986,-4.2986,-4.2986,-4.2986,-4.2986,-4.2986,-4.2986,-4.2986,-4.2986,-4.2986,-4.2986,-4.2986,-4.2986,-4.3564,-4.4418,-4.4418,-4.4769,-4.5271,-5.5179,-5.5179,-5.5179,-5.5179,-5.5179,-5.5179,-5.5179,-5.5179,-5.5179,-5.5179,-5.5179,-5.5179,-5.5179,-5.5179,-5.5089,-5.479,-5.476,-5.464,-5.4341,-5.3952,-5.3773,-5.3773,-5.3384,-5.3174,-5.3174,-5.3174,-5.3174,-5.3174,-5.3563,-5.3773,-5.3773,-5.4132,-5.4461,-5.476,-5.476,-5.4788,-5.4751,-5.4333,-5.3919,-5.35,-5.35,-5.3266,0.0,-5.2465,-5.1176,-4.9584,-4.9418,-4.9034,-4.8598,-4.8273,-4.7974,-4.7725,-4.7575,-4.7288,-4.7031,-4.7031,-4.6739,-4.6428,-4.6156,-4.5897,-4.5687,-4.5635,-4.5741,-4.59,-4.6006,-4.6426,-4.6791,-4.6867,-4.7383,-4.774,-4.774,-4.7943,-4.8044,-4.7791,-4.7177,-4.6426,-4.5715,-4.4884,-4.4307,-4.4122,-4.3897,-4.3991,-4.4493,-4.4317,-4.4392,-4.497,-4.5296,-4.5598,-4.5824,-4.615,-4.6301,-4.6301,-4.6301,-4.5773,-4.4644,-4.4618,-4.4066,-4.2986,-4.2986,-4.2986,-4.2986,-4.2986,-4.2986,-4.2986,-4.2986,-4.2986,-4.2986,-4.2986,-4.2986,-4.3037,-4.3514,-4.4242,-4.502,-4.5271,-4.5573,-4.5849,-5.5179,-5.5179,-5.5179,-5.5179,-5.5179,-5.5179,-5.5179,-5.5179,-5.5179,-5.5179,-5.5179,-5.5149,-5.5059,-5.5059,-5.479,-5.4132,-5.4072,-5.3832,-5.3204,-5.3084,-5.3054,-5.3054,-5.2965,-5.2935,-5.2935,-5.2935,-5.2935,-5.2935,-5.3025,-5.3054,-5.3054,-5.3144,-5.3503,-5.4072,-5.4112,-5.438,-5.4649,-5.4075,-5.371,-5.35,-5.35,-5.3213,-5.2627,-5.2004,-5.0602,-4.8784,-4.7383,-4.698,-4.707,-4.6684,-4.6491,-4.6461,-4.587,-4.5727,-4.5696,-4.554,-4.5571,-4.5618,-4.515,-4.5085,-4.51,-4.4658,-4.4557,-4.4613,-4.4804,-4.4938,-4.5073,-4.5315,-4.5794,-4.6164,-4.6164,-4.6583,-4.6739,-4.6269,-4.5741,-4.5154,-4.4722,-4.4281,-4.4015,-4.4275,-4.4169,0.0,-4.5397,-4.502,-4.497,-4.5547,-4.5598,-4.5799,-4.6276,-4.6301,-4.6301,-4.6301,-4.6225,-4.5698,-4.4644,-4.4543,-4.3991,-4.2986,-4.2986,-4.2986,-4.2986,-4.2986,-4.2986,-4.2986,-4.2986,-4.2986,-4.2986,-4.2986,-4.3011,-4.3187,-4.4217,-4.497,-4.5547,-4.61,-4.6301,-4.6301,-5.5179,-5.5179,-5.5179,-5.5179,-5.5179,-5.5179,-5.5179,-5.5179,-5.5179,-5.5179,-5.5179,-5.497,-5.4431,-5.4371,-5.4102,-5.3414,-5.3354,-5.3324,-5.3204,-5.2665,-5.2366,-5.2366,-5.1858,-5.1558,-5.1558,-5.1558,-5.1558,-5.1558,-5.2097,-5.2366,-5.2396,-5.2935,-5.3234,-5.3384,-5.3724,-5.3947,-5.4023,-5.371,-5.3553,-5.35,-5.35,-5.3213,-5.2627,-5.1704,-5.0133,-4.8196,-4.7236,-4.6325,-4.533,-4.4339,-4.4019,-4.404,-4.413,-4.4169,-4.4244,-4.4666,-4.4464,-4.4244,-4.4623,-4.4099,-4.3548,-4.3846,-4.3792,-4.3628,-4.3657,-4.4068,-4.4476,-4.4505,-4.4776,-4.4992,-4.4992,-4.51,-4.5073,-4.4992,-4.4722,-4.445,-4.4367,-4.4284,-4.428,-4.43,-4.485,-4.5271,-4.5472,-4.5397,-4.5573,-4.6125,-4.6175,-4.62,-4.6301,-4.6301,-4.6301,-4.6301,-4.5874,-4.5321,-4.4644,-4.4166,-4.3614,-4.2986,-4.2986,-4.2986,-4.2986,-4.2986,-4.2986,-4.2986,-4.2986,-4.2986,-4.2986,-4.2986,-4.3237,-4.3714,-4.4367,-4.497,-4.5547,-4.61,-4.6301,-4.6301,-5.5179,-5.5179,-5.5179,-5.5179,-5.5179,-5.5179,-5.5179,-5.5179,-5.5179,-5.5179,-5.491,-5.4551,-5.4251,-5.3892,-5.3414,-5.2725,-5.2665,-5.2516,-5.2187,-5.1858,-5.1678,-5.1678,-5.1379,-5.1229,-5.1229,-5.1229,-5.1229,-5.1229,-5.1528,-5.1678,-5.1708,-5.1864,-5.2144,-5.2483,-5.3098,-5.359,-5.3919,-5.3605,-5.35,-5.35,-5.35,-5.3213,-5.2573,-5.1485,-5.0073,-4.8478,-4.7126,-4.6052,-4.5119,-4.4029,-4.3437,-4.3235,-4.3344,-4.3363,-4.3489,-4.4041,-4.4016,-4.3865,-4.4116,-4.4016,-4.3765,-4.3438,-4.3501,-4.3538,-4.326,-4.3406,-4.3653,-4.3653,-4.3848,-4.4068,-4.4258,-4.4123,-4.4013,-4.4013,-4.3793,-4.3755,-4.398,-4.4035,-4.4244,-4.485,-4.5263,-4.5598,-4.5874,-4.5924,-4.6024,-4.6301,-4.6301,-4.6301,-4.6301,-4.6301,-4.6301,-4.6301,-4.5773,-4.5221,-4.4644,-4.4091,-4.3514,-4.2986,-4.2986,-4.2986,-4.2986,-4.2986,-4.2986,-4.2986,-4.2986,-4.2986,-4.2986,-4.2986,-4.3463,-4.4242,-4.4518,-4.5146,-4.5949,-4.62,-4.6301,-4.6301,-5.5179,-5.5179,-5.5179,-5.5179,-5.5179,-5.5179,-5.5179,-5.5059,-5.497,-5.497,-5.4521,-5.4102,-5.3832,-5.3294,-5.2695,-5.2067,-5.2007,-5.1768,-5.1259,-5.1229,-5.1229,-5.1229,-5.1229,-5.1229,-5.1229,-5.1229,-5.1229,-5.1229,-5.1229,-5.1182,-5.1105,-5.0917,-5.1143,-5.1875,-5.249,-5.3165,-5.3815,-5.3605,-5.35,-5.35,-5.35,-5.3213,-5.2573,-5.1348,-5.0152,-4.8904,-4.7186,-4.6104,-4.5347,-4.4468,-4.3714,-4.3137,-4.3011,-4.2986,-4.3062,-4.3489,-4.3639,-4.3639,-4.3765,-4.4041,-4.4091,-4.3338,-4.3388,-4.3514,-4.3087,-4.2986,-4.2986,-4.2986,-4.3184,-4.3406,-4.3653,-4.3487,-4.3295,-4.3295,-4.3229,-4.3313,-4.374,-4.4016,-4.4493,-4.5372,-4.5598,-4.5824,-4.6276,-4.6301,-4.6301,-4.6301,-4.6301,-4.6301,-4.6301,-4.6301,-4.625,-4.6125,-4.5598,-4.502,-4.4443,-4.389,-4.3413,-4.2986,-4.2986,-4.2986,-4.2986,-4.2986,-4.2986,-4.2986,-4.2986,-4.2986,-4.2986,-4.3112,-4.374,-4.4644,-4.4769,-4.5422,-4.6301,-4.6301,-4.6301,-4.6301,-5.5179,-5.5179,-5.5179,-5.5179,-5.5179,-5.5179,-5.5179,-5.467,-5.4311,-5.4311,-5.4251,-5.3743,-5.2516,-5.2336,-5.2037,-5.1379,-5.1319,-5.1289,-5.1229,-5.1229,-5.1229,-5.1229,-5.1229,-5.1229,-5.1229,-5.1229,-5.1229,-5.1229,-5.1229,-5.1058,-5.087,-5.0793,-5.1235,-5.195,-5.2046,-5.2625,-5.353,-5.35,-5.35,-5.35,-5.35,-5.3213,-5.2573,-5.1348,-5.0152,-4.8957,-4.7626,-4.6408,-4.5472,-4.5372,-4.4618,-4.3639,-4.3137,-4.2986,-4.2986,-4.3037,-4.3062,-4.3162,-4.3664,-4.3463,-4.3212,-4.3639,-4.3388,-4.3037,-4.2986,-4.2986,-4.2986,-4.2986,-4.3042,-4.3042,-4.3098,-4.3042,-4.3042,-4.3042,-4.3388,-4.374,-4.379,-4.4694,-4.5372,-4.5472,-4.5924,-4.625,-4.6301,-4.6301,-4.6301,-4.6301,-4.6301,-4.6301,-4.6301,-4.6301,-4.6075,-4.5573,-4.4995,-4.4443,-4.389,-4.3338,-4.3037,-4.2986,-4.2986,-4.2986,-4.2986,-4.2986,-4.2986,-4.2986,-4.2986,-4.2986,-4.3011,-4.3514,-4.4091,-4.4669,-4.5196,-4.5773,-4.6301,-4.6301,-4.6301,-4.6301,-5.5179,-5.5179,-5.5179,-5.5179,-5.485,-5.461,-5.461,-5.4012,-5.3443,-5.3054,-5.2995,-5.2815,-5.2247,-5.1858,-5.1498,-5.1229,-5.1229,-5.1229,-5.1229,-5.1229,-5.1229,-5.1229,-5.1229,-5.1229,-5.1229,-5.1229,-5.1229,-5.1229,-5.1058,-5.0917,-5.0793,-5.0489,-5.0857,-5.1765,-5.1765,-5.2413,-5.35,-5.35,-5.3424,-5.3266,-5.3266,-5.2841,-5.2059,-5.0989,-4.9843,-4.8642,-4.7619,-4.6662,-4.5924,-4.5598,-4.4744,-4.3765,-4.3539,-4.3237,-4.2986,-4.2986,-4.2986,-4.3037,-4.3237,-4.3388,-4.3438,-4.3338,-4.3388,-4.3388,-4.3062,-4.2986,-4.2986,-4.2986,-4.2986,-4.2986,-4.2986,-4.3237,-4.3463,-4.3463,-4.394,-4.4418,-4.4769,-4.5196,-4.5623,-4.5949,-4.6175,-4.6301,-4.6301,-4.6301,-4.6301,-4.6301,-4.6301,-4.6301,-4.6301,-4.6301,-4.605,-4.5497,-4.492,-4.4367,-4.3815,-4.3263,-4.2986,-4.2986,-4.2986,-4.2986,-4.2986,-4.2986,-4.2986,-4.2986,-4.2986,-4.3162,-4.3489,-4.3714,-4.4342,-4.5171,-4.5397,-4.5824,-4.6301,-4.6301,-4.6301,-4.6301,-5.5179,-5.5179,-5.5119,-5.494,-5.4521,-5.4132,-5.3952,-5.3324,-5.2665,-5.2007,-5.1738,-5.1708,-5.1887,-5.1498,-5.1229,-5.1229,-5.1229,-5.1229,-5.1229,-5.1229,-5.1229,-5.1229,-5.1229,-5.1229,-5.1229,-5.1229,-5.1229,-5.1229,-5.0917,-5.0775,-5.068,-5.0202,-5.0563,-5.1614,-5.1614,-5.231,-5.35,-5.35,-5.3372,-5.3054,-5.3001,-5.2437,-5.154,-5.0517,-4.9445,-4.8353,-4.7383,-4.6755,-4.625,-4.5849,-4.5095,-4.4242,-4.3915,-4.3539,-4.3187,-4.3037,-4.2986,-4.2986,-4.2986,-4.3263,-4.3463,-4.3062,-4.3263,-4.3463,-4.3062,-4.2986,-4.3011,-4.3187,-4.3338,-4.3463,-4.3463,-4.379,-4.4041,-4.4041,-4.4518,-4.502,-4.5422,-4.5623,-4.5874,-4.625,-4.6301,-4.6301,-4.6301,-4.6301,-4.6301,-4.6301,-4.6301,-4.6301,-4.6301,-4.615,-4.5824,-4.5246,-4.4694,-4.4116,-4.3564,-4.3162,-4.2986,-4.2986,-4.2986,-4.2986,-4.2986,-4.2986,-4.2986,-4.2986,-4.2986,-4.3288,-4.3815,-4.3966,-4.4618,-4.5497,-4.5673,-4.5974,-4.6301,-4.6301,-4.6301,-4.6301,-5.5179,-5.5179,-5.497,-5.4341,-5.4221,-5.3982,-5.3294,-5.2636,-5.1977,-5.1319,-5.0614,-5.0465,-5.1169,-5.1229,-5.1229,-5.1229,-5.1229,-5.1229,-5.1229,-5.1229,-5.1229,-5.1229,-5.1229,-5.1229,-5.1229,-5.1229,-5.1229,-5.1229,-5.0917,-5.068,-5.0501,-4.999,-5.0365,-5.1614,-5.1614,-5.231,-5.35,-5.35,-5.3372,-5.3054,-5.2787,-5.2167,-5.1183,-4.9956,-4.8957,-4.7971,-4.7138,-4.6626,-4.6301,-4.6301,-4.5924,-4.5271,-4.4166,-4.379,-4.3689,-4.3137,-4.2986,-4.2986,-4.2986,-4.2986,-4.2986,-4.2986,-4.2986,-4.2986,-4.2986,-4.2986,-4.3137,-4.3689,-4.4217,-4.4593,-4.4593,-4.4618,-4.4618,-4.4618,-4.5095,-4.5472,-4.5497,-4.5949,-4.6301,-4.6301,-4.6301,-4.6301,-4.6301,-4.6301,-4.6301,-4.6301,-4.6301,-4.6301,-4.6301,-4.5799,-4.5221,-4.4644,-4.4091,-4.3539,-4.2986,-4.2986,-4.2986,-4.2986,-4.2986,-4.2986,-4.2986,-4.2986,-4.2986,-4.2986,-4.2986,-4.3288,-4.384,-4.4392,-4.497,-4.5547,-4.6075,-4.6301,-4.6301,-4.6301,-4.6301,-4.6301,-5.5179,-5.482,-5.4461,-5.4251,-5.3443,-5.2755,-5.2546,-5.1558,-5.0734,-5.0524,-4.9972,-4.9643,-4.9853,-4.9883,-4.9883,-4.9883,-4.9883,-4.9883,-4.9883,-4.9883,-5.0092,-5.0495,-5.0495,-5.0704,-5.1199,-5.1011,-5.0917,-5.0917,-5.0537,-5.0231,-4.9941,-5.0261,-5.0801,-5.1643,-5.2078,-5.2746,-5.35,-5.35,-5.3266,-5.2787,-5.2275,-5.1403,-5.032,-4.9301,-4.8321,-4.7442,-4.6959,-4.6566,-4.6301,-4.6301,-4.62,-4.5924,-4.5171,-4.4418,-4.3689,-4.3137,-4.2986,-4.2986,-4.2986,-4.2986,-4.2986,-4.2986,-4.2986,-4.2986,-4.2986,-4.2986,-4.3037,-4.3212,-4.3689,-4.4066,-4.4066,-4.4694,-4.5221,-4.5221,-4.5673,-4.605,-4.605,-4.62,-4.6301,-4.6301,-4.6301,-4.6301,-4.6301,-4.6301,-4.615,-4.5773,-4.5748,-4.5748,-4.5748,-4.5573,-4.5045,-4.4091,-4.389,-4.3539,-4.2986,-4.2986,-4.2986,-4.2986,-4.2986,-4.2986,-4.2986,-4.2986,-4.2986,-4.3011,-4.3363,-4.384,-4.4392,-4.497,-4.5547,-4.6075,-4.625,-4.6301,-4.6301,-4.6301,-4.6301,-4.6301,-5.4491,-5.4102,-5.3743,-5.3503,-5.2755,-5.2037,-5.1528,-5.0734,-5.0016,-4.9583,-4.9164,-4.885,-4.8566,-4.8536,-4.876,-4.9269,-4.9299,-4.9299,-4.9299,-4.9299,-4.9434,-4.9715,-4.9954,-5.0236,-5.056,-5.0656,-5.068,-5.068,-5.0279,-4.999,-4.9746,-5.0415,-5.1004,-5.1643,-5.2281,-5.292,-5.35,-5.35,-5.3213,-5.2627,-5.1896,-5.0878,-4.9727,-4.8669,-4.7762,-4.6993,-4.6721,-4.6506,-4.6301,-4.6301,-4.6301,-4.6225,-4.5673,-4.4844,-4.3991,-4.3438,-4.3137,-4.2986,-4.2986,-4.2986,-4.2986,-4.2986,-4.2986,-4.2986,-4.2986,-4.3137,-4.3288,-4.3288,-4.374,-4.4116,-4.4116,-4.4694,-4.5171,-4.5171,-4.5623,-4.5999,-4.5999,-4.6175,-4.6301,-4.6301,-4.6301,-4.6225,-4.6024,-4.5999,-4.5773,-4.5196,-4.5171,-4.507,-4.4869,-4.4844,-4.4543,-4.3815,-4.3589,-4.3313,-4.2986,-4.2986,-4.2986,-4.2986,-4.2986,-4.2986,-4.2986,-4.2986,-4.3087,-4.3313,-4.3639,-4.4242,-4.497,-4.5347,-4.5824,-4.6301,-4.6301,-4.6301,-4.6301,-4.6301,-4.6301,-4.6301,-5.3294,-5.3144,-5.2905,-5.2306,-5.2157,-5.1708,-5.0375,-5.0136,-4.9733,-4.8446,-4.8237,-4.7967,-4.7369,-4.7309,-4.7788,-4.906,-4.9179,-4.9179,-4.9179,-4.9134,-4.9044,-4.8848,-4.9456,-4.9703,-4.9469,-5.0147,-5.0453,-5.0453,-5.0183,-4.9941,-4.9746,-5.0394,-5.1062,-5.1643,-5.2339,-5.2949,-5.35,-5.35,-5.3213,-5.2627,-5.1704,-5.0573,-4.9358,-4.8146,-4.729,-4.6746,-4.6421,-4.6301,-4.6301,-4.6301,-4.6301,-4.6225,-4.5698,-4.5121,-4.4518,-4.3966,-4.3413,-4.2986,-4.2986,-4.2986,-4.2986,-4.2986,-4.2986,-4.2986,-4.2986,-4.3363,-4.374,-4.374,-4.4192,-4.4568,-4.4568,-4.4593,-4.4618,-4.4618,-4.507,-4.5422,-4.5422,-4.5874,-4.62,-4.62,-4.62,-4.5999,-4.5472,-4.5422,-4.5196,-4.4618,-4.4568,-4.4317,-4.3765,-4.374,-4.374,-4.374,-4.3237,-4.2986,-4.2986,-4.2986,-4.2986,-4.2986,-4.2986,-4.2986,-4.2986,-4.3011,-4.3313,-4.3815,-4.389,-4.4518,-4.5497,-4.5522,-4.5849,-4.6301,-4.6301,-4.6301,-4.6301,-4.6301,-4.6301,-4.6301,-5.3204,-5.2785,-5.2396,-5.2217,-5.1798,-5.1169,-5.0315,-4.9823,-4.9194,-4.8386,-4.7848,-4.7489,-4.7309,-4.7309,-4.7429,-4.7758,-4.7758,-4.7758,-4.7758,-4.7583,-4.7659,-4.8119,-4.8591,-4.9043,-4.9469,-4.9956,-5.0086,-4.9892,-4.9815,-4.9766,-4.9698,-5.0859,-5.1468,-5.1672,-5.2775,-5.3384,-5.35,-5.35,-5.3213,-5.2627,-5.1704,-5.0461,-4.9072,-4.8088,-4.7172,-4.6421,-4.6301,-4.6301,-4.6301,-4.6301,-4.6301,-4.6276,-4.615,-4.5422,-4.4518,-4.3966,-4.3413,-4.2986,-4.2986,-4.2986,-4.2986,-4.2986,-4.2986,-4.2986,-4.2986,-4.3087,-4.3162,-4.3162,-4.3614,-4.3991,-4.3991,-4.4342,-4.4618,-4.4618,-4.4744,-4.4819,-4.4819,-4.4945,-4.502,-4.502,-4.502,-4.497,-4.4844,-4.4819,-4.4593,-4.4041,-4.3991,-4.3765,-4.3212,-4.3162,-4.3162,-4.3162,-4.3037,-4.2986,-4.2986,-4.2986,-4.2986,-4.2986,-4.2986,-4.2986,-4.2986,-4.3413,-4.3689,-4.384,-4.4719,-4.5246,-4.5522,-4.5949,-4.62,-4.6301,-4.6301,-4.6301,-4.6301,-4.6301,-4.6301,-4.6301,-5.2336,-5.2007,-5.1738,-5.1738,-5.1439,-5.09,-4.9942,-4.9494,-4.897,-4.7967,-4.7519,-4.7309,-4.7309,-4.7309,-4.7266,-4.7106,-4.7106,-4.7106,-4.7106,-4.6887,-4.686,-4.7125,-4.7639,-4.8148,-4.87,-4.9201,-4.9553,-4.9717,-4.9717,-4.9717,-4.9698,-5.1004,-5.1614,-5.1672,-5.2949,-5.35,-5.35,-5.35,-5.3213,-5.2627,-5.1813,-5.0656,-4.9186,-4.8262,-4.729,-4.6506,-4.6361,-4.6301,-4.6301,-4.6301,-4.6301,-4.6301,-4.6301,-4.5723,-4.492,-4.4342,-4.3614,-4.2986,-4.2986,-4.2986,-4.2986,-4.2986,-4.2986,-4.2986,-4.2986,-4.2986,-4.2986,-4.2986,-4.3212,-4.3413,-4.3413,-4.3664,-4.3865,-4.3865,-4.4091,-4.4242,-4.4242,-4.4468,-4.4618,-4.4618,-4.4618,-4.4518,-4.4267,-4.4242,-4.4016,-4.3463,-4.3413,-4.3288,-4.2986,-4.2986,-4.2986,-4.2986,-4.2986,-4.2986,-4.2986,-4.2986,-4.2986,-4.2986,-4.2986,-4.3112,-4.3363,-4.3664,-4.4091,-4.4593,-4.5221,-4.5623,-4.5899,-4.6175,-4.6301,-4.6301,-4.6301,-4.6301,-4.6301,-4.6301,-4.6301,-4.6301,-5.1319,-5.1229,-5.1229,-5.1229,-5.1229,-5.078,-4.9509,-4.9299,-4.885,-4.7489,-4.7309,-4.7309,-4.7309,-4.7309,-4.7222,-4.6931,-4.6887,-4.6844,-4.6844,-4.6668,-4.6447,-4.6225,-4.6823,-4.7328,-4.78,-4.8508,-4.9117,-4.9717,-4.9717,-4.9717,-4.9698,-5.1004,-5.1614,-5.1672,-5.2949,-5.35,-5.35,-5.35,-5.3184,-5.2734,-5.2113,-5.0989,-4.9586,-4.8611,-4.7703,-4.6925,-4.6506,-4.6301,-4.6301,-4.6301,-4.6301,-4.6301,-4.6301,-4.5924,-4.5372,-4.4794,-4.389,-4.3087,-4.3011,-4.2986,-4.2986,-4.2986,-4.2986,-4.2986,-4.2986,-4.2986,-4.2986,-4.2986,-4.2986,-4.2986,-4.2986,-4.2986,-4.2986,-4.2986,-4.3363,-4.3689,-4.3689,-4.4091,-4.4367,-4.4367,-4.4367,-4.4192,-4.3714,-4.3689,-4.3489,-4.3011,-4.2986,-4.2986,-4.2986,-4.2986,-4.2986,-4.2986,-4.2986,-4.2986,-4.2986,-4.2986,-4.2986,-4.2986,-4.2986,-4.3263,-4.379,-4.389,-4.4493,-4.5497,-4.5573,-4.5874,-4.6301,-4.6301,-4.6301,-4.6301,-4.6301,-4.6301,-4.6301,-4.6301,-4.6301,-4.6301,-5.1229,-5.1229,-5.1229,-5.1229,-5.1229,-5.078,-4.9509,-4.9299,-4.885,-4.7489,-4.7309,-4.7309,-4.7309,-4.7309,-4.7222,-4.6931,-4.6756,-4.6653,-4.6653,-4.6403,-4.6269,-4.6225,-4.6612,-4.7189,-4.7782,-4.8943,-4.9582,-4.9717,-4.9717,-4.9717,-4.9698,-5.1004,-5.1614,-5.1672,-5.2949,-5.35,-5.35,-5.35,-5.3319,-5.3001,-5.2411,-5.1568,-5.0544,-4.9415,-4.8379,-4.7468,-4.69,-4.6566,-4.6301,-4.6301,-4.6301,-4.6301,-4.6301,-4.5924,-4.5372,-4.4794,-4.4166,-4.3564,-4.3112,-4.2986,-4.2986,-4.2986,-4.2986,-4.2986,-4.2986,-4.2986,-4.2986,-4.2986,-4.2986,-4.2986,-4.2986,-4.2986,-4.2986,-4.2986,-4.3062,-4.3112,-4.3112,-4.3187,-4.3237,-4.3237,-4.3237,-4.3212,-4.3112,-4.3112,-4.3062,-4.2986,-4.2986,-4.2986,-4.2986,-4.2986,-4.2986,-4.2986,-4.2986,-4.2986,-4.2986,-4.2986,-4.2986,-4.2986,-4.2986,-4.3263,-4.3815,-4.4292,-4.4869,-4.5522,-4.5974,-4.6225,-4.6301,-4.6301,-4.6301,-4.6301,-4.6301,-4.6301,-4.6301,-4.6301,-4.6301,-4.6301,-5.1229,-5.1229,-5.1229,-5.1229,-5.1229,-5.078,-4.9509,-4.9299,-4.885,-4.7489,-4.7309,-4.7309,-4.7309,-4.7309,-4.7179,-4.6756,-4.6624,-4.6491,-4.6254,-4.609,-4.6046,-4.6046,-4.6201,-4.6766,-4.7753,-4.8682,-4.932,-4.9717,-4.9717,-4.9872,-5.027,-5.1178,-5.1788,-5.2165,-5.3094,-5.35,-5.35,-5.35,-5.3372,-5.3054,-5.2787,-5.2059,-5.1045,-5.032,-4.9301,-4.8114,-4.7468,-4.6959,-4.6566,-4.6361,-4.6301,-4.6301,-4.6301,-4.6125,-4.5773,-4.4869,-4.4016,-4.3313,-4.3037,-4.2986,-4.2986,-4.2986,-4.2986,-4.2986,-4.2986,-4.2986,-4.2986,-4.2986,-4.2986,-4.2986,-4.2986,-4.2986,-4.2986,-4.2986,-4.2986,-4.2986,-4.2986,-4.2986,-4.2986,-4.2986,-4.2986,-4.2986,-4.2986,-4.2986,-4.2986,-4.2986,-4.2986,-4.2986,-4.2986,-4.2986,-4.2986,-4.2986,-4.2986,-4.2986,-4.2986,-4.2986,-4.2986,-4.2986,-4.3288,-4.3714,-4.4267,-4.4819,-4.5397,-4.5949,-4.62,-4.6301,-4.6301,-4.6301,-4.6301,-4.6301,-4.6301,-4.6301,-4.6301,-4.6301,-4.6502,-4.6753,-5.1229,-5.1229,-5.1229,-5.1229,-5.1229,-5.078,-4.9509,-4.9299,-4.885,-4.7489,-4.7309,-4.7309,-4.7309,-4.7309,-4.7135,-4.6624,-4.6609,-4.6432,-4.594,-4.5895,-4.5895,-4.5895,-4.6011,-4.6621,-4.7753,-4.8391,-4.903,-4.9717,-4.9717,-5.0017,-5.0685,-5.1323,-5.1962,-5.2652,-5.3239,-5.35,-5.35,-5.35,-5.3372,-5.316,-5.3136,-5.2544,-5.1704,-5.1155,-5.0208,-4.9041,-4.8262,-4.7645,-4.7019,-4.6661,-4.6481,-4.6361,-4.6301,-4.6301,-4.61,-4.4945,-4.384,-4.2986,-4.2986,-4.2986,-4.2986,-4.2986,-4.2986,-4.2986,-4.2986,-4.2986,-4.2986,-4.2986,-4.2986,-4.2986,-4.2986,-4.2986,-4.2986,-4.2986,-4.2986,-4.2986,-4.2986,-4.2986,-4.2986,-4.2986,-4.2986,-4.2986,-4.2986,-4.2986,-4.2986,-4.2986,-4.2986,-4.2986,-4.2986,-4.2986,-4.2986,-4.2986,-4.2986,-4.2986,-4.2986,-4.2986,-4.3037,-4.3162,-4.3589,-4.4166,-4.4844,-4.5296,-4.5799,-4.6301,-4.6301,-4.6301,-4.6301,-4.6301,-4.6301,-4.6326,-4.6451,-4.6502,-4.6527,-4.6531,-4.6831,-4.7145,-5.1229,-5.1229,-5.1229,-5.1229,-5.1229,-5.078,-4.9509,-4.9299,-4.885,-4.7489,-4.7309,-4.7309,-4.7309,-4.7309,-4.7135,-4.6624,-4.6609,-4.6432,-4.594,-4.5895,-4.5895,-4.5895,-4.6446,-4.7085,-4.7753,-4.8391,-4.903,-4.9717,-4.9717,-5.0017,-5.0685,-5.1323,-5.1962,-5.2652,-5.3239,-5.35,-5.35,-5.35,-5.35,-5.3477,-5.3213,-5.3054,-5.2841,-5.1704,-5.1045,-5.0572,-4.9415,-4.8553,-4.7912,-4.7324,-4.6993,-4.6746,-4.6361,-4.6301,-4.61,-4.4945,-4.384,-4.2986,-4.2986,-4.2986,-4.2986,-4.2986,-4.2986,-4.2986,-4.2986,-4.2986,-4.2986,-4.2986,-4.2986,-4.2986,-4.2986,-4.2986,-4.2986,-4.2986,-4.2986,-4.2986,-4.2986,-4.2986,-4.2986,-4.2986,-4.2986,-4.2986,-4.2986,-4.2986,-4.2986,-4.2986,-4.2986,-4.2986,-4.2986,-4.2986,-4.2986,-4.2986,-4.2986,-4.2986,-4.2986,-4.2986,-4.3237,-4.374,-4.379,-4.4367,-4.5422,-4.5472,-4.5799,-4.6301,-4.6301,-4.6301,-4.6301,-4.6301,-4.6301,-4.6351,-4.6878,-4.7018,-4.7068,-4.7259,-4.7358,-4.732,-5.1229,-5.1229,-5.1229,-5.1229,-5.1229,-5.078,-4.9509,-4.9299,-4.885,-4.7489,-4.7309,-4.7309,-4.7309,-4.7309,-4.7135,-4.6624,-4.6609,-4.6432,-4.594,-4.5895,-4.5895,-4.5895,-4.6127,-4.6534,-4.7172,-4.7811,-4.8449,-4.9088,-4.9494,-5.0017,-5.0685,-5.1323,-5.1962,-5.2652,-5.3239,-5.35,-5.35,-5.35,-5.35,-5.35,-5.3372,-5.3266,-5.3054,-5.2598,-5.1868,-5.11,-5.0432,-4.9586,-4.8669,-4.8236,-4.7736,-4.729,-4.6934,-4.6755,-4.6339,-4.5003,-4.384,-4.2986,-4.2986,-4.2986,-4.2986,-4.2986,-4.2986,-4.2986,-4.2986,-4.2986,-4.2986,-4.2986,-4.2986,-4.2986,-4.2986,-4.2986,-4.2986,-4.2986,-4.2986,-4.2986,-4.2986,-4.2986,-4.2986,-4.2986,-4.2986,-4.2986,-4.2986,-4.2986,-4.2986,-4.2986,-4.2986,-4.2986,-4.2986,-4.2986,-4.2986,-4.2986,-4.3313,-4.3313,-4.2986,-4.3313,-4.3589,-4.3815,-4.4518,-4.507,-4.5497,-4.5849,-4.6125,-4.6301,-4.6301,-4.6502,-4.6828,-4.6828,-4.6906,-4.6985,-4.7184,-4.7134,-4.6972,-4.7069,-4.7277,-4.7572,-5.1229,-5.1229,-5.1229,-5.1229,-5.1229,-5.078,-4.9509,-4.9299,-4.885,-4.7489,-4.7309,-4.7309,-4.7309,-4.7309,-4.7135,-4.6624,-4.6609,-4.6432,-4.594,-4.5895,-4.5895,-4.5895,-4.5895,-4.6272,-4.7114,-4.755,-4.8188,-4.903,-4.9465,-5.0017,-5.0685,-5.112,-5.1759,-5.2652,-5.3007,-5.3326,-5.35,-5.35,-5.35,-5.35,-5.35,-5.3372,-5.3213,-5.3107,-5.2598,-5.1813,-5.1458,-5.0656,-4.9729,-4.9331,-4.87,-4.8029,-4.7619,-4.6916,-4.6062,-4.4903,-4.384,-4.2986,-4.2986,-4.2986,-4.2986,-4.2986,-4.2986,-4.2986,-4.2986,-4.2986,-4.2986,-4.2986,-4.2986,-4.2986,-4.2986,-4.2986,-4.2986,-4.2986,-4.2986,-4.2986,-4.2986,-4.2986,-4.2986,-4.2986,-4.2986,-4.2986,-4.2986,-4.2986,-4.2986,-4.2986,-4.2986,-4.2986,-4.2986,-4.3137,-4.3237,-4.3237,-4.3765,-4.3865,-4.3489,-4.3865,-4.4141,-4.4342,-4.5121,-4.5673,-4.6024,-4.6401,-4.6652,-4.6803,-4.6803,-4.7029,-4.7319,-4.7257,-4.7296,-4.7394,-4.7442,-4.7326,-4.716,-4.7179,-4.7498,-4.7816,-5.1229,-5.1229,-5.1229,-5.1229,-5.1229,-5.078,-4.9509,-4.9299,-4.885,-4.7489,-4.7309,-4.7309,-4.7309,-4.7309,-4.7135,-4.6624,-4.6609,-4.6432,-4.594,-4.5895,-4.5895,-4.5895,-4.5895,-4.6475,-4.7753,-4.7782,-4.842,-4.9717,-4.9717,-5.0017,-5.0705,-5.0734,-5.1403,-5.2623,-5.2623,-5.292,-5.35,-5.35,-5.35,-5.35,-5.35,-5.35,-5.3477,-5.3213,-5.3107,-5.3001,-5.2411,-5.1813,-5.1238,-5.0628,-4.9843,-4.9014,-4.8321,-4.6727,-4.5048,-4.4676,-4.384,-4.2986,-4.2986,-4.2986,-4.2986,-4.2986,-4.2986,-4.2986,-4.2986,-4.2986,-4.2986,-4.2986,-4.2986,-4.2986,-4.2986,-4.2986,-4.2986,-4.2986,-4.2986,-4.2986,-4.2986,-4.2986,-4.2986,-4.2986,-4.2986,-4.2986,-4.2986,-4.2986,-4.2986,-4.2986,-4.2986,-4.2986,-4.2986,-4.3514,-4.3815,-4.3815,-4.4342,-4.4644,-4.4644,-4.4644,-4.492,-4.5497,-4.5497,-4.6075,-4.7068,-4.7068,-4.7431,-4.7908,-4.7908,-4.7908,-4.7845,-4.7558,-4.7394,-4.7444,-4.7607,-4.7675,-4.7685,-4.7897,-4.8026,-4.796,-5.1229,-5.1229,-5.1229,-5.1229,-5.1229,-5.078,-4.9509,-4.9299,-4.885,-4.7489,-4.7309,-4.7309,-4.7309,-4.7309,-4.7135,-4.6624,-4.6609,-4.6432,-4.594,-4.5895,-4.5895,-4.5895,-4.633,-4.6737,-4.7114,-4.7985,-4.8624,-4.9001,-4.9465,-4.9834,-4.9988,-5.0502,-5.112,-5.1933,-5.2368,-5.292,-5.35,-5.35,-5.35,-5.35,-5.35,-5.35,-5.35,-5.3424,-5.3266,-5.3054,-5.2894,-5.2437,-5.1896,-5.1704,-5.11,-5.0152,-4.8842,-4.71,-4.5393,-4.5048,-4.4011,-4.2986,-4.2986,-4.2986,-4.2986,-4.2986,-4.2986,-4.2986,-4.2986,-4.2986,-4.2986,-4.2986,-4.2986,-4.2986,-4.2986,-4.2986,-4.2986,-4.2986,-4.2986,-4.2986,-4.2986,-4.2986,-4.2986,-4.2986,-4.2986,-4.2986,-4.2986,-4.2986,-4.2986,-4.2986,-4.3338,-4.3564,-4.3564,-4.4091,-4.4367,-4.4367,-4.492,-4.5221,-4.5221,-4.5221,-4.5321,-4.5497,-4.6276,-4.6803,-4.7093,-4.7506,-4.7757,-4.7908,-4.7908,-4.8033,-4.8156,-4.8054,-4.7932,-4.7824,-4.793,-4.7783,-4.7544,-4.7648,-4.763,-4.763,-5.1229,-5.1229,-5.1229,-5.1229,-5.1229,-5.078,-4.9509,-4.9299,-4.885,-4.7489,-4.7309,-4.7309,-4.7309,-4.7309,-4.7135,-4.6624,-4.6403,-4.618,-4.594,-4.5895,-4.6011,-4.6243,-4.6882,-4.7201,-4.7201,-4.817,-4.8856,-4.9117,-4.9494,-4.9717,-4.9746,-5.0075,-5.0627,-5.1265,-5.1904,-5.2543,-5.3152,-5.3413,-5.35,-5.35,-5.35,-5.35,-5.35,-5.35,-5.3424,-5.3266,-5.3266,-5.2947,-5.2573,-5.2573,-5.1896,-5.0823,-4.9415,-4.7591,-4.5825,-4.5279,-4.4068,-4.2986,-4.2986,-4.2986,-4.2986,-4.2986,-4.2986,-4.2986,-4.2986,-4.2986,-4.2986,-4.2986,-4.2986,-4.2986,-4.2986,-4.2986,-4.2986,-4.2986,-4.2986,-4.2986,-4.2986,-4.2986,-4.2986,-4.2986,-4.2986,-4.2986,-4.2986,-4.2986,-4.3062,-4.3288,-4.3614,-4.389,-4.4116,-4.4669,-4.497,-4.497,-4.5723,-4.6125,-4.6125,-4.6351,-4.6351,-4.615,-4.7029,-4.7556,-4.7782,-4.8109,-4.836,-4.8586,-4.8434,-4.8469,-4.86,-4.8278,-4.815,-4.796,-4.7828,-4.7696,-4.7497,-4.7497,-4.7497,-4.7497,-5.1229,-5.1229,-5.1229,-5.1229,-5.1229,-5.078,-4.9509,-4.9299,-4.885,-4.7489,-4.7309,-4.7309,-4.7309,-4.7309,-4.7135,-4.6624,-4.6164,-4.5895,-4.5895,-4.5924,-4.6243,-4.6749,-4.7491,-4.7869,-4.7869,-4.8478,-4.9088,-4.9717,-4.9717,-4.9717,-4.9717,-4.9717,-5.0124,-5.0772,-5.1352,-5.1991,-5.2688,-5.3268,-5.35,-5.35,-5.35,-5.35,-5.35,-5.35,-5.35,-5.35,-5.35,-5.3319,-5.3107,-5.3136,-5.2329,-5.1183,-4.9901,-4.8163,-4.6365,-4.5374,-4.4099,-4.2986,-4.2986,-4.2986,-4.2986,-4.2986,-4.2986,-4.2986,-4.2986,-4.2986,-4.2986,-4.2986,-4.2986,-4.2986,-4.2986,-4.2986,-4.2986,-4.2986,-4.2986,-4.2986,-4.2986,-4.2986,-4.2986,-4.2986,-4.2986,-4.2986,-4.2986,-4.3011,-4.3288,-4.384,-4.3915,-4.4166,-4.4669,-4.5246,-4.5573,-4.5623,-4.6602,-4.7093,-4.7143,-4.7732,-4.7732,-4.7143,-4.7732,-4.8259,-4.8761,-4.8812,-4.9113,-4.9525,-4.9267,-4.9072,-4.8942,-4.8289,-4.796,-4.7894,-4.763,-4.7497,-4.7497,-4.7497,-4.7497,-4.7497,-5.1229,-5.1229,-5.1229,-5.1229,-5.1229,-5.078,-4.9509,-4.9299,-4.885,-4.7489,-4.7309,-4.7309,-4.7309,-4.7309,-4.7135,-4.6624,-4.6164,-4.5895,-4.5895,-4.6359,-4.6633,-4.6778,-4.7927,-4.8508,-4.8508,-4.9146,-4.9524,-4.9717,-4.9717,-4.9717,-4.9717,-4.9717,-5.0307,-5.141,-5.1556,-5.2252,-5.3326,-5.3442,-5.35,-5.35,-5.35,-5.35,-5.35,-5.35,-5.35,-5.35,-5.35,-5.3477,-5.3372,-5.316,-5.2627,-5.1757,-5.0106,-4.8346,-4.6622,-4.5171,-4.3939,-4.2986,-4.2986,-4.2986,-4.2986,-4.2986,-4.2986,-4.2986,-4.2986,-4.2986,-4.2986,-4.2986,-4.2986,-4.2986,-4.2986,-4.2986,-4.2986,-4.2986,-4.2986,-4.2986,-4.2986,-4.2986,-4.2986,-4.2986,-4.2986,-4.2986,-4.2986,-4.3363,-4.384,-4.4392,-4.4869,-4.5171,-4.5296,-4.5824,-4.6326,-4.6753,-4.7004,-4.733,-4.7732,-4.8309,-4.8309,-4.7732,-4.8309,-4.8661,-4.8786,-4.9213,-4.9361,-4.9202,-4.9137,-4.8747,-4.8223,-4.8092,-4.7828,-4.763,-4.7497,-4.7497,-4.7497,-4.7497,-4.7497,-4.7497,-5.1229,-5.1229,-5.1229,-5.1229,-5.1229,-5.078,-4.9509,-4.9299,-4.885,-4.7489,-4.7309,-4.7309,-4.7309,-4.7222,-4.6931,-4.6447,-4.6382,-4.633,-4.633,-4.694,-4.7433,-4.7677,-4.8315,-4.8856,-4.9175,-4.9494,-4.9717,-4.9717,-4.9717,-4.9717,-4.9717,-4.9717,-5.022,-5.1178,-5.1468,-5.2165,-5.3094,-5.3384,-5.35,-5.35,-5.35,-5.35,-5.35,-5.35,-5.35,-5.35,-5.35,-5.35,-5.3477,-5.3319,-5.2894,-5.2162,-5.0487,-4.868,-4.6875,-4.5352,-4.4031,-4.2986,-4.2986,-4.2986,-4.2986,-4.2986,-4.2986,-4.2986,-4.2986,-4.2986,-4.2986,-4.2986,-4.2986,-4.2986,-4.2986,-4.2986,-4.2986,-4.2986,-4.2986,-4.2986,-4.2986,-4.2986,-4.2986,-4.2986,-4.3212,-4.3463,-4.374,-4.4016,-4.4443,-4.4995,-4.5321,-4.5598,-4.5874,-4.6401,-4.6828,-4.7068,-4.7631,-4.8058,-4.8309,-4.8887,-4.9012,-4.8711,-4.9012,-4.9163,-4.9163,-4.9464,-4.9396,-4.9072,-4.8942,-4.8551,-4.796,-4.7828,-4.763,-4.7497,-4.7497,-4.7497,-4.7497,-4.7497,-4.7497,-4.7497,-5.1229,-5.1229,-5.1229,-5.1229,-5.1229,-5.078,-4.9509,-4.9299,-4.885,-4.7489,-4.7309,-4.7266,-4.7266,-4.6975,-4.6653,-4.6371,-4.6596,-4.6836,-4.6923,-4.7579,-4.8188,-4.8663,-4.8827,-4.9117,-4.9717,-4.9717,-4.9717,-4.9717,-4.9717,-4.9717,-4.9717,-4.9717,-5.0104,-5.0859,-5.1381,-5.2049,-5.2775,-5.3297,-5.35,-5.35,-5.35,-5.35,-5.35,-5.35,-5.35,-5.35,-5.35,-5.35,-5.35,-5.35,-5.3073,-5.2288,-5.0806,-4.9009,-4.718,-4.5686,-4.4326,-4.335,-4.3193,-4.3112,-4.3087,-4.3011,-4.2986,-4.2986,-4.2986,-4.2986,-4.2986,-4.2986,-4.2986,-4.2986,-4.2986,-4.2986,-4.2986,-4.2986,-4.2986,-4.2986,-4.2986,-4.2986,-4.3011,-4.3112,-4.3614,-4.4166,-4.4719,-4.4769,-4.502,-4.5573,-4.5623,-4.5874,-4.6426,-4.6878,-4.723,-4.7405,-4.8309,-4.8812,-4.8912,-4.9364,-4.959,-4.959,-4.959,-4.959,-4.959,-4.959,-4.9396,-4.9007,-4.8706,-4.8313,-4.7894,-4.763,-4.7497,-4.7497,-4.7497,-4.7497,-4.7497,-4.7497,-4.7497,-4.7497,-5.1229,-5.1229,-5.1229,-5.1229,-5.1229,-5.078,-4.9509,-4.9299,-4.885,-4.7489,-4.7309,-4.7222,-4.6975,-4.658,-4.6503,-4.7044,-4.6887,-4.7056,-4.7608,-4.8246,-4.8624,-4.8663,-4.9262,-4.9582,-4.9717,-4.9717,-4.9717,-4.9717,-4.9717,-4.9717,-4.9717,-4.9717,-5.0336,-5.1497,-5.1585,-5.2281,-5.3384,-5.3471,-5.35,-5.35,-5.35,-5.35,-5.35,-5.35,-5.35,-5.35,-5.35,-5.35,-5.35,-5.35,-5.2756,-5.1604,-5.0452,-4.9003,-4.7427,-4.5936,-4.5145,-4.4662,-4.3872,-4.3689,-4.3589,-4.3087,-4.2986,-4.2986,-4.2986,-4.2986,-4.2986,-4.2986,-4.2986,-4.2986,-4.2986,-4.2986,-4.2986,-4.2986,-4.2986,-4.2986,-4.2986,-4.2986,-4.3162,-4.3639,-4.4192,-4.4744,-4.5321,-4.5372,-4.5598,-4.615,-4.62,-4.6451,-4.6943,-4.7043,-4.7556,-4.851,-4.8686,-4.9012,-4.949,-4.9565,-4.959,-4.959,-4.959,-4.959,-4.959,-4.959,-4.9292,-4.8641,-4.86,-4.8182,-4.7563,-4.7497,-4.7497,-4.7497,-4.7497,-4.7497,-4.7497,-4.7497,-4.7497,-4.7497,-5.1229,-5.1229,-5.1229,-5.1229,-5.0853,-5.0361,-4.9449,-4.9299,-4.897,-4.7967,-4.8044,-4.8149,-4.803,-4.755,-4.7349,-4.7532,-4.7742,-4.8014,-4.8275,-4.8914,-4.9262,-4.9262,-4.9524,-4.9717,-4.9717,-4.9717,-4.9717,-4.9717,-4.9717,-4.9717,-4.9746,-5.0095,-5.0743,-5.1643,-5.1991,-5.2659,-5.35,-5.35,-5.35,-5.35,-5.35,-5.35,-5.35,-5.35,-5.35,-5.35,-5.35,-5.35,-5.35,-5.35,-5.3064,-5.2296,-5.1112,-4.993,-4.8736,-4.7045,-4.61,-4.5463,-4.4719,-4.4382,-4.4192,-4.3966,-4.389,-4.389,-4.389,-4.3664,-4.3338,-4.3037,-4.2986,-4.2986,-4.2986,-4.2986,-4.2986,-4.2986,-4.3237,-4.3438,-4.3438,-4.3689,-4.4116,-4.4669,-4.497,-4.5321,-4.5899,-4.5949,-4.605,-4.6301,-4.6602,-4.6878,-4.7129,-4.7707,-4.8259,-4.8761,-4.9063,-4.9339,-4.959,-4.959,-4.959,-4.959,-4.959,-4.959,-4.959,-4.959,-4.9332,-4.8902,-4.8641,-4.8313,-4.7762,-4.7563,-4.7497,-4.7497,-4.7497,-4.7497,-4.7497,-4.7497,-4.7497,-4.7497]},{"header":{"parameterUnit":"m.s-1","parameterCategory":1,"la1":30.6,"la2":28.766,"lo1":-90.7593,"lo2":-88.6598,"dy":0.0162,"dx":0.0183,"nx":116,"ny":114,"refTime":"2024-04-25T06:00:00:Z","depth":0,"parameterNumber":3,"parameterNumberName":"V-component_of_WINDS"},"data":[0.0,0.0,0.0,0.0,0.0,0.0,0.0,0.0,0.0,0.0,0.0,0.0,0.0,0.0,0.0,0.0,0.0,0.0,0.0,0.0,0.0,0.0,0.0,0.0,0.0,0.0,0.0,0.0,0.0,0.0,0.0,0.0,0.0,0.0,0.0,0.0,0.0,0.0,0.0,0.0,0.0,0.0,0.0,0.0,0.0,0.0,0.0,0.0,0.0,0.0,0.0,0.0,0.0,0.0,0.0,0.0,0.0,0.0,0.0,0.0,0.0,0.0,0.0,0.0,0.0,0.0,0.0,0.0,0.0,0.0,0.0,0.0,0.0,0.0,0.0,0.0,0.0,0.0,0.0,0.0,0.0,0.0,0.0,0.0,0.0,0.0,0.0,0.0,0.0,0.0,0.0,0.0,0.0,0.0,0.0,0.0,0.0,0.0,0.0,0.0,0.0,0.0,0.0,0.0,0.0,0.0,0.0,0.0,0.0,0.0,0.0,0.0,0.0,0.0,0.0,0.0,0.0,0.0,0.0,0.0,0.0,0.0,0.0,0.0,0.0,0.0,0.0,0.0,0.0,0.0,0.0,0.0,0.0,0.0,0.0,0.0,0.0,0.0,0.0,0.0,0.0,0.0,0.0,0.0,0.0,0.0,0.0,0.0,0.0,0.0,0.0,0.0,0.0,0.0,0.0,0.0,0.0,0.0,0.0,0.0,0.0,0.0,0.0,0.0,0.0,0.0,0.0,0.0,0.0,0.0,0.0,0.0,0.0,0.0,0.0,0.0,0.0,0.0,0.0,0.0,0.0,0.0,0.0,0.0,0.0,0.0,0.0,0.0,0.0,0.0,0.0,0.0,0.0,0.0,0.0,0.0,0.0,0.0,0.0,0.0,0.0,0.0,0.0,0.0,0.0,0.0,0.0,0.0,0.0,0.0,0.0,0.0,0.0,0.0,0.0,0.0,0.0,0.0,0.0,0.0,0.0,0.0,0.0,0.0,0.0,0.0,0.0,0.0,0.0,0.0,0.0,0.0,0.0,0.0,0.0,0.0,0.0,0.0,0.0,0.0,0.0,0.0,0.0,0.0,0.0,0.0,0.0,0.0,0.0,0.0,0.0,0.0,0.0,0.0,0.0,0.0,0.0,0.0,0.0,0.0,0.0,0.0,0.0,0.0,0.0,0.0,0.0,0.0,0.0,0.0,0.0,0.0,0.0,0.0,0.0,0.0,0.0,0.0,0.0,0.0,0.0,0.0,0.0,0.0,0.0,0.0,0.0,0.0,0.0,0.0,0.0,0.0,0.0,0.0,0.0,0.0,0.0,0.0,0.0,0.0,0.0,0.0,0.0,0.0,0.0,0.0,0.0,0.0,0.0,0.0,0.0,0.0,0.0,0.0,0.0,0.0,0.0,0.0,0.0,0.0,0.0,0.0,0.0,0.0,0.0,0.0,0.0,0.0,0.0,0.0,0.0,0.0,0.0,0.0,0.0,0.0,0.0,0.0,0.0,0.0,0.0,0.0,0.0,0.0,0.0,0.0,0.0,0.0,0.0,0.0,0.0,0.0,0.0,0.0,0.0,0.0,0.0,0.0,0.0,0.0,0.0,0.0,0.0,0.0,0.0,0.0,0.0,0.0,0.0,0.0,0.0,0.0,0.0,0.0,0.0,0.0,0.0,0.0,0.0,0.0,0.0,0.0,0.0,0.0,0.0,0.0,0.0,0.0,0.0,0.0,0.0,0.0,0.0,0.0,0.0,0.0,0.0,0.0,0.0,0.0,0.0,0.0,0.0,0.0,0.0,0.0,0.0,0.0,0.0,0.0,0.0,0.0,0.0,0.0,0.0,0.0,0.0,0.0,0.0,0.0,0.0,0.0,0.0,0.0,0.0,0.0,0.0,0.0,0.0,0.0,0.0,0.0,0.0,0.0,0.0,0.0,0.0,0.0,0.0,0.0,0.0,0.0,0.0,0.0,0.0,0.0,0.0,0.0,0.0,0.0,0.0,0.0,0.0,0.0,0.0,0.0,0.0,0.0,0.0,0.0,0.0,0.0,0.0,0.0,0.0,0.0,0.0,0.0,0.0,0.0,0.0,0.0,0.0,0.0,0.0,0.0,0.0,0.0,0.0,0.0,0.0,0.0,0.0,0.0,0.0,0.0,0.0,0.0,0.0,0.0,0.0,0.0,0.0,0.0,0.0,0.0,0.0,0.0,0.0,0.0,0.0,0.0,0.0,0.0,0.0,0.0,0.0,0.0,0.0,0.0,0.0,0.0,0.0,0.0,0.0,0.0,0.0,0.0,0.0,0.0,0.0,0.0,0.0,0.0,0.0,0.0,0.0,0.0,0.0,0.0,0.0,0.0,0.0,0.0,0.0,0.0,0.0,0.0,0.0,0.0,0.0,0.0,0.0,0.0,0.0,0.0,0.0,0.0,0.0,0.0,0.0,0.0,0.0,0.0,0.0,0.0,0.0,0.0,0.0,0.0,0.0,0.0,0.0,0.0,0.0,0.0,0.0,0.0,0.0,0.0,0.0,0.0,0.0,0.0,0.0,0.0,0.0,0.0,0.0,0.0,0.0,0.0,0.0,0.0,0.0,0.0,0.0,0.0,0.0,0.0,0.0,0.0,0.0,0.0,0.0,0.0,0.0,0.0,0.0,0.0,0.0,0.0,0.0,0.0,0.0,0.0,0.0,0.0,0.0,0.0,0.0,0.0,0.0,0.0,0.0,0.0,0.0,0.0,0.0,0.0,0.0,0.0,0.0,0.0,0.0,0.0,0.0,0.0,0.0,0.0,0.0,0.0,0.0,0.0,0.0,0.0,0.0,0.0,0.0,0.0,0.0,0.0,0.0,0.0,0.0,0.0,0.0,0.0,0.0,0.0,0.0,0.0,0.0,0.0,0.0,0.0,0.0,0.0,0.0,0.0,0.0,0.0,0.0,0.0,0.0,0.0,0.0,0.0,0.0,0.0,0.0,0.0,0.0,0.0,0.0,0.0,0.0,0.0,0.0,0.0,0.0,0.0,0.0,0.0,0.0,0.0,0.0,0.0,0.0,0.0,0.0,0.0,0.0,0.0,0.0,0.0,0.0,0.0,0.0,0.0,0.0,0.0,0.0,0.0,0.0,0.0,0.0,0.0,0.0,0.0,0.0,0.0,0.0,0.0,0.0,0.0,0.0,0.0,0.0,0.0,0.0,0.0,0.0,0.0,0.0,0.0,0.0,0.0,0.0,0.0,0.0,0.0,0.0,0.0,0.0,0.0,0.0,0.0,0.0,0.0,0.0,0.0,0.0,0.0,0.0,0.0,0.0,0.0,0.0,0.0,0.0,0.0,0.0,0.0,0.0,0.0,0.0,0.0,0.0,0.0,0.0,0.0,0.0,0.0,0.0,0.0,0.0,0.0,0.0,0.0,0.0,0.0,0.0,0.0,0.0,0.0,0.0,0.0,0.0,0.0,0.0,0.0,0.0,0.0,0.0,0.0,0.0,0.0,0.0,0.0,0.0,0.0,0.0,0.0,0.0,0.0,0.0,0.0,0.0,0.0,0.0,0.0,0.0,0.0,0.0,0.0,0.0,0.0,0.0,0.0,0.0,0.0,0.0,0.0,0.0,0.0,0.0,0.0,0.0,0.0,0.0,0.0,0.0,0.0,0.0,0.0,0.0,0.0,0.0,0.0,0.0,0.0,0.0,0.0,0.0,0.0,0.0,0.0,0.0,0.0,0.0,0.0,0.0,0.0,0.0,0.0,0.0,0.0,0.0,0.0,0.0,0.0,0.0,0.0,0.0,0.0,0.0,0.0,0.0,0.0,0.0,0.0,0.0,0.0,0.0,0.0,0.0,0.0,0.0,0.0,0.0,0.0,0.0,0.0,0.0,0.0,0.0,0.0,0.0,0.0,0.0,0.0,0.0,0.0,0.0,0.0,0.0,0.0,0.0,0.0,0.0,0.0,0.0,0.0,0.0,0.0,0.0,0.0,0.0,0.0,0.0,0.0,0.0,0.0,0.0,0.0,0.0,0.0,0.0,0.0,0.0,0.0,0.0,0.0,0.0,0.0,0.0,0.0,0.0,0.0,0.0,0.0,0.0,0.0,0.0,0.0,0.0,0.0,0.0,0.0,0.0,0.0,0.0,0.0,0.0,0.0,0.0,0.0,0.0,0.0,0.0,0.0,0.0,0.0,0.0,0.0,0.0,0.0,0.0,0.0,0.0,0.0,0.0,0.0,0.0,0.0,0.0,0.0,0.0,0.0,0.0,0.0,0.0,0.0,0.0,0.0,0.0,0.0,0.0,0.0,0.0,0.0,0.0,0.0,0.0,0.0,0.0,0.0,0.0,0.0,0.0,0.0,0.0,0.0,0.0,0.0,0.0,0.0,0.0,0.0,0.0,0.0,0.0,0.0,0.0,0.0,0.0,0.0,0.0,0.0,0.0,0.0,0.0,0.0,0.0,0.0,0.0,0.0,0.0,0.0,0.0,0.0,0.0,0.0,0.0,0.0,0.0,0.0,0.0,0.0,0.0,0.0,0.0,0.0,0.0,0.0,0.0,0.0,0.0,0.0,0.0,0.0,0.0,0.0,0.0,0.0,0.0,0.0,0.0,0.0,0.0,0.0,0.0,0.0,0.0,0.0,0.0,0.0,0.0,0.0,0.0,0.0,0.0,0.0,0.0,0.0,0.0,0.0,0.0,0.0,0.0,0.0,0.0,0.0,0.0,0.0,0.0,0.0,0.0,0.0,0.0,0.0,0.0,0.0,0.0,0.0,0.0,0.0,0.0,0.0,0.0,0.0,0.0,0.0,0.0,0.0,0.0,0.0,0.0,0.0,0.0,0.0,0.0,0.0,0.0,0.0,0.0,0.0,0.0,0.0,0.0,0.0,0.0,0.0,0.0,0.0,0.0,0.0,0.0,0.0,0.0,0.0,0.0,0.0,0.0,0.0,0.0,0.0,0.0,0.0,0.0,0.0,0.0,0.0,0.0,0.0,0.0,0.0,0.0,0.0,0.0,0.0,0.0,0.0,0.0,0.0,0.0,0.0,0.0,0.0,0.0,0.0,0.0,0.0,0.0,0.0,0.0,0.0,0.0,0.0,0.0,0.0,0.0,0.0,0.0,0.0,0.0,0.0,0.0,0.0,0.0,0.0,0.0,0.0,0.0,0.0,0.0,0.0,0.0,0.0,0.0,0.0,0.0,0.0,0.0,0.0,0.0,0.0,0.0,0.0,0.0,0.0,0.0,0.0,0.0,0.0,0.0,0.0,0.0,0.0,0.0,0.0,0.0,0.0,0.0,0.0,0.0,0.0,0.0,0.0,0.0,0.0,0.0,0.0,0.0,0.0,0.0,0.0,0.0,0.0,0.0,0.0,0.0,0.0,0.0,0.0,0.0,0.0,0.0,0.0,0.0,0.0,0.0,0.0,0.0,0.0,0.0,0.0,0.0,0.0,0.0,0.0,0.0,0.0,0.0,0.0,0.0,0.0,0.0,0.0,0.0,0.0,0.0,0.0,0.0,0.0,0.0,0.0,0.0,0.0,0.0,0.0,0.0,0.0,0.0,0.0,0.0,0.0,0.0,0.0,0.0,0.0,0.0,0.0,0.0,0.0,0.0,0.0,0.0,0.0,0.0,0.0,0.0,0.0,0.0,0.0,0.0,0.0,0.0,0.0,0.0,0.0,0.0,0.0,0.0,0.0,0.0,0.0,0.0,0.0,0.0,0.0,0.0,0.0,0.0,0.0,0.0,0.0,0.0,0.0,0.0,0.0,0.0,0.0,0.0,0.0,0.0,0.0,0.0,0.0,0.0,0.0,0.0,0.0,0.0,0.0,0.0,0.0,0.0,0.0,0.0,0.0,0.0,0.0,0.0,0.0,0.0,0.0,0.0,0.0,0.0,0.0,0.0,0.0,0.0,0.0,0.0,0.0,0.0,0.0,0.0,0.0,0.0,0.0,0.0,0.0,0.0,0.0,0.0,0.0,0.0,0.0,0.0,0.0,0.0,0.0,0.0,0.0,0.0,0.0,0.0,0.0,0.0,0.0,0.0,0.0,0.0,0.0,0.0,0.0,0.0,0.0,0.0,0.0,0.0,0.0,0.0,0.0,0.0,0.0,4.484,4.4717,0.0,0.0,0.0,0.0,0.0,0.0,0.0,0.0,0.0,0.0,0.0,0.0,0.0,0.0,0.0,0.0,0.0,0.0,0.0,0.0,0.0,0.0,0.0,3.293,3.2871,3.3105,3.3301,3.3418,3.3418,3.3418,3.3418,3.3418,3.3418,3.3481,3.3607,3.3985,3.4298,3.461,3.4984,3.517,3.5356,3.5356,3.5108,3.4673,0.0,0.0,0.0,0.0,0.0,0.0,0.0,0.0,0.0,0.0,0.0,0.0,0.0,0.0,0.0,0.0,0.0,0.0,0.0,0.0,0.0,0.0,0.0,0.0,0.0,0.0,0.0,0.0,0.0,0.0,0.0,0.0,0.0,0.0,0.0,0.0,0.0,0.0,0.0,0.0,0.0,0.0,0.0,0.0,0.0,0.0,0.0,0.0,0.0,0.0,0.0,0.0,0.0,0.0,0.0,0.0,0.0,0.0,0.0,0.0,0.0,0.0,0.0,0.0,0.0,0.0,0.0,0.0,0.0,0.0,4.527,4.4878,0.0,0.0,0.0,0.0,0.0,0.0,0.0,0.0,0.0,0.0,0.0,0.0,0.0,0.0,0.0,0.0,0.0,0.0,0.0,0.0,0.0,3.2793,3.2793,3.2734,3.2715,3.2793,3.3105,3.334,3.3418,3.3418,3.3418,3.3418,3.3481,3.367,3.3985,3.4423,3.4984,3.5541,3.6034,3.6401,3.6707,3.6707,3.6279,3.5418,3.5541,0.0,0.0,0.0,0.0,0.0,0.0,0.0,0.0,0.0,0.0,0.0,0.0,0.0,0.0,0.0,0.0,0.0,0.0,0.0,0.0,0.0,0.0,0.0,0.0,0.0,0.0,0.0,0.0,0.0,0.0,0.0,0.0,0.0,0.0,0.0,0.0,0.0,0.0,0.0,0.0,0.0,0.0,0.0,0.0,0.0,0.0,0.0,0.0,0.0,0.0,0.0,0.0,0.0,0.0,0.0,0.0,0.0,0.0,0.0,0.0,0.0,0.0,0.0,4.5453,4.5635,4.5878,4.5878,4.6059,4.624,4.5696,4.5157,4.4579,4.4519,0.0,0.0,0.0,0.0,0.0,0.0,0.0,0.0,0.0,0.0,0.0,0.0,0.0,0.0,0.0,0.0,0.0,0.0,0.0,3.2793,3.2793,3.248,3.2402,3.2754,3.2851,3.3027,3.3398,3.3418,3.3418,3.3418,3.367,3.3985,3.436,3.5232,3.5911,3.6258,3.711,3.7714,3.8074,3.8074,3.7834,3.7352,3.6585,3.6239,3.6178,0.0,0.0,0.0,0.0,0.0,0.0,0.0,0.0,0.0,0.0,0.0,0.0,0.0,0.0,0.0,0.0,0.0,0.0,0.0,0.0,0.0,0.0,0.0,0.0,0.0,0.0,0.0,0.0,0.0,0.0,0.0,0.0,0.0,0.0,0.0,0.0,0.0,0.0,0.0,0.0,0.0,4.5331,4.5331,0.0,0.0,0.0,0.0,0.0,0.0,0.0,0.0,0.0,0.0,0.0,0.0,0.0,4.618,4.618,4.618,4.618,4.618,4.618,4.618,4.624,4.624,4.624,4.6301,4.618,0.0,4.4878,4.4639,0.0,0.0,0.0,0.0,0.0,0.0,0.0,0.0,0.0,0.0,0.0,0.0,0.0,0.0,0.0,0.0,0.0,0.0,0.0,0.0,0.0,3.2346,3.2148,3.209,3.2305,3.2519,3.2695,3.3116,3.344,3.3627,3.4158,3.4797,3.552,3.634,3.7231,3.8231,3.8885,3.9239,3.9357,3.9357,3.9298,3.9121,3.8707,3.7954,3.695,3.7132,0.0,0.0,0.0,0.0,0.0,0.0,0.0,0.0,0.0,0.0,0.0,0.0,0.0,0.0,0.0,0.0,0.0,0.0,0.0,0.0,0.0,0.0,0.0,0.0,0.0,0.0,0.0,0.0,0.0,0.0,0.0,0.0,0.0,0.0,0.0,0.0,0.0,0.0,0.0,4.5878,4.5878,4.5878,4.5878,4.5878,0.0,0.0,0.0,0.0,0.0,0.0,0.0,0.0,0.0,4.6301,4.6301,4.6301,4.6301,4.6301,4.6301,4.6301,4.6301,4.6301,4.6301,4.6301,4.6361,4.6566,4.6566,4.6298,4.5742,4.4886,4.4378,4.4026,0.0,0.0,0.0,0.0,4.4523,4.4696,0.0,0.0,0.0,0.0,0.0,0.0,0.0,0.0,0.0,0.0,0.0,0.0,3.2383,3.2226,3.2031,3.1719,3.1875,3.2111,3.227,3.2889,3.3415,3.3842,3.4574,3.5472,3.648,3.7339,3.8462,3.98,4.0148,4.0392,4.0473,4.0592,4.0663,4.0524,4.0524,3.965,3.8134,3.8313,3.8432,3.8432,0.0,0.0,0.0,0.0,0.0,0.0,0.0,0.0,0.0,0.0,0.0,0.0,0.0,0.0,0.0,0.0,0.0,0.0,0.0,0.0,0.0,0.0,0.0,0.0,0.0,0.0,0.0,0.0,0.0,0.0,0.0,0.0,0.0,0.0,0.0,0.0,0.0,4.6301,4.6301,4.6301,4.6175,4.61,0.0,0.0,0.0,0.0,0.0,0.0,4.5673,4.5698,4.5874,4.6301,4.6301,4.6301,4.6301,4.6301,4.6301,4.6301,4.6301,4.6361,4.6446,4.6446,4.6661,4.7019,4.7078,4.7059,4.6856,4.5712,4.4935,4.45,4.448,4.4497,4.4694,4.5288,4.5742,4.6112,0.0,0.0,0.0,0.0,0.0,0.0,0.0,0.0,0.0,0.0,0.0,3.3223,3.2812,3.2402,3.2168,3.2148,3.1777,3.1838,3.2533,3.2894,3.3376,3.3953,3.4863,3.5801,3.6684,3.8132,3.9276,3.9964,4.0474,4.0908,4.1237,4.1752,4.1859,4.1549,4.1549,4.1009,4.0059,4.0059,4.0059,4.0059,4.0118,0.0,0.0,0.0,0.0,0.0,0.0,0.0,0.0,0.0,0.0,0.0,0.0,0.0,0.0,0.0,0.0,0.0,0.0,0.0,0.0,0.0,0.0,0.0,0.0,0.0,0.0,0.0,0.0,0.0,0.0,0.0,0.0,0.0,0.0,0.0,0.0,0.0,0.0,4.6301,4.5849,0.0,0.0,0.0,0.0,4.5447,4.5472,4.5673,4.6225,4.6276,4.6276,4.6301,4.6301,4.6301,4.6301,4.6301,4.6301,4.6301,4.6301,4.6506,4.6806,4.6806,4.7078,4.7703,4.7912,4.8236,4.839,4.7262,4.615,4.5197,4.5697,4.5737,4.5635,4.6426,4.6922,4.7339,0.0,0.0,0.0,3.1717,3.2166,3.2485,3.2867,3.3165,3.3418,3.3418,3.3418,3.3262,3.2832,3.2422,3.2051,3.1777,3.1367,3.1407,3.2016,3.2806,3.3734,3.4703,3.5909,3.7155,3.848,3.9426,4.0111,4.0572,4.0933,4.1196,4.1305,4.1504,4.1723,4.1991,4.1991,4.2022,4.198,4.1353,4.1124,4.1124,4.132,4.1435,0.0,0.0,0.0,0.0,0.0,0.0,0.0,0.0,0.0,0.0,0.0,0.0,0.0,0.0,0.0,0.0,0.0,0.0,0.0,0.0,0.0,0.0,0.0,0.0,0.0,0.0,0.0,0.0,0.0,0.0,0.0,0.0,0.0,0.0,0.0,0.0,0.0,4.5271,4.5372,0.0,4.5497,4.5296,4.5271,4.5472,4.5146,4.5171,4.5748,4.5773,4.5949,4.6301,4.6506,4.6721,4.6874,4.7112,4.729,4.7552,4.7552,4.7611,4.7729,4.788,4.8204,4.8611,4.9103,4.9502,4.9759,4.9711,4.8592,4.6831,4.7029,4.6944,4.6821,4.762,4.7976,4.8128,0.0,0.0,0.0,3.1589,3.2102,3.2485,3.2676,3.3102,3.3418,3.3418,3.3418,3.332,3.3027,3.2637,3.2207,3.1777,3.1348,3.1328,3.1903,3.2802,3.3889,3.5175,3.6779,3.8186,3.9412,3.9898,4.0298,4.0511,4.0871,4.1,4.1025,4.12,4.153,4.1882,4.1882,4.2183,4.2685,4.2072,4.1889,4.2061,4.2312,4.2369,4.2369,0.0,0.0,0.0,0.0,0.0,0.0,0.0,0.0,0.0,0.0,0.0,0.0,0.0,0.0,0.0,0.0,0.0,0.0,0.0,0.0,0.0,0.0,0.0,0.0,0.0,0.0,0.0,0.0,0.0,0.0,0.0,0.0,0.0,0.0,4.5372,4.5347,4.497,4.5246,4.5497,4.5497,4.5321,4.5271,4.5472,4.5121,4.5171,4.5723,4.5773,4.5984,4.6481,4.678,4.7112,4.7501,4.7854,4.8204,4.8611,4.8579,4.8695,4.8957,4.9045,4.9331,4.9843,5.0349,5.0767,5.1045,5.1595,5.0596,4.8732,4.8639,4.8211,4.7801,4.8509,4.876,4.8831,0.0,0.0,0.0,3.1249,3.1974,3.2358,3.2422,3.2975,3.3355,3.3418,3.3418,3.3418,3.3418,3.3047,3.2617,3.2268,3.1777,3.1683,3.219,3.2778,3.3797,3.5378,3.7388,3.8684,3.9258,3.9594,3.9697,3.9697,4.0224,4.0501,4.0501,4.0974,4.125,4.125,4.125,4.163,4.2187,4.2187,4.2514,4.2961,4.2961,4.2986,4.2986,0.0,0.0,0.0,0.0,0.0,0.0,0.0,0.0,0.0,0.0,0.0,0.0,0.0,0.0,0.0,0.0,0.0,0.0,0.0,0.0,0.0,0.0,0.0,0.0,0.0,0.0,0.0,0.0,0.0,0.0,0.0,0.0,0.0,4.4618,4.5095,4.5472,4.5472,4.5472,4.5497,4.5497,4.4995,4.492,4.5472,4.5522,4.5748,4.6276,4.6301,4.6446,4.6806,4.7053,4.7501,4.8146,4.8526,4.8988,4.9589,4.9331,4.9616,5.0461,5.0181,5.0573,5.1348,5.1704,5.2004,5.2275,5.2598,5.199,5.0823,5.0455,4.9586,4.8581,4.9108,4.9305,4.9355,0.0,0.0,3.062,3.1249,3.1782,3.2102,3.2358,3.274,3.3102,3.3355,3.3418,3.3418,3.3418,3.3047,3.2617,3.2268,3.1777,3.18,3.2555,3.314,3.4525,3.6874,3.8104,3.8893,3.9258,3.9594,3.9697,3.9697,3.9848,3.9923,3.9923,4.0074,4.035,4.0752,4.0752,4.1053,4.1555,4.1555,4.1882,4.2464,4.2811,4.2986,4.2986,0.0,0.0,0.0,0.0,0.0,0.0,0.0,0.0,0.0,0.0,0.0,0.0,0.0,0.0,0.0,0.0,0.0,0.0,0.0,0.0,0.0,0.0,0.0,0.0,0.0,0.0,0.0,0.0,0.0,0.0,0.0,4.4618,4.4618,4.4618,4.4769,4.4869,4.4869,4.5221,4.5497,4.5497,4.5698,4.5924,4.6075,4.6075,4.615,4.6301,4.6301,4.6446,4.6806,4.7468,4.8262,4.9129,5.0068,5.0823,5.1457,5.1567,5.1731,5.2002,5.211,5.2298,5.2541,5.3102,5.3366,5.339,5.3267,5.2698,5.1917,5.1228,5.0226,4.9108,4.9424,4.96,4.9571,0.0,2.9905,3.062,3.1249,3.1653,3.1974,3.2358,3.2676,3.3038,3.3355,3.3418,3.3418,3.3418,3.3203,3.2812,3.2226,3.1934,3.1999,3.244,3.3741,3.5411,3.7489,3.8368,3.8945,3.9258,3.9594,3.9697,3.9697,3.9697,3.9798,4.0049,4.0049,4.0325,4.0852,4.0626,4.0827,4.1275,4.105,4.1304,4.1856,4.2464,4.2816,4.2986,4.2986,4.2986,4.2986,4.2986,4.2986,4.2986,4.2986,0.0,0.0,0.0,0.0,0.0,0.0,0.0,0.0,0.0,0.0,0.0,0.0,0.0,0.0,0.0,0.0,0.0,0.0,0.0,0.0,0.0,0.0,0.0,0.0,4.4468,4.4719,4.4945,4.4995,4.4995,4.4995,4.5472,4.5824,4.5824,4.6446,4.6809,4.6809,4.7243,4.743,4.743,4.743,4.7672,4.8069,4.876,4.9591,5.0619,5.1432,5.2218,5.289,5.2943,5.3102,5.3314,5.3366,5.3442,5.3547,5.3942,5.4045,5.4068,5.3604,5.3006,5.2338,0.0,0.0,0.0,0.0,5.0038,5.0038,0.0,2.9839,3.062,3.1249,3.1653,3.1974,3.2294,3.2613,3.2975,3.3292,3.3355,3.3418,3.3418,3.3418,3.3105,3.2305,3.2268,3.2216,3.2289,3.4469,3.6254,3.7382,3.8262,3.8841,3.9154,3.9465,3.9671,3.9746,3.9798,4.0074,4.0601,4.0601,4.0824,4.125,4.0774,4.0824,4.125,4.0752,4.0774,4.1326,4.1806,4.2389,4.2886,4.2961,4.2986,4.2986,4.2986,4.2986,4.2986,4.2986,0.0,0.0,0.0,0.0,0.0,0.0,0.0,0.0,0.0,0.0,0.0,0.0,0.0,0.0,0.0,0.0,0.0,0.0,0.0,0.0,0.0,0.0,0.0,0.0,4.4508,4.5062,4.5691,4.5792,4.5792,4.5732,4.616,4.6547,4.6622,4.7293,4.7755,4.7755,4.8544,4.9035,4.9035,4.9035,0.0,0.0,0.0,5.1189,5.2408,5.2783,5.3328,5.4111,5.3879,5.4029,5.4406,5.4178,5.4178,5.4406,5.4406,5.4406,5.4347,5.3668,5.2959,5.2201,5.1532,5.0972,5.0501,5.0501,5.0501,5.0501,0.0,2.9709,3.062,3.1249,3.1442,3.157,3.1974,3.2294,3.2613,3.2912,3.3228,3.3418,3.3418,3.3418,3.3223,3.2715,3.2363,3.2376,3.2898,3.4525,3.5817,3.6549,3.7548,3.821,3.8238,3.8998,3.9586,4.0034,4.0245,4.0651,4.1125,4.1125,4.1175,4.1275,4.1175,4.1175,4.125,4.0752,4.0774,4.125,4.0978,4.143,4.2414,4.2866,4.2986,4.2986,4.2986,4.2986,4.2986,4.2986,4.2986,4.2986,4.2986,4.2986,0.0,0.0,0.0,0.0,0.0,0.0,0.0,0.0,0.0,0.0,0.0,0.0,0.0,0.0,0.0,0.0,0.0,0.0,0.0,4.5751,4.6006,4.6415,4.7436,4.7589,4.7529,4.7202,4.7545,4.7921,4.8406,4.8621,4.8733,4.8733,4.8897,4.9035,4.9035,4.9254,4.9655,5.0292,5.1346,5.2508,5.3725,5.4771,5.5259,5.536,5.5545,0.0,5.5027,5.4976,5.4976,5.5027,5.5027,5.5027,5.4938,5.3714,5.2521,5.1399,5.0851,5.0589,5.0501,5.0501,5.0501,5.0501,2.8477,2.9643,3.062,3.1249,3.1377,3.1506,3.1846,3.2038,3.2358,3.2867,3.3038,3.3228,3.3355,3.3418,3.3242,3.2832,3.2389,3.2314,3.2841,3.4022,3.5024,3.5817,3.6958,3.7744,3.8168,3.8863,3.9558,4.0261,4.0554,4.0989,4.1513,4.1702,4.1882,4.2158,4.1882,4.1756,4.1706,4.1153,4.0874,4.0874,4.0874,4.1103,4.143,4.2313,4.2791,4.2986,4.2986,4.2986,4.2986,4.2986,4.2986,4.2986,4.2986,4.2986,4.2986,0.0,0.0,0.0,0.0,0.0,0.0,0.0,0.0,0.0,0.0,0.0,0.0,0.0,0.0,4.4168,4.4643,0.0,4.5745,4.6308,4.6872,4.7436,4.8,4.8489,4.8608,4.8329,4.8451,4.8641,4.9009,4.9389,4.9667,4.9667,5.0049,5.039,5.0539,5.0883,5.1467,5.2404,5.3223,5.4233,5.5411,5.5996,5.6166,5.5931,5.6115,5.5837,5.5179,5.5179,5.4999,5.473,5.5029,5.4999,5.461,5.3593,5.2606,5.1631,5.1066,5.0852,5.0852,5.0852,5.0852,5.0852,2.866,2.9743,3.062,3.1249,3.1377,3.1506,3.1782,3.1846,3.2102,3.2613,3.2804,3.2975,3.3292,3.3355,3.3223,3.2715,3.2333,3.2233,3.2498,3.3289,3.4134,3.5046,3.6091,3.703,3.7841,3.8605,3.9352,4.0227,4.0665,4.1156,4.17,4.2088,4.2504,4.2905,4.2509,4.2363,4.2338,4.1731,4.1178,4.0701,4.1,4.0902,4.0601,4.1505,4.2183,4.2685,4.2785,4.2811,4.2836,4.2936,4.2986,4.2986,4.2986,4.2986,4.2986,4.2986,4.2986,0.0,0.0,0.0,0.0,0.0,0.0,0.0,0.0,4.3184,4.3432,4.3644,4.4249,4.4883,4.5145,4.5968,4.6611,4.674,4.7614,4.8309,4.8412,4.9144,4.9619,4.9502,4.9425,4.9425,4.9528,5.01,5.0545,5.0545,5.121,5.1721,5.2059,5.2553,5.3322,5.4556,5.5078,5.5849,5.7046,5.7059,5.6921,5.6555,5.6406,5.6017,5.5388,5.5239,5.482,5.4251,5.476,5.461,5.3952,5.3414,5.2785,5.2127,5.1468,5.1229,5.1229,5.1229,5.1229,5.1229,0.0,3.0066,3.062,3.1249,3.1377,3.1442,3.1442,3.1717,3.191,3.1974,3.2549,3.2912,3.2912,3.3228,3.3105,3.2305,3.2432,3.2316,3.1963,3.2457,3.314,3.3741,3.4692,3.5547,3.6342,3.7455,3.8556,3.9547,4.0371,4.1111,4.1623,4.2188,4.2519,4.2569,4.2799,4.2886,4.2836,4.2363,4.1756,4.115,4.0777,4.0576,4.0526,4.0651,4.1053,4.158,4.2082,4.2313,4.2363,4.2811,4.2986,4.2986,4.2986,4.2986,4.2986,4.2986,4.2986,4.2986,4.2986,4.2986,4.2986,4.2986,4.2986,4.2986,0.0,4.3184,4.3644,4.4377,4.4866,4.5533,4.6773,4.7117,4.7377,4.7899,4.8525,4.9124,4.9594,5.0254,5.0803,5.1236,5.0871,5.0767,5.1236,5.1403,5.1429,5.1429,5.157,5.1721,5.2059,5.2983,5.3926,5.4911,5.6079,5.7104,5.8051,5.8322,5.8292,5.7902,5.7274,5.6675,5.6098,5.5448,5.482,5.4221,5.4281,5.3922,5.3294,5.3204,5.2785,5.2127,5.1468,5.1229,5.1229,5.1229,5.1229,5.1229,0.0,2.9611,3.0298,3.098,3.1249,3.1377,3.1377,3.1506,3.1653,3.1846,3.2166,3.2485,3.2867,3.3165,3.3184,3.2578,3.2427,3.2255,3.1937,3.2102,3.2342,3.2799,3.3459,3.4294,3.5303,3.625,3.7372,3.862,3.9499,4.0219,4.0803,4.1263,4.1663,4.2004,4.2344,4.2569,4.2737,4.268,4.2133,4.1275,4.1025,4.0601,4.0049,4.0049,4.0174,4.0501,4.1379,4.1681,0.0,4.1957,4.2233,4.2564,4.2564,4.2766,4.2986,4.2986,4.2986,4.2986,4.2986,4.2986,4.2986,4.2986,4.2986,4.3062,4.3388,4.3832,4.4377,4.5078,4.5861,4.659,4.72,4.7597,4.8015,4.8616,4.9191,4.9766,5.0342,5.0917,5.1335,5.157,5.1387,5.1335,5.157,5.1596,5.1659,5.1872,5.1872,5.2245,5.2922,5.3685,5.4675,5.602,5.6964,5.7836,5.8719,5.8882,5.8662,5.8112,5.7423,5.6765,5.6188,5.5478,5.482,5.4162,5.3384,5.3324,5.3713,5.2935,5.2665,5.2665,5.1618,5.1229,5.1229,5.1229,5.1229,5.1229,0.0,2.921,2.9911,3.0752,3.1063,3.1313,3.1377,3.1377,3.1506,3.1717,3.1846,3.2166,3.2867,3.3102,3.3136,3.2832,3.2519,3.2231,3.19,3.174,3.1792,3.194,3.2457,3.3236,3.4253,3.4999,3.5932,3.7139,3.8078,3.8821,3.9231,3.9954,4.0548,4.0952,4.1468,4.1793,4.1952,4.2345,4.1888,4.0996,4.105,4.0551,3.9697,3.9697,3.9697,3.9823,4.0777,4.105,4.1075,4.1225,4.1605,4.1957,4.2162,4.2489,4.2841,4.2936,4.2986,4.2986,4.2986,4.2986,4.2986,4.2986,4.3087,4.3313,4.3714,4.437,4.5104,4.5693,4.659,4.733,4.7545,4.7911,4.8381,4.8982,4.9531,5.0106,5.0707,5.1256,5.1659,5.1721,5.1721,5.1783,5.1846,5.1783,5.1872,5.2059,5.2245,5.2799,5.3652,5.4437,5.5556,5.6879,5.764,5.839,5.9099,5.9099,5.886,5.8381,5.7513,5.6855,5.6376,5.5179,5.4371,5.3862,5.2695,5.2755,5.3593,5.2606,5.2486,5.2785,5.1648,5.1229,5.1229,5.1229,5.1229,5.1229,0.0,0.0,2.9663,3.0712,3.0936,3.1009,3.1377,3.1377,3.1377,3.1442,3.1717,3.2166,3.2867,3.2912,3.2884,3.2832,3.2793,3.2422,3.1582,3.1504,3.1427,3.1344,3.1672,3.2221,3.3039,3.3622,3.4202,3.4703,3.6096,3.6809,3.6868,3.8458,3.9275,3.9334,4.0316,4.0607,4.0387,4.0996,4.0824,4.0156,4.042,4.0199,3.9697,3.9697,3.9697,3.9772,4.035,4.0551,4.0626,4.11,4.13,4.1401,4.2037,4.2213,4.2338,4.2866,4.2986,4.2986,4.2986,4.2986,4.2986,4.2986,4.3388,4.379,4.379,4.4732,4.5719,4.6257,4.6849,4.7492,4.8041,4.8172,4.8381,4.8982,4.9531,5.0106,5.0707,5.1256,5.1721,5.2059,5.2059,5.2245,5.2527,5.2306,5.2059,5.2121,5.2677,5.3349,5.3959,5.5178,5.6308,5.7247,5.8169,5.8773,5.9099,5.9099,5.9099,5.9069,5.7723,5.7094,5.6974,5.4401,5.3234,5.3174,5.2486,5.2217,5.2247,5.2217,5.2217,5.2157,5.1498,5.1229,5.1229,5.1229,5.1229,5.1229,0.0,0.0,0.0,0.0,0.0,3.1037,3.135,3.1377,3.1377,3.1377,3.1717,0.0,0.0,0.0,0.0,0.0,3.2637,3.2428,3.2383,3.2109,3.1818,3.1427,3.1525,3.1701,3.1854,3.2369,3.2944,3.3558,3.4289,3.4854,3.5328,3.5892,3.6487,3.7094,3.7826,3.8366,3.8714,3.9714,3.9801,3.9306,3.9972,3.9912,3.9465,3.9645,3.9697,3.9722,0.0,3.9973,3.9998,4.0199,4.0501,4.0827,4.1003,4.158,4.2313,4.2811,4.2986,4.2986,4.2986,4.2986,4.2986,4.2986,4.3388,4.389,4.4267,4.5258,4.6283,4.6821,4.7477,4.7963,4.8146,4.8172,4.8486,4.9453,4.9766,5.0211,5.1204,5.1492,5.1721,5.2059,5.2306,5.2553,5.2922,5.2615,5.2615,5.3044,5.3685,5.4378,5.5205,5.6251,5.7162,5.7863,5.8445,5.8857,5.9099,5.9099,5.9099,5.9099,5.7723,5.6645,5.5777,5.3982,5.3174,5.3114,5.2037,5.1798,5.2157,5.1738,5.1798,5.2127,5.1468,5.1229,5.1229,5.1229,5.1229,5.1229,0.0,0.0,0.0,0.0,0.0,0.0,0.0,0.0,0.0,0.0,0.0,0.0,0.0,0.0,0.0,0.0,0.0,3.2406,3.244,3.2169,3.1841,3.1397,3.1223,3.107,3.1035,3.127,3.1623,3.2093,3.2712,3.3231,3.3685,3.4087,3.4564,3.5152,3.5773,3.6321,3.6793,3.7864,3.8249,3.8102,3.8985,3.9266,3.9154,3.9413,3.9645,0.0,3.9697,3.9697,3.9697,3.9697,3.9923,4.0249,4.045,4.1279,4.2288,4.264,4.2866,4.2986,4.2986,4.2986,4.2986,4.2986,4.3539,4.4192,4.4659,4.5781,4.6854,4.7247,4.7821,4.8172,4.8172,4.8172,4.8564,4.9688,4.9897,5.0289,5.1439,5.1596,5.1783,5.2245,5.2677,5.3139,5.3713,5.3806,5.3806,5.3926,5.4675,5.5498,5.6222,5.7134,5.7863,5.839,5.8664,5.8936,5.9099,5.9099,5.886,5.8381,5.7513,5.6436,5.5149,5.3803,5.3174,5.3114,5.1798,5.1468,5.1828,5.1379,5.1468,5.1798,5.1379,5.1229,5.1229,5.1229,5.1229,5.1229,0.0,0.0,0.0,0.0,0.0,0.0,0.0,0.0,0.0,0.0,0.0,0.0,0.0,0.0,0.0,0.0,0.0,0.0,3.1872,3.1853,3.1602,3.1167,3.0751,3.0585,3.0505,3.0464,3.0411,3.0411,3.1407,3.19,3.1959,3.2973,3.3454,3.3513,3.4146,3.4482,3.4633,3.5577,3.6226,3.6657,3.7548,3.8262,3.8788,3.9154,3.9413,3.9697,3.9697,3.9697,3.9697,3.9697,3.9697,3.9798,4.0375,4.1279,4.2187,4.2238,4.2615,4.2986,4.2986,4.2986,4.2986,4.2986,4.3815,4.4676,4.5023,4.6178,4.7324,4.7645,4.7938,4.8172,4.8172,4.8172,4.8564,4.9688,4.9897,5.0289,5.1439,5.1596,5.1846,5.2527,5.3166,5.4014,5.4911,5.5584,5.5556,5.4734,5.5817,5.6623,5.6936,5.7751,5.839,5.8719,5.8936,5.9099,5.9099,5.9069,5.8381,5.7094,5.7064,5.6406,5.5149,5.3803,5.3174,5.3114,5.1798,5.1229,5.1229,5.1229,5.1229,5.1229,5.1229,5.1229,5.1229,5.1229,5.1229,5.1229,0.0,0.0,0.0,0.0,0.0,0.0,0.0,0.0,0.0,0.0,0.0,0.0,0.0,0.0,0.0,0.0,0.0,0.0,3.2207,3.227,3.2081,3.1664,3.155,3.128,3.0959,3.0664,3.0496,3.0496,3.072,3.0781,3.084,3.1329,3.1662,3.1896,3.2362,3.2629,3.2908,3.4025,3.4746,3.5212,3.6526,3.7388,3.7974,3.8684,3.9102,3.9413,3.9645,3.9697,3.9697,3.9697,3.9697,3.9848,4.0774,4.1329,4.1706,4.2534,4.2861,4.2986,4.2986,4.2986,4.2986,4.2986,4.3815,4.4676,4.5023,4.6178,4.7324,4.7645,4.7938,4.8172,4.8172,4.8172,4.8564,4.9688,4.9897,5.0289,5.1439,5.1596,5.1846,5.2527,5.3166,5.4074,5.5261,5.6135,5.6737,5.6964,5.7218,5.7528,5.7863,5.85,5.8882,5.8991,5.9045,5.9099,5.9099,5.862,5.7932,5.7094,5.6615,5.5987,5.5149,5.3803,5.3174,5.3114,5.1798,5.1229,5.1229,5.1229,5.1229,5.1229,5.1229,5.1229,5.1229,5.1229,5.1229,5.1229,0.0,0.0,0.0,0.0,0.0,0.0,0.0,0.0,0.0,0.0,0.0,0.0,0.0,0.0,0.0,0.0,0.0,0.0,0.0,3.1955,3.1862,3.1638,3.1451,3.1264,3.0959,3.0733,3.0569,3.0569,3.0825,3.0853,3.068,3.0976,3.1172,3.1112,3.1344,3.1556,3.1825,3.2685,3.3346,0.0,0.0,3.6309,3.7281,3.8133,3.8788,3.931,3.9594,3.9697,3.9697,3.9697,3.9697,3.9848,4.0701,4.11,4.1451,4.2359,4.2841,4.2986,4.2986,4.2986,4.2986,4.2986,4.3815,4.4734,4.5221,4.6294,4.7324,4.7821,4.8055,4.8172,4.8172,4.8172,4.8486,4.9401,4.974,5.0211,5.1126,5.1439,5.1846,5.2527,5.3261,5.4286,5.5526,5.6652,5.7557,5.8169,5.8169,5.8195,5.839,5.8828,5.9099,5.9099,5.9099,5.9099,5.9099,5.8471,5.7782,5.7094,5.6466,5.5837,5.5149,5.4102,5.3473,5.3114,5.2097,5.1498,5.1229,5.1229,5.1229,5.1229,5.1229,5.1229,5.1229,5.1229,5.1229,5.1229,0.0,0.0,0.0,0.0,0.0,0.0,0.0,0.0,0.0,0.0,3.1377,3.1377,0.0,0.0,0.0,0.0,0.0,0.0,0.0,0.0,3.1377,3.1377,3.1047,3.0864,3.0864,3.0791,3.0711,3.0711,3.1191,3.1306,3.1003,3.1362,3.1327,3.0976,3.0976,3.1113,3.1267,3.1614,3.217,3.3006,3.3966,3.5135,3.6526,0.0,3.8368,3.9154,3.9594,3.9697,3.9697,3.9697,3.9747,3.9898,4.045,4.1003,4.1555,4.2162,4.2665,4.2986,4.2986,4.2986,4.2986,4.2986,4.374,4.4691,4.5349,4.6257,4.7177,4.7847,4.8015,4.8068,4.8068,4.8146,4.8381,4.8982,4.9531,5.0106,5.0707,5.1256,5.1846,5.2465,5.3322,5.4378,5.5673,5.6964,5.7948,5.8639,5.8748,5.8719,5.8719,5.8936,5.9099,5.9099,5.9099,5.9099,5.9099,5.8351,5.7693,5.7094,5.6376,5.5748,5.5179,5.4521,5.3832,5.3144,5.2486,5.1828,5.1229,5.1229,5.1229,5.1229,5.1229,5.1229,5.1229,5.1229,5.1229,5.1229,0.0,0.0,0.0,0.0,0.0,0.0,0.0,0.0,0.0,0.0,3.1377,3.1377,0.0,0.0,0.0,0.0,0.0,0.0,0.0,0.0,0.0,3.1377,3.1304,3.1267,3.1267,3.0946,3.0806,3.0806,3.0847,3.095,3.118,3.1424,3.1515,3.1406,3.1406,3.1211,3.0995,3.1267,3.1614,3.2113,3.3006,3.3966,3.5024,3.6417,0.0,0.0,3.9362,3.9697,3.9697,3.9697,3.9998,4.0475,4.0974,4.158,4.2162,4.2715,4.2911,4.2986,4.2986,4.2986,4.2986,4.2986,4.3463,4.4112,4.4735,4.536,4.6019,4.6647,4.7153,4.7492,4.7492,4.7858,4.8381,4.8982,4.9531,5.0106,5.0707,5.1256,5.1721,5.2121,5.2799,5.3866,5.5353,5.6423,5.7472,5.8609,5.8882,5.9045,5.9045,5.9045,5.9099,5.9099,5.9099,5.9099,5.9099,5.7902,5.7214,5.7094,5.5927,5.5299,5.5179,5.4521,5.3832,5.3144,5.2486,5.1828,5.1229,5.1229,5.1229,5.1229,5.1229,5.1229,5.1229,5.1229,5.1229,5.1229,0.0,0.0,0.0,0.0,0.0,0.0,0.0,3.2148,3.1854,3.1433,3.1377,3.1377,3.1377,3.1377,3.1377,0.0,0.0,0.0,0.0,0.0,0.0,3.1377,3.1377,3.1377,3.1377,3.1194,3.1102,3.1102,0.0,3.1408,3.1494,3.1803,3.196,3.1855,3.1621,3.1406,3.1211,3.1152,3.1286,3.1614,3.217,3.3119,3.4357,3.5521,0.0,0.0,3.9206,3.9594,3.9697,3.9697,4.0074,4.0601,4.1125,4.1706,4.2313,4.2811,4.2986,4.2986,4.2986,4.2986,4.2986,4.2986,4.3388,4.396,4.4582,4.5155,4.5737,4.636,4.6708,4.697,4.7226,4.7571,4.7937,4.8512,4.9206,4.9902,5.0506,5.118,5.1901,5.2527,5.3227,5.4107,5.5351,5.6423,5.7472,5.839,5.8828,5.9099,5.9099,5.9099,5.9099,5.9099,5.9099,5.9099,5.9099,5.7782,5.7094,5.7064,5.5807,5.5179,5.5179,5.485,5.4162,5.3174,5.2845,5.2127,5.1229,5.1229,5.1229,5.1229,5.1229,5.1229,5.1229,5.1229,5.1229,5.1229,0.0,0.0,0.0,0.0,0.0,0.0,3.268,3.2331,3.1946,3.1451,3.1377,3.1377,3.1377,3.1377,3.1377,0.0,0.0,0.0,0.0,0.0,0.0,0.0,3.1377,3.1377,3.1377,0.0,0.0,3.1377,3.1653,0.0,0.0,0.0,0.0,0.0,3.1953,3.1738,3.1621,3.1211,3.1133,0.0,0.0,3.2457,3.3741,0.0,0.0,0.0,0.0,3.9465,3.9697,3.9697,4.0074,4.0601,4.1125,4.1706,4.2313,4.2811,4.2986,4.2986,4.2986,4.2986,4.2986,4.2986,4.3313,4.3784,4.4403,4.4873,4.5376,4.5995,4.6212,4.6447,4.6891,4.7122,4.7492,4.7937,4.8825,4.9686,5.0326,5.1122,5.201,5.2868,5.3652,5.4433,5.5351,5.6566,5.7584,5.828,5.8828,5.9099,5.9099,5.9099,5.9099,5.9099,5.9099,5.9039,5.889,5.7693,5.7034,5.6885,5.5748,5.5179,5.5179,5.5179,5.4461,5.3174,5.3174,5.2426,5.1229,5.1229,5.1229,5.1229,5.1229,5.1229,5.1229,5.1229,5.1229,5.1229,0.0,0.0,0.0,0.0,0.0,0.0,3.2649,3.257,3.2258,3.1469,3.1377,3.1377,3.1377,3.1377,3.1377,0.0,0.0,0.0,0.0,0.0,0.0,0.0,0.0,0.0,0.0,0.0,0.0,3.1377,3.1442,0.0,0.0,0.0,0.0,0.0,0.0,3.2461,3.209,3.1641,0.0,0.0,0.0,0.0,0.0,0.0,0.0,0.0,0.0,3.9465,3.9697,3.9697,4.0074,4.0601,4.1125,4.1706,4.2313,4.2811,4.2986,4.2986,4.2986,4.2986,4.2986,4.2986,4.3011,4.3229,4.3866,4.4028,4.4219,4.4741,4.5323,4.5715,4.5767,4.6573,4.7304,4.733,4.8563,4.9686,5.0326,5.1122,5.1949,5.2596,5.3443,5.4378,5.5295,5.6537,5.764,5.8555,5.8936,5.9099,5.9099,5.9099,5.9099,5.9099,5.9099,5.883,5.8231,5.7483,5.6825,5.6256,5.5538,5.5179,5.5179,5.5179,5.4461,5.3174,5.3174,5.2426,5.1229,5.1229,5.1229,5.1229,5.1229,5.1229,5.1229,5.1229,5.1229,5.1229,0.0,0.0,0.0,0.0,0.0,0.0,3.2997,3.2973,3.268,3.1854,3.1763,3.1653,3.1396,3.1377,3.1377,3.1377,3.1377,0.0,0.0,0.0,0.0,0.0,0.0,0.0,0.0,0.0,3.1506,3.1717,3.1717,0.0,0.0,0.0,0.0,0.0,0.0,3.2695,3.25,3.1816,0.0,0.0,0.0,0.0,0.0,0.0,0.0,0.0,0.0,0.0,3.9697,3.9697,3.9848,4.0124,4.0676,4.1229,4.1831,4.271,4.2986,4.2986,4.2986,4.2986,4.2986,4.2986,4.2986,4.3154,4.3789,4.3899,4.4064,4.4559,4.4905,4.5192,4.5503,4.629,4.6917,4.7283,4.8421,4.9452,5.0094,5.1094,5.2041,5.2848,5.3947,5.4998,5.5905,5.6964,5.8003,5.8882,5.9045,5.9099,5.9099,5.9099,5.9099,5.9099,5.9099,5.88,5.8141,5.7453,5.6795,5.6218,5.5508,5.5179,5.5179,5.5179,5.4461,5.3174,5.3174,5.2426,5.1229,5.1229,5.1229,5.1229,5.1229,5.1229,5.1229,5.1229,5.1229,5.1229,0.0,0.0,0.0,0.0,0.0,3.326,3.3235,3.323,3.2973,3.2276,3.2184,3.2019,3.1616,3.1561,3.1506,3.1396,3.1377,0.0,0.0,0.0,0.0,0.0,0.0,0.0,0.0,3.157,3.1717,3.2038,3.2038,3.2358,0.0,0.0,3.3102,3.3418,0.0,0.0,0.0,0.0,0.0,3.166,0.0,0.0,0.0,0.0,0.0,0.0,0.0,0.0,0.0,0.0,0.0,3.9798,4.035,4.0777,4.1304,4.2409,4.2916,4.2986,4.2986,4.2986,4.2986,4.2986,4.2986,4.3154,4.3789,4.3899,4.4064,4.4559,4.4668,4.4853,4.5297,4.5846,4.6421,4.6996,4.7973,4.901,4.9898,5.082,5.1914,5.3206,5.4293,5.5445,5.6537,5.7584,5.8445,5.9045,5.9099,5.9099,5.9099,5.9099,5.9099,5.9099,5.8919,5.8501,5.7812,5.7154,5.6496,5.5867,5.5418,5.5179,5.5179,5.5179,5.4461,5.3174,5.3174,5.2426,5.1229,5.1229,5.1229,5.1229,5.1229,5.1229,5.1229,5.1229,5.1229,5.1229,0.0,0.0,0.0,0.0,0.0,3.3303,3.3203,3.323,3.3065,3.2643,3.2588,3.2441,3.2038,3.2001,3.1836,3.1414,3.1377,0.0,0.0,0.0,0.0,0.0,3.1377,3.1589,3.191,3.191,3.2038,3.2422,3.2422,3.2549,3.2912,3.2912,3.3102,3.3418,0.0,0.0,0.0,0.0,3.2539,3.2211,0.0,0.0,3.4134,0.0,0.0,0.0,0.0,0.0,0.0,0.0,0.0,0.0,0.0,4.0526,4.0752,4.1886,4.2615,4.2986,4.2986,4.2986,4.2986,4.2986,4.2986,4.3154,4.3789,4.3899,4.4064,4.4559,4.4668,4.4668,4.4694,4.5164,4.582,4.6395,4.7227,4.8303,4.9759,5.0296,5.125,5.333,5.4455,5.5623,5.7133,5.836,5.9099,5.9099,5.9099,5.9099,5.9099,5.9099,5.9099,5.9099,5.8471,5.7812,5.7124,5.6496,5.5837,5.5209,5.5179,5.5179,5.5179,5.5179,5.4461,5.3174,5.3174,5.2426,5.1229,5.1229,5.1229,5.1229,5.1229,5.1229,5.1229,5.1229,5.1229,5.1229,0.0,0.0,0.0,0.0,0.0,0.0,3.4003,3.3798,3.3486,3.3083,3.3028,3.2863,3.2459,3.2404,3.2239,3.1854,3.1543,0.0,0.0,0.0,0.0,3.1377,3.1653,3.1782,3.1929,3.2102,3.2422,3.2721,3.2721,3.2912,3.3228,3.3228,3.3292,3.3418,3.3418,3.3418,0.0,3.2969,3.2505,3.2117,0.0,3.3699,3.4469,0.0,0.0,0.0,0.0,0.0,0.0,0.0,0.0,0.0,0.0,0.0,0.0,4.0927,4.1681,4.2564,4.2886,4.2986,4.2986,4.2986,4.3129,4.3351,4.3789,4.4064,4.4258,4.4613,4.4668,4.4668,4.4668,4.5164,4.582,4.6395,4.7227,4.8144,4.9227,5.0201,5.1435,5.3125,5.5452,5.7239,5.814,5.8773,5.9099,5.9099,5.9099,5.9099,5.9099,5.9099,5.9099,5.9099,5.8471,5.7782,5.7094,5.6466,5.5837,5.5179,5.5179,5.5179,5.5179,5.5179,5.4461,5.3174,5.3174,5.2426,5.1229,5.1229,5.1229,5.1229,5.1229,5.1229,5.1229,5.1229,5.1229,5.1229,0.0,0.0,0.0,0.0,0.0,0.0,3.4369,3.4202,3.389,3.3505,3.345,3.3285,3.2881,3.2826,3.268,3.2258,3.1854,0.0,0.0,0.0,0.0,3.157,3.191,3.2166,3.2294,3.2485,3.274,3.3102,3.3102,3.3165,3.3418,3.3418,3.3418,3.3418,3.3418,3.3418,0.0,3.2969,3.2726,3.2735,3.3375,3.4046,3.4899,0.0,0.0,0.0,0.0,0.0,0.0,0.0,0.0,0.0,0.0,0.0,0.0,0.0,4.1003,4.1706,4.2514,4.2866,4.2986,4.2986,4.3184,4.3517,4.3844,4.4094,4.4367,4.4613,4.4668,4.4668,4.4668,4.5036,4.5558,4.6342,4.7043,4.791,4.9106,5.0108,5.1508,5.3782,5.6261,5.8069,5.8773,5.8991,5.9099,5.9099,5.9099,5.9099,5.9099,5.886,5.874,5.874,5.8082,5.7423,5.6765,5.6137,5.5598,5.5179,5.5179,5.5179,5.5179,5.5179,5.4461,5.3174,5.3174,5.2426,0.0,5.1229,5.1229,5.1229,5.1229,5.1229,5.1229,5.1229,5.1229,5.1229,0.0,0.0,0.0,0.0,0.0,0.0,0.0,3.444,3.4275,3.3908,3.3835,3.367,3.3303,3.3266,3.3101,3.268,3.2313,0.0,0.0,3.1736,3.191,3.191,3.223,3.2613,3.2912,3.2931,3.3102,3.3418,3.3418,3.3418,3.3418,3.3418,3.3418,3.3418,3.3418,3.3418,3.3398,3.3008,3.3184,3.376,3.3507,3.4164,0.0,0.0,0.0,0.0,0.0,0.0,0.0,0.0,0.0,0.0,0.0,0.0,0.0,0.0,0.0,0.0,0.0,4.2514,4.2911,4.2967,4.3215,4.3517,4.3844,4.4148,0.0,4.4668,4.4668,4.4668,4.4668,4.4722,4.5114,4.6346,4.6754,4.7542,4.9395,5.0179,5.1822,5.4992,5.6756,5.8059,5.8925,5.9069,5.9099,5.9099,5.9099,5.9069,5.9039,5.8471,5.8082,5.7992,5.7363,5.6765,5.6218,5.5538,5.5179,5.5179,5.5179,5.5179,5.5179,5.5179,5.4461,5.3174,5.3174,5.2426,5.1229,5.1229,5.1229,5.1229,5.1229,5.1229,5.1229,5.1229,5.1229,5.1229,0.0,0.0,0.0,0.0,0.0,0.0,0.0,0.0,0.0,0.0,3.4,3.378,3.3688,3.367,3.3523,0.0,0.0,0.0,0.0,3.2032,3.1974,3.2294,3.2613,3.2804,3.2912,3.3165,3.3292,3.3418,3.3418,3.3418,3.3418,3.3418,3.3418,3.3418,3.3418,3.3418,3.3418,3.332,3.346,3.3882,3.4426,3.5029,0.0,0.0,0.0,0.0,3.8262,3.8684,0.0,0.0,0.0,0.0,0.0,0.0,0.0,0.0,4.0199,4.0576,4.0827,0.0,4.2469,4.2633,4.3237,4.3874,0.0,4.4422,4.4613,4.4668,4.4668,4.4668,4.4668,4.491,4.5441,4.6626,4.7089,4.7905,4.9678,5.16,5.3369,5.4818,5.6598,5.788,5.8297,5.88,5.9099,5.9099,5.9099,5.889,5.8381,5.8201,5.7663,5.6675,5.6466,5.6316,5.6218,5.5538,5.5179,5.5179,5.5179,5.5179,5.5179,5.5179,5.4461,5.3174,5.3174,5.2426,5.1229,5.1229,5.1229,5.1229,5.1229,5.1229,5.1229,5.1229,5.1229,5.1229,0.0,0.0,0.0,0.0,0.0,0.0,0.0,0.0,0.0,0.0,3.422,3.4018,3.3835,3.3817,3.3725,0.0,0.0,0.0,3.2974,3.2608,3.2483,3.2613,3.2912,3.3102,3.3102,3.3292,3.3418,3.3418,3.3418,3.3418,3.3418,3.3418,3.3418,3.3418,3.3418,3.3418,3.3418,3.3418,3.3595,3.3937,3.4635,0.0,0.0,0.0,0.0,0.0,3.8229,3.8579,0.0,3.9206,3.949,3.9697,0.0,0.0,0.0,0.0,3.9898,4.0149,4.0149,4.1128,4.2267,4.254,4.3245,4.3955,4.4258,4.4531,4.4668,4.4668,4.4668,4.4668,4.4668,4.4964,4.5604,4.6933,4.7643,4.8818,5.1098,5.2747,5.411,5.5142,5.6295,5.7176,5.7633,5.7962,5.8171,5.8171,5.8171,5.8022,5.7663,5.7393,5.6915,5.6248,5.5867,5.5718,5.5718,5.5359,5.5179,5.5179,5.5179,5.5179,5.5179,5.5179,5.4461,5.3174,5.3174,5.2426,5.1229,5.1229,5.1229,5.1229,5.1229,5.1229,5.1229,5.1229,5.1229,5.1229,0.0,0.0,0.0,0.0,0.0,0.0,0.0,0.0,0.0,0.0,0.0,0.0,0.0,0.0,0.0,0.0,0.0,3.3477,3.3671,3.3368,3.3127,3.3091,3.3267,3.3418,3.3418,3.3418,3.3418,3.3418,3.3418,3.3418,3.3418,3.3418,3.3418,3.3418,3.3418,3.3418,3.3418,3.3418,3.3607,3.3945,3.4554,0.0,0.0,0.0,0.0,0.0,0.0,0.0,0.0,3.9102,3.9438,3.9697,3.9697,0.0,0.0,0.0,0.0,0.0,3.9697,4.088,4.2196,4.2468,4.3249,4.4064,4.4313,4.4531,4.4668,4.4668,4.4722,4.4776,4.4776,4.5126,4.5847,4.724,4.8382,5.0092,5.2799,5.3629,5.4384,5.5464,5.5952,5.6376,5.6885,5.7034,5.7094,5.7094,5.7094,5.7064,5.6944,5.6466,5.6188,5.6017,5.5478,5.5179,5.5179,5.5179,5.5179,5.5179,5.5179,5.5179,5.5179,5.5089,5.4371,5.3174,5.3084,5.2336,5.1229,5.1229,5.1229,5.1229,5.1229,5.1229,5.1229,5.1229,5.1229,5.1229,0.0,0.0,0.0,0.0,0.0,0.0,0.0,0.0,0.0,0.0,0.0,0.0,0.0,0.0,0.0,0.0,3.4038,3.4178,3.4172,3.4089,3.3996,3.392,3.355,3.3418,3.3418,3.3418,3.3418,3.3418,3.3418,3.3418,3.3418,3.3418,3.3418,3.3418,3.3418,3.3418,3.3418,3.3418,3.3607,3.3985,3.4902,0.0,0.0,0.0,0.0,0.0,0.0,0.0,0.0,3.8841,3.9258,3.9697,3.9697,0.0,0.0,0.0,0.0,0.0,3.9697,4.0786,4.191,4.2204,4.3267,4.4313,4.4559,4.4668,4.4668,4.4668,4.491,4.5126,4.5126,4.5688,4.654,4.7484,4.9699,5.1742,5.3198,5.389,5.4414,5.487,5.5684,5.6248,5.6368,5.6795,5.7094,5.7094,5.7094,5.6855,5.6346,5.6278,5.5927,5.5359,5.5239,5.5179,5.5179,5.5179,5.5179,5.5179,5.5179,5.5179,5.5179,5.461,5.3922,5.3144,5.2606,5.1917,5.1229,5.1229,5.1229,5.1229,5.1229,5.1229,5.1229,5.1229,5.1229,5.1229,0.0,0.0,0.0,0.0,0.0,0.0,0.0,0.0,0.0,0.0,0.0,0.0,0.0,0.0,0.0,0.0,3.4163,3.434,3.4267,3.4251,3.4158,3.4082,3.3652,3.3418,3.3418,3.3418,3.3418,3.3418,3.3418,3.3418,3.3418,3.3418,3.3418,3.3418,3.3418,3.3418,3.3418,3.3418,3.3607,3.3985,0.0,0.0,0.0,0.0,0.0,0.0,0.0,0.0,0.0,0.0,3.9206,3.9697,3.9697,0.0,0.0,0.0,0.0,0.0,4.0049,4.1043,4.21,4.2513,4.3476,4.4367,4.4613,4.4668,4.4722,4.4964,4.5072,4.5287,4.5609,4.6165,4.7304,4.9262,5.1132,5.2798,5.4038,5.4385,5.4671,5.5006,5.5398,5.5658,5.5658,5.5897,5.6077,5.6077,5.6077,5.5927,5.5658,5.5658,5.5508,5.5209,5.5179,5.5179,5.5179,5.5179,5.5179,5.5179,5.5179,5.5179,5.5179,5.4521,5.3832,5.3144,5.2486,5.1828,5.1229,5.1229,5.1229,5.1229,5.1229,5.1229,5.1229,5.1229,5.1229,5.1229,0.0,0.0,0.0,0.0,0.0,0.0,0.0,0.0,0.0,0.0,0.0,0.0,0.0,0.0,0.0,0.0,3.4288,3.4515,3.4467,3.4471,3.4425,3.4238,3.3809,3.3535,3.3418,3.3418,3.3418,3.3418,3.3418,3.3418,3.3418,3.3418,3.3418,3.3418,3.3418,3.3418,3.3418,3.3418,3.3607,3.3985,0.0,0.0,0.0,0.0,0.0,0.0,0.0,0.0,0.0,0.0,0.0,0.0,0.0,0.0,0.0,3.9697,3.9697,3.9823,4.0375,4.1326,4.2311,4.2874,4.371,4.4476,4.4748,4.4856,4.4964,4.5287,4.5502,4.5768,4.627,4.7084,4.8509,5.1049,5.2413,5.3545,5.4735,5.4905,5.4955,5.5179,5.5179,5.5179,5.5179,5.5179,5.5179,5.5179,5.5179,5.5179,5.5179,5.5179,5.5179,5.5179,5.5179,5.5179,5.5179,5.5179,5.5179,5.5179,5.5179,5.5119,5.494,5.4281,5.3593,5.2905,5.2247,5.1678,5.1229,5.1229,5.1229,5.1229,5.1229,5.1229,5.1229,5.1229,5.1229,5.1229,0.0,0.0,0.0,0.0,0.0,0.0,0.0,0.0,0.0,0.0,0.0,0.0,0.0,0.0,3.4385,3.4367,3.4645,3.4834,3.4883,3.5182,3.5137,3.4668,3.4258,3.3828,3.3437,3.3418,3.3418,3.3418,3.3418,3.3418,3.3418,3.3418,3.3418,3.3418,3.3418,3.3418,3.3418,3.3418,3.3607,3.3985,3.5335,0.0,0.0,0.0,0.0,0.0,0.0,0.0,0.0,0.0,0.0,0.0,0.0,0.0,3.9697,3.9697,3.9697,3.9823,4.0375,4.1326,4.2311,4.2874,4.3818,4.4722,4.5072,4.518,4.5287,4.5848,4.6323,4.6818,4.7359,4.9029,5.0763,5.2091,5.3148,5.4051,5.5039,5.5179,5.5179,5.5179,5.5179,5.5179,5.5179,5.5179,5.5179,5.5179,5.5179,5.5179,5.5179,5.5179,5.5179,5.5179,5.5179,5.5179,5.5179,5.5179,5.5179,5.5179,5.5179,5.488,5.4251,5.3563,5.2905,5.2247,5.1558,5.1259,5.1229,5.1229,5.1229,5.1229,5.1229,5.1229,5.1229,5.1229,5.1229,5.1229,0.0,0.0,0.0,0.0,0.0,0.0,0.0,0.0,0.0,0.0,0.0,3.51,3.4678,0.0,3.4312,3.4055,3.4583,3.4921,3.4921,3.522,3.5312,3.5137,3.4453,3.4004,3.3828,3.3555,3.3418,3.3418,3.3418,3.3418,3.3418,3.3418,3.3418,3.3418,3.3418,3.3544,3.3733,3.3922,3.4485,3.5232,3.6135,3.7171,0.0,0.0,0.0,0.0,0.0,0.0,0.0,0.0,3.9102,3.9465,3.9645,3.9697,3.9772,4.0099,4.0199,4.04,4.1304,4.2113,4.2849,4.3413,4.432,4.5072,4.518,4.5448,4.5848,4.6376,4.6922,4.7615,4.8703,5.0113,5.1474,5.2467,5.3446,5.4331,5.5089,5.5179,5.5179,5.5179,5.5179,5.5179,5.5179,5.5179,5.5179,5.5179,5.5179,5.5179,5.5179,5.5179,5.5179,5.5179,5.5179,5.5179,5.5179,5.5179,5.5179,5.5179,5.5179,5.485,5.4192,5.3503,5.2815,5.2157,5.1498,5.1229,5.1229,5.1229,5.1229,5.1229,5.1229,5.1229,5.1229,5.1229,5.1229,5.1229,0.0,0.0,0.0,0.0,0.0,0.0,0.0,0.0,3.5027,0.0,0.0,0.0,0.0,3.4477,3.4364,0.0,3.4652,3.499,3.5059,3.5404,3.5527,3.541,3.4668,3.4219,3.4082,3.3652,3.3418,3.3418,3.3418,3.3418,3.3418,3.3481,3.3544,3.3544,3.3796,3.3985,3.4235,3.4673,3.5335,3.6095,3.6889,3.7834,0.0,0.0,0.0,0.0,0.0,0.0,0.0,0.0,3.9146,3.9411,3.9794,3.9948,4.0074,4.0626,4.0724,4.0978,4.1961,4.2595,4.3156,4.3746,4.4585,4.5341,4.5448,4.5848,4.648,4.7208,4.7948,4.8852,4.9863,5.1101,5.2151,5.2821,5.3853,5.467,5.5119,5.5179,5.5179,5.5179,5.5179,5.5179,5.5179,5.5179,5.5179,5.5179,5.5179,5.5179,5.5179,5.5179,5.5179,5.5179,5.5179,5.5179,5.5179,5.5179,5.5179,5.5179,5.497,5.4521,5.3862,5.3174,5.2516,5.1858,5.1409,5.1229,5.1229,5.1229,5.1229,5.1229,5.1229,5.1229,5.1229,5.1229,5.1229,5.1229,0.0,0.0,0.0,0.0,0.0,0.0,0.0,0.0,3.5027,3.5027,3.5027,0.0,0.0,0.0,0.0,0.0,3.4941,3.5059,3.547,3.5811,3.584,3.541,3.4961,3.4512,3.4082,3.3652,3.3418,3.3418,3.3418,3.3418,3.3418,3.3733,3.3922,3.3922,3.461,3.4922,3.4984,3.5644,3.6114,3.6502,3.7413,3.8216,3.893,0.0,0.0,0.0,0.0,0.0,0.0,0.0,3.9466,3.9434,4.0245,4.0526,4.0626,4.1125,4.13,4.1455,4.2007,4.2595,4.3156,4.3746,4.4748,4.5662,4.5954,4.6428,4.7157,4.828,4.96,5.0567,5.0775,5.2133,5.3174,5.3174,5.4311,5.5179,5.5179,5.5179,5.5179,5.5179,5.5179,5.5179,5.5179,5.5179,5.5179,5.5179,5.5179,5.5179,5.5179,5.5179,5.5179,5.5179,5.5179,5.5179,5.5179,5.5179,5.5179,5.5179,5.4521,5.3832,5.3144,5.2486,5.1828,5.1229,5.1229,5.1229,5.1229,5.1229,5.1229,5.1229,5.1229,5.1229,5.1229,5.1229,5.1229,5.1229,0.0,0.0,0.0,0.0,0.0,0.0,0.0,0.0,3.4183,3.4183,3.4183,0.0,0.0,0.0,0.0,0.0,0.0,3.5059,3.547,3.5811,3.5957,3.584,3.543,3.498,3.4531,3.3789,3.3418,3.3418,3.3418,3.3544,3.3733,3.411,3.4485,3.4984,3.5397,3.589,3.6319,3.6967,3.7572,3.8134,3.8908,3.9579,4.0188,0.0,0.0,0.0,0.0,0.0,0.0,0.0,0.0,0.0,4.0893,4.105,4.1204,4.1756,4.1907,4.2032,4.2585,4.3178,4.3669,4.3848,4.4748,4.5715,4.6165,4.7053,4.8128,4.96,5.0375,5.0775,5.1011,5.2229,5.3174,5.3174,5.4311,5.5179,5.5179,5.5179,5.5179,5.5179,5.5179,5.5179,5.5179,5.5179,5.5179,5.5179,5.5179,5.5179,5.5179,5.5179,5.5179,5.5179,5.5179,5.5179,5.5179,5.5179,5.497,5.4491,5.3803,5.3384,5.3144,5.2486,5.1828,5.1229,5.1229,5.1229,5.1229,5.1229,5.1229,5.1229,5.1229,5.1229,5.1229,5.1229,5.1229,5.1229,0.0,0.0,0.0,0.0,0.0,0.0,3.3817,3.3817,3.3817,3.3817,3.3817,3.3817,0.0,0.0,0.0,3.4577,3.4921,3.5264,3.5675,3.5879,3.6016,3.6016,3.5605,3.5176,3.4707,3.4152,3.3926,3.4053,3.3769,3.3922,3.4485,3.4859,3.5418,3.6197,3.6603,3.7171,3.7714,3.8291,3.8848,3.9226,3.9755,4.0246,4.0735,0.0,0.0,0.0,0.0,0.0,0.0,0.0,0.0,0.0,4.1443,4.1656,4.1781,4.2363,4.2539,4.2615,4.2886,4.3432,4.3899,4.3899,4.4748,4.5901,4.7078,4.81,4.9079,5.0375,5.0775,5.1011,5.1182,5.2067,5.2875,5.3144,5.4102,5.491,5.5149,5.5179,5.5179,5.5179,5.5179,5.5179,5.5179,5.5179,5.5179,5.5179,5.5179,5.5179,5.5179,5.5179,5.5179,5.5179,5.5179,5.5179,5.5179,5.5179,5.485,5.4192,5.3503,5.3054,5.2755,5.2127,5.1588,5.1229,5.1229,5.1229,5.1229,5.1229,5.1229,5.1229,5.1229,5.1229,5.1229,5.1229,5.1229,5.1229,0.0,0.0,3.3817,3.3817,0.0,0.0,3.3817,3.3817,3.3817,3.3817,3.3817,3.3817,0.0,0.0,0.0,3.4921,3.5264,3.5606,3.5947,3.6016,3.6016,3.6016,3.5605,3.5195,3.4831,3.4724,3.4892,3.5275,3.4475,3.4548,3.5479,3.5911,3.6585,3.7473,3.8134,3.8611,3.899,3.9638,3.9873,3.9873,4.0165,4.0479,4.0735,4.0735,0.0,0.0,0.0,0.0,0.0,0.0,0.0,0.0,4.1918,4.2288,4.2389,4.2891,4.2986,4.2986,4.2986,4.3432,4.3844,4.3899,4.4802,4.6243,4.8346,4.9297,4.996,5.065,5.1011,5.1229,5.1229,5.1768,5.2396,5.2995,5.3713,5.4431,5.5029,5.5149,5.5179,5.5179,5.5179,5.5179,5.5179,5.5179,5.5179,5.5179,5.5179,5.5179,5.5179,5.5179,5.5179,5.5179,5.5179,5.5179,5.5179,5.5119,5.476,5.4102,5.3414,5.2755,5.2097,5.1498,5.1229,5.1229,5.1229,5.1229,5.1229,5.1229,5.1229,5.1229,5.1229,5.1229,5.1229,5.1229,5.1229,5.1229,0.0,0.0,3.3817,3.3817,0.0,0.0,3.3817,3.3817,3.3817,3.3817,3.3817,3.3955,3.4232,3.437,0.0,3.5333,3.547,3.5606,3.5947,3.6016,3.6016,3.6016,3.5605,3.5465,3.5613,3.5591,3.5933,3.681,3.5623,3.5479,3.6197,3.7028,3.7752,3.8492,3.9144,3.9638,3.9931,4.0305,4.0479,4.0537,4.0884,4.1,4.1081,4.1081,4.1139,0.0,0.0,0.0,0.0,0.0,0.0,0.0,4.2593,4.2866,4.2866,4.2936,4.2986,4.2986,4.2986,4.324,4.3572,4.3844,4.5207,4.6922,4.8446,4.9444,5.0231,5.0964,5.1182,5.1229,5.1229,5.1768,5.2247,5.2396,5.3414,5.4251,5.4401,5.485,5.5179,5.5179,5.5179,5.5179,5.5179,5.5179,5.5179,5.5179,5.5179,5.5179,5.5179,5.5179,5.5179,5.5179,5.5179,5.5179,5.5179,5.467,5.4072,5.3384,5.2725,5.2067,5.1439,5.1289,5.1229,5.1229,5.1229,5.1229,5.1229,5.1229,5.1229,5.1229,5.1229,5.1229,5.1229,5.1229,5.1229,5.1229,0.0,0.0,0.0,0.0,0.0,0.0,0.0,0.0,3.3886,3.4094,3.4094,3.4232,3.4577,3.4784,0.0,0.0,3.5675,3.5811,3.6016,3.6016,3.6016,3.6016,3.5801,3.5818,3.6182,3.6406,3.6965,3.7868,3.7799,3.7819,3.7923,3.8163,3.8789,3.9697,4.0071,4.0421,4.0711,4.0884,4.0966,4.0966,4.1139,4.1172,4.1172,4.1172,4.1172,4.1172,4.1172,0.0,0.0,0.0,0.0,0.0,0.0,0.0,4.2986,4.2986,4.2986,4.2986,4.2986,4.3184,4.3572,4.4313,4.5688,4.7153,4.8496,4.9591,5.0471,5.1088,5.1229,5.1229,5.1229,5.1498,5.1828,5.2157,5.2785,5.3473,5.4132,5.4491,5.485,5.5149,5.5179,5.5179,5.5179,5.5179,5.5179,5.5179,5.5179,5.5179,5.5179,5.5179,5.5179,5.5179,5.5179,5.5179,5.5179,5.4551,5.3862,5.3174,5.2516,5.1858,5.1229,5.1229,5.1229,5.1229,5.1229,5.1229,5.1229,5.1229,5.1229,5.1229,5.1229,5.1229,5.1229,5.1229,5.1229,5.1229,0.0,0.0,0.0,0.0,0.0,0.0,0.0,0.0,0.0,3.4439,3.4508,3.4646,3.499,3.5264,3.5557,0.0,0.0,0.0,3.6016,3.6016,3.6016,3.6016,3.6084,3.6268,3.6654,3.734,3.8138,3.8959,4.0132,4.0548,4.0272,3.9556,3.9836,4.0854,4.0816,4.0966,4.1172,4.1172,4.1172,4.1172,4.1172,4.1172,4.1172,4.1172,4.1172,4.1172,4.1172,4.123,4.1344,4.194,0.0,0.0,0.0,0.0,4.2986,4.2986,4.2986,4.2986,4.2986,4.3184,4.3683,4.4748,4.5874,4.7102,4.8346,4.9591,5.0567,5.1011,5.1182,5.1229,5.1229,5.1229,5.1409,5.1947,5.2127,5.2606,5.3713,5.4072,5.4401,5.497,5.5119,5.5179,5.5179,5.5179,5.5179,5.5179,5.5179,5.5179,5.5179,5.5179,5.5179,5.5179,5.5179,5.5179,5.5179,5.4431,5.3743,5.3174,5.2396,5.1738,5.1229,5.1229,5.1229,5.1229,5.1229,5.1229,5.1229,5.1229,5.1229,5.1229,5.1229,5.1229,5.1229,5.1229,5.1229,5.1229,0.0,0.0,0.0,0.0,0.0,0.0,0.0,0.0,0.0,0.0,3.4853,3.499,3.5401,3.5489,3.5606,3.5879,3.5947,3.6016,3.6016,0.0,0.0,3.6016,3.6268,3.6722,3.7415,3.842,3.9649,4.0946,4.1571,4.2286,4.2962,4.1733,4.1224,4.1377,4.1215,4.1172,4.1172,4.1172,4.1172,4.1172,4.1172,4.1172,4.1172,4.1172,4.1172,4.1172,4.1172,4.1344,4.1606,4.1972,4.2256,0.0,0.0,0.0,4.2986,4.2986,4.2986,4.2986,4.2986,4.3184,4.3572,4.4258,4.5449,4.6739,4.7869,4.9149,5.0279,5.0775,5.1058,5.1229,5.1229,5.1229,5.1259,5.1349,5.1828,5.2247,5.2456,5.3473,5.4251,5.4341,5.485,5.5179,5.5179,5.5179,5.5179,5.5179,5.5179,5.5179,5.5179,5.5179,5.5179,5.5179,5.5179,5.5179,5.5179,5.3952,5.3264,5.3174,5.1947,5.1319,5.1229,5.1229,5.1229,5.1229,5.1229,5.1229,5.1229,5.1229,5.1229,5.1229,5.1229,5.1229,5.1229,5.1229,5.1229,5.1229,0.0,0.0,0.0,0.0,0.0,0.0,0.0,0.0,0.0,0.0,0.0,3.5401,3.5743,3.5743,3.5811,3.6016,3.6016,3.6016,3.6016,3.6016,3.6016,3.6016,3.6539,3.7126,3.7863,3.932,4.056,4.155,4.2778,4.3531,4.3938,4.3433,4.2874,4.2234,4.1874,4.1712,4.1712,4.1712,4.1712,4.1712,4.1712,4.1573,4.1459,4.1459,4.1344,4.123,4.1402,4.1492,4.1663,4.2142,4.2425,4.2569,4.2905,0.0,0.0,0.0,4.2986,4.2986,4.2986,4.3073,4.3351,4.4094,4.5127,4.6242,4.7513,4.8753,4.9815,5.0519,5.0852,5.1011,5.1182,5.1229,5.1229,5.1229,5.1468,5.1768,5.2157,5.2725,5.3354,5.4132,5.4461,5.479,5.5149,5.5179,5.5179,5.5179,5.5179,5.5179,5.5179,5.5179,5.5179,5.5179,5.5179,5.5179,5.5179,5.3862,5.2815,5.2067,5.1498,5.1229,5.1229,5.1229,5.1229,5.1229,5.1229,5.1229,5.1229,5.1229,5.1229,5.1229,5.1229,5.1229,5.1229,5.1229,5.1229,5.1229,0.0,0.0,0.0,0.0,0.0,0.0,0.0,0.0,0.0,0.0,0.0,3.5743,3.5947,0.0,0.0,0.0,3.6016,3.6016,3.6016,3.6016,3.6016,3.6152,3.6944,3.7662,3.8395,4.0084,4.1399,4.2189,4.3678,4.4484,4.4669,4.4741,4.4314,4.3523,4.2659,4.2233,4.211,4.211,4.211,4.211,4.211,4.1972,4.172,4.172,4.1631,4.1459,4.1688,4.1777,4.1891,4.2344,4.2569,4.2681,4.293,4.2986,0.0,0.0,0.0,4.2986,4.2986,4.2986,4.3209,4.3903,4.4696,4.5635,4.6895,4.8122,4.9198,5.0038,5.0471,5.0775,5.1058,5.1152,5.1229,5.1229,5.1229,5.1379,5.1887,5.2097,5.2576,5.3593,5.4012,5.4401,5.491,5.5089,5.5179,5.5179,5.5179,5.5179,5.5179,5.5179,5.5179,5.5179,5.5179,5.5179,5.5179,5.3862,5.2516,5.1229,5.1229,5.1229,5.1229,5.1229,5.1229,5.1229,5.1229,5.1229,5.1229,5.1229,5.1229,5.1229,5.1229,5.1229,5.1229,5.1229,5.1229,5.1229,0.0,0.0,0.0,0.0,0.0,0.0,0.0,0.0,0.0,0.0,0.0,3.5947,3.6016,3.6016,3.6016,3.6016,3.6016,3.6016,3.6016,3.6016,3.6152,3.6451,3.7441,0.0,3.9144,4.0819,4.2229,4.32,4.4237,4.5123,4.5757,4.557,4.5388,4.5288,4.3631,4.2577,4.211,4.211,4.211,4.211,4.211,4.211,4.2054,4.2054,4.2054,4.2054,4.2054,4.2256,4.2457,4.2457,4.2681,4.2986,4.2961,4.2986,4.2986,0.0,0.0,0.0,4.2986,4.2986,4.3073,4.3351,4.4123,4.4992,4.5847,4.7102,4.8324,4.9149,4.999,5.0567,5.0775,5.1011,5.1229,5.1229,5.1229,5.1229,5.1259,5.1798,5.2217,5.2306,5.3443,5.4221,5.4251,5.482,5.5179,5.5179,5.5179,5.5179,5.5179,5.5179,5.5179,5.5179,5.5179,5.5179,5.5179,5.3862,5.2516,5.1229,5.1229,5.1229,5.1229,5.1229,5.1229,5.1229,5.1229,5.1229,5.1229,5.1229,5.1229,5.1229,5.1229,5.1229,5.1229,5.1229,5.1229,5.1229,0.0,0.0,0.0,0.0,0.0,0.0,0.0,0.0,0.0,0.0,0.0,0.0,0.0,3.6016,3.6016,3.6016,3.6016,3.6084,3.6336,3.6539,3.6944,3.7508,3.8573,3.9561,4.056,4.1783,4.2949,4.3927,4.4755,4.5367,4.5817,4.592,4.5824,4.5447,4.4086,4.3348,4.3148,4.28,4.265,4.265,4.265,4.2538,4.2369,4.2369,4.2256,4.211,4.2312,4.2425,4.2513,4.2737,4.293,4.2986,4.2986,4.2986,4.2986,4.2986,4.2986,4.2986,4.2986,4.2986,4.3073,4.3351,4.3793,4.4367,4.5046,4.6111,4.7256,4.8274,4.9248,5.0154,5.0728,5.1011,5.1229,5.1229,5.1229,5.1229,5.1229,5.1439,5.1738,5.2157,5.2636,5.3264,5.4132,5.4431,5.473,5.5149,5.5179,5.5179,5.5179,5.5179,5.5179,5.5179,5.5179,5.479,5.3922,5.3414,5.2516,5.1229,5.1229,5.1229,5.1229,5.1229,5.1229,5.1229,5.1229,5.1229,5.1229,5.1229,5.1229,5.1229,5.1229,5.1229,5.1229,5.1229,5.1229,5.1229,0.0,0.0,0.0,3.6016,0.0,3.6016,3.6016,3.6016,3.6016,3.6016,0.0,0.0,0.0,0.0,3.6016,3.6016,3.6084,3.6336,3.6654,3.7126,3.7729,3.8461,3.9561,4.0625,4.1463,4.2673,4.3678,4.4484,4.5123,4.5635,4.5939,4.618,4.6125,4.5723,4.4794,4.4166,4.3765,4.3212,4.2986,4.2986,4.2986,4.2874,4.2706,4.2706,4.2538,4.2425,4.2594,4.2706,4.2681,4.293,4.2986,4.2986,4.2986,4.2986,4.2986,4.2986,4.2986,4.2986,4.2986,4.2986,4.3042,4.324,4.3487,4.3874,4.4313,4.5288,4.6401,4.741,4.8653,4.9766,5.0442,5.0917,5.1229,5.1229,5.1229,5.1229,5.1229,5.1229,5.1379,5.1828,5.2067,5.2546,5.3443,5.3952,5.4401,5.482,5.5059,5.5179,5.5179,5.5179,5.5179,5.5179,5.5179,5.4551,5.3204,5.3174,5.2516,5.1229,5.1229,5.1229,5.1229,5.1229,5.1229,5.1229,5.1229,5.1229,5.1229,5.1229,5.1229,5.1229,5.1229,5.1229,5.1229,5.1229,5.1229,5.1229,3.6016,3.6016,3.6016,3.6016,3.6016,3.6016,3.6016,3.6016,3.6016,3.6016,0.0,0.0,0.0,0.0,0.0,3.6016,3.6336,3.6722,3.7146,3.7796,3.8528,3.921,4.0625,4.1527,4.187,4.349,4.4484,4.4853,4.5489,4.5939,4.6301,4.6301,4.6301,4.6276,4.5723,4.4869,4.3815,4.3237,4.2986,4.2986,4.2986,4.2986,4.2986,4.2986,4.2986,4.2986,4.2986,4.2986,4.2986,4.2986,4.2986,4.2986,4.2986,4.2986,4.2986,4.2986,4.2986,4.2986,0.0,0.0,0.0,4.2986,4.3184,4.3462,4.3789,4.4748,4.5795,4.6583,4.8122,4.9473,4.999,5.071,5.1229,5.1229,5.1229,5.1229,5.1229,5.1229,5.1229,5.1229,5.1768,5.2187,5.2187,5.3384,5.4162,5.4221,5.479,5.5179,5.5179,5.5179,5.5179,5.5179,5.5179,5.4551,5.3204,5.3174,5.2516,5.1229,5.1229,5.1229,5.1229,5.1229,5.1229,5.1229,5.1229,5.1229,5.1229,5.1229,5.1229,5.1229,5.1229,5.1229,5.1229,5.1229,5.1229,5.1229,3.6016,3.6016,3.6016,3.6016,3.6016,3.6016,3.6016,3.6016,3.6016,0.0,0.0,0.0,3.6336,3.6606,3.6876,3.7146,3.7461,3.7929,3.8549,3.9451,4.0279,4.1035,4.1934,4.2736,4.3615,4.4051,4.4669,4.5489,4.5696,4.5939,4.6301,4.6301,4.6301,4.6276,4.5723,4.5321,4.497,4.3991,4.3338,4.2986,4.2986,4.2986,4.2986,4.2986,4.2986,4.2986,4.2986,4.2986,4.2986,4.2986,4.2986,4.2986,4.2986,4.2986,4.2986,4.2986,4.2986,4.2986,4.2986,0.0,0.0,0.0,0.0,0.0,4.3209,4.4123,4.5207,4.5979,4.7638,4.917,4.999,5.071,5.1229,5.1229,5.1229,5.1229,5.1229,5.1229,5.1229,5.1229,5.1379,5.1678,5.2157,5.2546,5.3174,5.4132,5.4371,5.47,5.5149,5.5179,5.5179,5.5179,5.5179,5.4551,5.3204,5.3174,5.2516,5.1229,5.1229,5.1229,5.1229,5.1229,5.1229,5.1229,5.1229,5.1229,5.1229,5.1229,5.1229,5.1229,5.1229,5.1229,5.1229,5.1229,5.1229,5.1229,3.6016,3.6016,3.6016,3.6016,3.6016,3.6084,3.62,3.62,3.6268,0.0,0.0,0.0,3.7327,3.7595,3.7883,3.8262,3.8594,3.9057,3.9779,4.069,4.1463,4.2189,4.2988,4.3678,4.4299,4.4669,4.5184,4.5817,4.5939,4.612,4.6301,4.6301,4.6301,4.6301,4.5974,4.5698,4.5422,4.4518,4.3815,4.3288,4.3062,4.2986,4.2986,4.2986,4.2986,4.2986,4.2986,4.3112,4.3313,4.3313,4.3313,4.3288,4.3062,4.2986,4.2986,4.2986,4.2986,4.2986,4.2986,4.2986,4.2986,4.2986,0.0,0.0,4.2986,4.3819,4.4722,4.5422,4.7023,4.8574,4.9424,5.0202,5.0805,5.1011,5.1011,5.1058,5.1182,5.1229,5.1229,5.1229,5.1229,5.1379,5.1738,5.2037,5.2636,5.3713,5.4042,5.4491,5.5149,5.5179,5.5179,5.5179,5.491,5.4251,5.3204,5.2905,5.2247,5.1229,5.1229,5.1229,5.1229,5.1229,5.1229,5.1229,5.1229,5.1229,5.1229,5.1229,5.1229,5.1229,5.1229,5.1229,5.1229,5.1229,5.1229,5.1229,0.0,3.6084,3.6084,3.6084,3.6152,3.6287,3.6586,3.6722,3.6856,0.0,3.7616,3.8083,3.8814,3.8946,3.9057,3.943,3.9779,4.0279,4.0862,4.1591,4.2293,4.2949,4.3864,4.436,4.4484,4.5306,4.5817,4.5878,4.612,4.6301,4.6301,4.6301,4.6301,4.6301,4.6301,4.605,4.5547,4.497,4.4392,4.384,4.3212,4.2986,4.2986,4.3037,4.3062,4.3087,4.3137,4.3489,4.389,4.389,4.384,4.3714,4.3212,4.3037,4.2986,4.2986,4.2986,4.2986,4.2986,4.2986,4.2986,4.2986,4.2986,0.0,4.2986,4.3653,4.4422,4.4938,4.6374,4.7768,4.8631,4.9502,5.0231,5.068,5.0822,5.0917,5.1182,5.1229,5.1229,5.1229,5.1229,5.1229,5.1229,5.1738,5.2366,5.3025,5.3773,5.4491,5.5149,5.5179,5.5179,5.5179,5.4551,5.3892,5.3204,5.2546,5.1858,5.1229,5.1229,5.1229,5.1229,5.1229,5.1229,5.1229,5.1229,5.1229,5.1229,5.1229,5.1229,5.1229,5.1229,5.1229,5.1229,5.1229,5.1229,5.1229,3.6336,3.6384,3.6519,3.6809,3.7079,3.728,3.7348,3.7883,3.8283,3.8416,3.8925,3.9451,3.9888,4.017,4.0625,4.1206,4.1591,4.1975,4.2379,4.3051,4.3553,4.3989,4.4446,4.4963,4.5514,4.5696,4.5939,4.618,4.624,4.6301,4.6301,4.6301,4.6301,4.6301,4.6301,4.625,4.6125,4.5547,4.4995,4.4367,4.3388,4.2986,4.3037,4.3463,4.3639,4.3689,4.4141,4.4367,4.4468,4.4468,4.4166,4.379,4.3689,4.3338,4.2986,4.2986,4.2986,4.2986,4.2986,4.2986,4.2986,4.2986,4.2986,0.0,4.2986,4.3487,4.4094,4.4668,4.5953,4.7205,4.8021,4.905,4.9941,5.0471,5.068,5.0917,5.1182,5.1229,5.1229,5.1229,5.1229,5.1229,5.1229,5.1319,5.1678,5.2336,5.3533,5.4491,5.5149,5.5179,5.5179,5.5179,5.4551,5.3892,5.3204,5.2546,5.1858,5.1229,5.1229,5.1229,5.1229,5.1229,5.1229,5.1229,5.1229,5.1229,5.1229,5.1229,5.1229,5.1229,5.1229,5.1229,5.1229,5.1229,5.1229,5.1229,3.7011,3.7327,3.7662,3.7883,3.8196,3.8528,3.8838,3.9233,3.9583,3.9975,4.0431,4.0948,4.1441,4.1655,4.1998,4.2483,4.2673,4.2988,4.3514,4.3864,4.4237,4.4755,4.5147,4.5453,4.5757,4.5939,4.612,4.6301,4.6301,4.6301,4.6301,4.6301,4.6301,4.6301,4.6301,4.6301,4.6276,4.5723,4.5321,4.4945,4.384,4.3388,4.3413,4.3689,4.3966,4.4242,4.4518,4.4794,4.5045,4.5045,4.4669,4.4166,4.389,4.3413,4.2986,4.2986,4.2986,4.2986,4.2986,4.2986,4.2986,4.2986,4.2986,0.0,0.0,4.3376,4.3764,4.4203,4.51,4.6006,4.6843,4.7819,4.8753,4.9542,5.0105,5.0585,5.0964,5.1105,5.1229,5.1229,5.1229,5.1229,5.1229,5.1229,5.1618,5.2606,5.3623,5.4491,5.5149,5.5179,5.5179,5.5179,5.4221,5.3533,5.3174,5.2187,5.1558,5.1229,5.1229,5.1229,5.1229,5.1229,5.1229,5.1229,5.1229,5.1229,5.1229,5.1229,5.1229,5.1229,5.1229,5.1229,5.1229,5.1229,5.1229,5.1229,3.8017,3.8528,3.8991,3.9078,3.9451,3.9888,4.0409,4.0668,4.1055,4.1761,4.2102,4.2483,4.3137,4.32,4.3326,4.3639,4.3701,4.395,4.4422,4.4484,4.4755,4.5392,4.5635,4.5817,4.5878,4.618,4.6301,4.6301,4.6301,4.6301,4.6301,4.6301,4.6301,4.6301,4.6301,4.6301,4.6276,4.5824,4.5573,4.5422,4.4493,4.4066,4.3966,4.4091,4.4392,4.4794,4.492,4.5246,4.5648,4.5648,4.5196,4.4543,4.4091,4.3514,4.2986,4.2986,4.2986,4.2986,4.2986,4.2986,4.2986,4.2986,4.2986,4.2986,0.0,0.0,0.0,4.3708,4.4203,4.483,4.5662,4.6478,4.741,4.8446,4.9395,5.0105,5.068,5.0964,5.1105,5.1182,5.1229,5.1229,5.1229,5.1229,5.1708,5.2905,5.3623,5.4311,5.497,5.5119,5.5179,5.5179,5.3892,5.3174,5.3174,5.1887,5.1229,5.1229,5.1229,5.1229,5.1229,5.1229,5.1229,5.1229,5.1229,5.1229,5.1229,5.1229,5.1229,5.1229,5.1229,5.1229,5.1229,5.1229,5.1229,5.1229,3.9648,3.9757,4.0149,4.0495,4.1077,4.1527,4.1591,4.2356,4.3177,4.3864,4.3989,4.4175,4.4546,4.4546,4.4669,4.5025,4.5086,4.5147,4.5208,4.5208,4.5331,4.5757,4.5757,4.5939,4.624,4.624,4.6301,4.6301,4.6301,4.6301,4.6301,4.6301,4.6301,4.6301,4.6301,4.6301,4.6301,4.625,4.5924,4.5472,4.5347,4.4995,4.4593,4.5095,4.5321,4.5447,4.5949,4.615,4.6225,4.6225,4.5497,4.4618,4.4543,4.3815,4.2986,4.2986,4.2986,4.2986,4.2986,4.2986,4.2986,4.2986,4.2986,4.2986,4.2986,0.0,4.3129,4.3406,0.0,4.4258,4.5046,0.0,0.0,4.792,4.8852,4.9669,5.0423,5.068,5.0917,5.1182,5.1229,5.1229,5.1229,5.1229,5.1528,5.2247,5.2905,5.3593,5.4281,5.488,5.5179,5.5179,5.3892,5.3174,5.3174,5.1887,5.1229,5.1229,5.1229,5.1229,5.1229,5.1229,5.1229,5.1229,5.1229,5.1229,5.1229,5.1229,5.1229,5.1229,5.1229,5.1229,5.1229,5.1229,5.1229,5.1229,4.1077,4.1335,4.1847,4.2166,4.261,4.3114,4.349,4.4051,4.457,4.4816,4.4878,4.4939,4.5061,4.5061,4.5123,4.527,4.5331,4.5392,4.5574,4.5574,4.5757,4.6059,4.6059,4.612,4.6301,4.6301,4.6301,4.6301,4.6301,4.6301,4.6301,4.6301,4.6301,4.6301,4.6301,4.6301,4.6301,4.6301,4.6175,4.5974,4.5974,4.5824,4.5598,4.5522,4.5673,4.5999,4.6225,4.6301,4.6301,4.6301,4.5773,4.507,4.4719,4.4091,4.3388,4.3062,4.2986,4.2986,4.2986,4.2986,4.2986,4.2986,4.2986,4.2986,4.2986,4.2986,4.3042,4.3129,0.0,0.0,0.0,0.0,0.0,0.0,4.7819,4.8852,4.9669,5.0279,5.0757,5.1182,5.1229,5.1229,5.1229,5.1229,5.1498,5.2157,5.2815,5.3473,5.4162,5.485,5.5179,5.5179,5.3892,5.3174,5.3174,5.1887,5.1229,5.1229,5.1229,5.1229,5.1229,5.1229,5.1229,5.1229,5.1229,5.1229,5.1229,5.1229,5.1229,5.1229,5.1229,5.1229,5.1229,5.1229,5.1229,5.1229,4.2799,4.3012,4.3326,4.3615,4.3989,4.4446,4.5,4.5245,4.5453,4.5574,4.5574,4.5574,4.5574,4.5574,4.5574,4.5574,4.5574,4.5696,4.5939,4.5939,4.6059,4.6301,4.6301,4.6301,4.6301,4.6301,4.6301,4.6301,4.6301,4.6301,4.6301,4.6301,4.6301,4.6301,4.6301,4.6301,4.6301,4.6301,4.6301,4.6301,4.6301,4.6386,4.6396,4.5933,4.5974,4.6301,4.6301,4.6301,4.6301,4.6301,4.5949,4.5422,4.4995,4.4425,4.3828,4.3481,4.3255,4.3129,4.3129,4.3073,4.2986,4.2986,4.2986,4.2986,4.2986,4.2986,4.2986,4.2986,4.2986,0.0,0.0,0.0,4.4776,4.5609,0.0,4.7869,4.8802,4.9669,5.0423,5.1011,5.1182,5.1229,5.1229,5.1229,5.1409,5.1887,5.2695,5.3384,5.3892,5.473,5.5179,5.5179,5.4072,5.3384,5.3174,5.2067,5.1409,5.1229,5.1229,5.1229,5.1229,5.1229,5.1229,5.1229,5.1229,5.1229,5.1229,5.1229,5.1229,5.1229,5.1229,5.1229,5.1229,5.1229,5.1229,5.1229,4.5147,4.4693,4.436,4.4669,4.5,4.5392,4.5696,4.5757,4.5878,4.624,4.624,4.624,4.624,4.624,4.624,4.624,4.624,4.624,4.6301,4.6301,4.6301,4.6301,4.6301,4.6301,4.6301,4.6301,4.6301,4.6301,4.6301,4.6301,4.6301,4.6301,4.6301,4.6301,4.6301,4.6301,4.6301,4.6301,4.6301,4.6301,4.6301,4.6481,4.6746,4.6421,4.6301,4.6301,4.6301,4.6301,4.6301,4.6301,4.5949,4.5497,4.5472,4.4926,4.4269,4.4244,4.3838,4.3381,4.3381,4.3184,4.2986,4.2986,4.2986,4.2986,4.2986,4.2986,4.2986,4.2986,4.2986,4.3073,4.3351,4.3708,4.4203,4.4992,4.5874,0.0,0.0,4.8802,4.9717,5.0728,5.1058,5.1229,5.1229,5.1229,5.1229,5.1259,5.2456,5.3204,5.3204,5.4461,5.5179,5.5179,5.4521,5.3862,5.3204,5.2516,5.1858,5.1229,5.1229,5.1229,5.1229,5.1229,5.1229,5.1229,5.1229,5.1229,5.1229,5.1229,5.1229,5.1229,5.1229,5.1229,5.1229,5.1229,5.1229,5.1229,4.5574,4.5453,4.5306,4.5428,4.5574,4.5757,4.6059,4.612,4.618,4.6301,4.6301,4.6301,4.6301,4.6301,4.6301,4.6301,4.6301,4.6301,4.6301,4.6301,4.6301,4.6301,4.6301,4.6301,4.6301,4.6301,4.6301,4.6301,4.6301,4.6301,4.6301,4.6301,4.6301,4.6301,4.6301,4.6301,4.6301,4.6566,4.6626,4.6686,4.6815,4.6993,4.7053,4.6721,4.6721,4.6874,4.6661,4.6721,4.6874,4.6661,4.6773,4.6872,4.6513,4.6533,4.6408,4.5486,4.5178,4.4999,4.4226,4.3929,4.3819,4.3653,4.3623,4.3623,4.3623,4.3432,4.324,4.324,4.3129,4.3042,4.3129,4.3351,4.3738,4.4203,4.4992,4.5874,0.0,4.8424,4.9863,5.0698,5.1058,5.1229,5.1229,5.1229,5.1229,5.1229,5.2426,5.3174,5.3174,5.4461,5.5179,5.5179,5.4551,5.3892,5.3204,5.2546,5.1858,5.1229,5.1229,5.1229,5.1229,5.1229,5.1229,5.1229,5.1229,5.1229,5.1229,5.1229,5.1229,5.1229,5.1229,5.1229,5.1229,5.1229,5.1229,5.1289,4.5939,4.5999,4.5999,4.5999,4.5999,4.6059,4.624,4.6301,4.6301,4.6301,4.6301,4.6301,4.6301,4.6301,4.6301,4.6301,4.6301,4.6301,4.6301,4.6301,4.6301,4.6301,4.6301,4.6301,4.6301,4.6301,4.6301,4.6301,4.6301,4.6301,4.6301,4.6301,4.6301,4.6301,4.6301,4.6301,4.6301,4.6686,4.6806,4.6806,4.7112,4.7324,4.7527,4.7375,4.7349,4.7324,4.7172,4.729,4.756,4.7468,4.7703,4.8009,4.7875,4.8012,4.8062,4.6992,4.6621,4.6328,4.5312,4.4858,4.4722,4.4505,4.445,4.445,4.4367,4.4177,4.3987,4.3903,4.3628,4.3487,4.3487,4.3543,4.3708,4.3984,4.4694,4.5555,0.0,4.8553,4.996,5.0585,5.0994,5.1229,5.1229,5.1229,5.1319,5.1558,5.2576,5.3294,5.3533,5.4581,5.5179,5.5179,5.479,5.4102,5.3204,5.2755,5.2097,5.1229,5.1229,5.1229,5.1229,5.1229,5.1229,5.1229,5.1229,5.1229,5.1229,5.1229,5.1229,5.1229,5.1229,5.1379,5.1558,5.1558,5.1708,5.1977,4.6301,4.6301,4.6301,4.6301,4.6301,4.6301,4.6301,4.6301,4.6301,4.6301,4.6301,4.6301,4.6301,4.6301,4.6301,4.6301,4.6301,4.6301,4.6301,4.6276,4.6276,4.6276,4.625,4.6225,4.6225,4.6225,4.6225,4.6225,4.625,4.6276,4.6276,4.6301,4.6301,4.6301,4.6301,4.6301,4.6361,4.6686,4.6866,4.6925,4.7172,4.7645,4.8257,4.8257,4.8029,4.7828,4.7769,4.7945,4.8268,4.8505,4.8594,4.8793,4.9365,4.9438,4.9172,4.8817,4.8161,4.732,4.6748,4.6111,4.5661,4.5608,4.5608,4.5555,4.5288,4.5181,4.51,4.483,4.4559,4.4367,4.4367,4.4148,4.4039,4.4313,4.491,4.5954,4.7824,4.9029,4.9892,5.0453,5.0929,5.1259,5.1259,5.1259,5.1528,5.2187,5.2845,5.3503,5.4192,5.485,5.5179,5.5179,5.5179,5.4551,5.3204,5.3174,5.2516,5.1229,5.1229,5.1229,5.1229,5.1229,5.1229,5.1229,5.1229,5.1229,5.1229,5.1229,5.1229,5.1229,5.1229,5.1648,5.2247,5.2247,5.2665,5.3234,4.6301,4.6301,4.6301,4.6301,4.6301,4.6301,4.6301,4.6301,4.6301,4.6301,4.6301,4.6301,4.6301,4.6301,4.6301,4.6301,4.6301,4.6301,4.6301,4.5924,4.5698,4.5698,4.5296,4.5045,4.5045,4.5045,4.5045,4.5045,4.5497,4.5698,4.5698,4.6125,4.6301,4.6301,4.6301,4.6446,4.6686,4.6993,4.7409,4.7847,4.7938,4.8172,4.8606,4.8779,4.9033,4.9249,4.8575,4.842,4.8488,4.8709,4.9091,4.9634,5.0511,5.0997,5.1282,5.0978,5.0549,4.9954,4.8944,4.8126,4.761,4.7406,4.7229,4.7023,4.6998,4.6478,4.6058,4.5953,4.5529,4.5208,4.5208,4.5154,4.5101,4.5208,4.5847,4.6818,4.7925,4.9029,4.9892,5.0453,5.1316,5.1947,5.1947,5.1947,5.2217,5.2875,5.3563,5.4012,5.4192,5.485,5.5179,5.5179,5.5179,5.4551,5.3204,5.3174,5.2516,5.1229,5.1229,5.1229,5.1229,5.1229,5.1229,5.1229,5.1229,5.1229,5.1229,5.1229,5.1229,5.1229,5.1229,5.1917,5.2935,5.2935,5.3354,5.3952,4.6301,4.6301,4.6301,4.6301,4.6301,4.6301,4.6301,4.6301,4.6301,4.6301,4.6301,4.6301,4.6301,4.6301,4.6225,4.5974,4.5949,4.5849,4.5598,4.5271,4.5121,4.5121,4.4794,4.4618,4.4618,4.4618,4.4618,4.4618,4.4945,4.5121,4.5121,4.5422,4.5698,4.5949,4.5949,4.6279,4.6866,4.7231,4.7703,4.8172,4.8172,4.8489,0.0,4.9354,4.9854,5.0237,4.9852,4.9572,4.9454,4.9771,5.0114,5.0512,5.1241,5.1719,5.2005,5.2005,5.1795,5.1338,5.0371,4.976,4.9316,4.8831,4.8624,4.8474,4.8374,4.7971,4.7615,4.7485,4.6971,4.6608,4.6608,4.6399,4.6294,4.6556,4.7177,4.7971,4.8703,4.9522,5.03,5.098,5.1739,5.2426,5.3025,5.2815,5.2905,5.3593,5.3982,5.4341,5.461,5.4999,5.5179,5.5179,5.5179,5.4551,5.3204,5.3174,5.2516,5.1229,5.1229,5.1229,5.1229,5.1229,5.1229,5.1229,5.1229,5.1229,5.1229,5.1229,5.1229,5.1289,5.1858,5.2725,5.3653,5.3952,5.4311,5.464,4.6301,4.6301,4.6301,4.6301,4.6301,4.6301,4.6301,4.6301,4.6301,4.6301,4.6301,4.6276,4.62,4.62,4.5974,4.5422,4.5372,4.5171,4.4644,4.4543,4.4518,4.4518,4.4443,4.4418,4.4418,4.4418,4.4418,4.4418,4.4493,4.4518,4.4518,4.4593,4.4895,4.5372,4.5506,4.6036,4.6985,4.7527,4.7938,4.8172,4.8172,4.8548,4.9183,4.9783,5.0381,5.096,5.1259,5.1046,5.0698,5.0947,5.1071,5.115,5.1733,5.1912,5.1991,5.2387,5.2308,5.1903,5.1483,5.1072,5.0641,5.0145,4.9922,4.9766,4.9542,4.9473,4.9297,4.9022,4.8574,4.8223,4.8223,4.7819,4.7666,4.8122,4.8624,4.917,4.9669,5.0271,5.0969,5.1725,5.2174,0.0,5.4102,5.3653,5.3593,5.4281,5.4341,5.4581,5.5149,5.5179,5.5179,5.5179,5.5089,5.4461,5.3204,5.3084,5.2426,5.1229,5.1229,5.1229,5.1229,5.1229,5.1229,5.1229,5.1229,5.1229,5.1229,5.1229,5.1259,5.1468,5.2695,5.3593,5.4281,5.494,5.5179,5.5179,4.6301,4.6301,4.6301,4.6301,4.6301,4.6301,4.6301,4.6301,4.6301,4.6301,4.6301,4.6125,4.5673,4.5623,4.5397,4.4819,4.4769,4.4744,4.4644,4.4192,4.394,4.394,4.3514,4.3263,4.3263,4.3263,4.3263,4.3263,4.3714,4.394,4.3966,4.4418,4.4669,4.4794,4.5481,4.6484,4.7586,4.7938,4.8114,4.8172,4.8172,4.8548,4.9183,5.0039,5.0793,5.1571,5.2346,5.1903,5.1011,5.0894,5.0862,5.0999,5.1899,5.2174,5.2263,5.2879,5.264,5.2263,5.2711,5.1977,5.1214,5.1679,5.1161,5.0632,5.0555,5.025,4.9941,4.9863,4.962,4.9424,4.9424,4.9326,4.9297,4.9424,4.9669,4.9912,5.0038,5.0943,5.1617,5.1754,5.2979,5.3952,5.4192,5.4102,5.4311,5.497,5.5029,5.5059,5.5179,5.5179,5.5179,5.5179,5.467,5.4012,5.3204,5.2636,5.1977,5.1229,5.1229,5.1229,5.1229,5.1229,5.1229,5.1229,5.1229,5.1229,5.1229,5.1229,5.1528,5.2097,5.2875,5.3593,5.4281,5.494,5.5179,5.5179,4.6301,4.6301,4.6301,4.6301,4.6301,4.6301,4.6301,4.6301,4.6301,4.6301,4.6075,4.5773,4.5522,4.5221,4.4819,4.4242,4.4192,4.4066,4.379,4.3514,4.3363,4.3363,4.3112,4.2986,4.2986,4.2986,4.2986,4.2986,4.3237,4.3363,4.3388,4.3809,4.4143,4.4529,4.5853,4.6894,4.7703,4.8055,4.8172,4.8172,4.8172,4.8548,4.924,5.0264,5.129,5.2215,5.2916,5.2977,5.2595,5.178,5.1309,5.1071,5.1541,5.1678,5.1828,5.2486,5.2456,5.2276,5.2576,5.2456,5.2157,5.1768,5.1613,5.1429,5.1101,5.0822,5.0662,5.0662,5.0442,5.025,5.0135,5.0202,5.0298,5.0298,5.0489,5.078,5.1154,5.1672,5.2263,5.2979,5.3704,5.4341,5.467,5.473,5.485,5.5179,5.5179,5.5179,5.5179,5.5179,5.5179,5.5179,5.4551,5.3892,5.3204,5.2546,5.1858,5.1229,5.1229,5.1229,5.1229,5.1229,5.1229,5.1229,5.1229,5.1229,5.1229,5.1229,5.1798,5.2725,5.3054,5.3803,5.476,5.5059,5.5179,5.5179,4.6301,4.6301,4.6301,4.6301,4.6301,4.6301,4.6301,4.62,4.6125,4.6125,4.5748,4.5397,4.5171,4.4719,4.4217,4.3689,4.3639,4.3438,4.3011,4.2986,4.2986,4.2986,4.2986,4.2986,4.2986,4.2986,4.2986,4.2986,4.2986,4.3042,4.3073,4.3295,4.3873,4.4699,4.6134,4.714,4.7821,4.8055,4.8172,4.8172,4.8172,4.8548,4.924,5.046,5.1595,5.2673,5.3334,5.3861,5.4042,5.2995,5.2097,5.1409,5.1259,5.1229,5.1319,5.1828,5.2007,5.2007,5.2157,5.2486,5.2546,5.1648,5.1708,5.1858,5.1349,5.1229,5.1229,5.1229,5.1011,5.0822,5.0662,5.0805,5.0917,5.0917,5.1178,5.1618,5.2127,5.2456,5.3025,5.4072,5.4341,5.461,5.5149,5.5179,5.5179,5.5179,5.5179,5.5179,5.5179,5.5179,5.5119,5.497,5.4341,5.3653,5.2965,5.2306,5.1738,5.1229,5.1229,5.1229,5.1229,5.1229,5.1229,5.1229,5.1229,5.1229,5.1229,5.1379,5.2127,5.3204,5.3354,5.4132,5.5179,5.5179,5.5179,5.5179,4.6301,4.6301,4.6301,4.6301,4.6301,4.6301,4.6301,4.5874,4.5573,4.5573,4.5522,4.5095,4.4066,4.3915,4.3664,4.3112,4.3062,4.3037,4.2986,4.2986,4.2986,4.2986,4.2986,4.2986,4.2986,4.2986,4.2986,4.2986,4.2986,4.3129,4.3351,4.3381,4.4245,4.5861,4.6047,4.6866,4.8198,4.8172,4.8172,4.8172,4.8172,4.8548,4.924,5.046,5.1595,5.273,5.3831,5.4217,5.4192,5.4072,5.3174,5.2007,5.1409,5.1229,5.1229,5.1289,5.1319,5.1439,5.2037,5.1798,5.1498,5.2007,5.1708,5.1289,5.1229,5.1229,5.1229,5.1229,5.1182,5.1182,5.1135,5.1182,5.1182,5.1182,5.1708,5.2127,5.2187,5.3264,5.4072,5.4192,5.473,5.5119,5.5179,5.5179,5.5179,5.5179,5.5179,5.5179,5.5179,5.5179,5.491,5.4311,5.3623,5.2965,5.2306,5.1648,5.1289,5.1229,5.1229,5.1229,5.1229,5.1229,5.1229,5.1229,5.1229,5.1229,5.1259,5.1858,5.2546,5.3234,5.3862,5.4551,5.5179,5.5179,5.5179,5.5179,4.6301,4.6301,4.6301,4.6301,4.6024,4.5824,4.5824,4.5321,4.4844,4.4518,4.4468,4.4317,4.384,4.3514,4.3212,4.2986,4.2986,4.2986,4.2986,4.2986,4.2986,4.2986,4.2986,4.2986,4.2986,4.2986,4.2986,4.2986,4.3129,4.3295,4.3381,4.3793,4.4797,4.6304,4.6304,4.6986,4.8172,4.8172,4.8315,4.8489,4.8489,4.8952,4.9727,5.0767,5.1839,5.2967,5.3942,5.4514,5.473,5.4341,5.3324,5.2157,5.1887,5.1528,5.1229,5.1229,5.1229,5.1289,5.1528,5.1708,5.1768,5.1648,5.1708,5.1708,5.1319,5.1229,5.1229,5.1229,5.1229,5.1229,5.1229,5.1528,5.1798,5.1798,5.2366,5.2935,5.3354,5.3862,5.4371,5.476,5.5029,5.5179,5.5179,5.5179,5.5179,5.5179,5.5179,5.5179,5.5179,5.5179,5.488,5.4221,5.3533,5.2875,5.2217,5.1558,5.1229,5.1229,5.1229,5.1229,5.1229,5.1229,5.1229,5.1229,5.1229,5.1439,5.1828,5.2097,5.2845,5.3832,5.4102,5.461,5.5179,5.5179,5.5179,5.5179,4.6301,4.6301,4.625,4.61,4.5748,4.5422,4.5271,4.4744,4.4192,4.3639,4.3413,4.3388,4.3539,4.3212,4.2986,4.2986,4.2986,4.2986,4.2986,4.2986,4.2986,4.2986,4.2986,4.2986,4.2986,4.2986,4.2986,4.2986,4.3295,4.3462,4.3572,4.4123,4.5129,4.6473,4.6473,4.71,4.8172,4.8172,4.8373,4.8721,4.8779,4.9328,5.0208,5.1183,5.2218,5.3232,5.4149,5.4743,5.5119,5.464,5.3743,5.2725,5.2336,5.1887,5.1468,5.1289,5.1229,5.1229,5.1229,5.1558,5.1798,5.1319,5.1558,5.1798,5.1319,5.1229,5.1259,5.1468,5.1648,5.1798,5.1798,5.2187,5.2486,5.2486,5.3054,5.3653,5.4132,5.4371,5.467,5.5119,5.5179,5.5179,5.5179,5.5179,5.5179,5.5179,5.5179,5.5179,5.5179,5.4999,5.461,5.3922,5.3264,5.2576,5.1917,5.1439,5.1229,5.1229,5.1229,5.1229,5.1229,5.1229,5.1229,5.1229,5.1229,5.1588,5.2217,5.2396,5.3174,5.4221,5.4431,5.479,5.5179,5.5179,5.5179,5.5179,4.6301,4.6301,4.6125,4.5598,4.5497,4.5296,4.4719,4.4166,4.3614,4.3062,4.2564,4.2439,4.2936,4.2986,4.2986,4.2986,4.2986,4.2986,4.2986,4.2986,4.2986,4.2986,4.2986,4.2986,4.2986,4.2986,4.2986,4.2986,4.3295,4.3572,4.3899,4.4422,4.5349,4.6473,4.6473,4.71,4.8172,4.8172,4.8373,4.8721,4.901,4.9613,5.0517,5.1731,5.273,5.3629,5.4466,5.4955,5.5179,5.5179,5.473,5.3952,5.2636,5.2187,5.2067,5.1409,5.1229,5.1229,5.1229,5.1229,5.1229,5.1229,5.1229,5.1229,5.1229,5.1229,5.1409,5.2067,5.2695,5.3144,5.3144,5.3174,5.3174,5.3174,5.3743,5.4192,5.4221,5.476,5.5179,5.5179,5.5179,5.5179,5.5179,5.5179,5.5179,5.5179,5.5179,5.5179,5.5179,5.4581,5.3892,5.3204,5.2546,5.1887,5.1229,5.1229,5.1229,5.1229,5.1229,5.1229,5.1229,5.1229,5.1229,5.1229,5.1229,5.1588,5.2247,5.2905,5.3593,5.4281,5.491,5.5179,5.5179,5.5179,5.5179,5.5179,4.6301,4.5999,4.5698,4.5522,4.4844,4.4267,4.4091,4.3263,4.2665,4.2489,4.1932,4.1656,4.1831,4.1856,4.1856,4.1856,4.1856,4.1856,4.1856,4.1856,4.2032,4.2464,4.2464,4.264,4.2961,4.3184,4.3295,4.3295,4.3738,4.4148,4.4476,4.5057,4.5741,4.6499,4.6891,4.7492,4.8172,4.8172,4.8489,4.901,4.9499,5.0404,5.143,5.2408,5.3314,5.4097,5.4619,5.5006,5.5179,5.5179,5.5059,5.473,5.3832,5.2935,5.2067,5.1409,5.1229,5.1229,5.1229,5.1229,5.1229,5.1229,5.1229,5.1229,5.1229,5.1229,5.1289,5.1498,5.2067,5.2516,5.2516,5.3264,5.3892,5.3892,5.4431,5.488,5.488,5.5059,5.5179,5.5179,5.5179,5.5179,5.5179,5.5179,5.4999,5.4551,5.4521,5.4521,5.4521,5.4311,5.3683,5.2546,5.2306,5.1887,5.1229,5.1229,5.1229,5.1229,5.1229,5.1229,5.1229,5.1229,5.1229,5.1259,5.1678,5.2247,5.2905,5.3593,5.4281,5.491,5.5119,5.5179,5.5179,5.5179,5.5179,5.5179,4.5723,4.5397,4.5095,4.4895,4.4267,4.3664,4.3237,4.2665,4.2062,4.1605,4.1254,4.0899,4.0752,4.0727,4.0824,4.125,4.1275,4.1275,4.1275,4.1275,4.148,4.1994,4.2196,4.2528,4.2992,4.336,4.3572,4.3572,4.4094,4.4422,4.4694,4.5294,4.5924,4.6499,4.7074,4.7649,4.8172,4.8172,4.8548,4.9183,4.9897,5.0878,5.2059,5.2996,5.3867,5.4539,5.4824,5.5057,5.5179,5.5179,5.5179,5.5089,5.4431,5.3443,5.2426,5.1768,5.1409,5.1229,5.1229,5.1229,5.1229,5.1229,5.1229,5.1229,5.1229,5.1409,5.1588,5.1588,5.2127,5.2576,5.2576,5.3264,5.3832,5.3832,5.4371,5.482,5.482,5.5029,5.5179,5.5179,5.5179,5.5089,5.485,5.482,5.4551,5.3862,5.3832,5.3713,5.3473,5.3443,5.3084,5.2217,5.1947,5.1618,5.1229,5.1229,5.1229,5.1229,5.1229,5.1229,5.1229,5.1229,5.1349,5.1618,5.2007,5.2725,5.3593,5.4042,5.461,5.5179,5.5179,5.5179,5.5179,5.5179,5.5179,5.5179,4.4719,4.4593,4.4392,4.389,4.3765,4.3388,4.2363,4.2162,4.1731,4.0651,4.0475,4.0249,3.9747,3.9697,4.0099,4.1075,4.1175,4.1175,4.1175,4.1229,4.1336,4.1628,4.2239,4.2732,4.3003,4.3592,4.3955,4.3955,4.4203,4.4476,4.4694,4.5375,4.5976,4.6499,4.7127,4.7675,4.8172,4.8172,4.8548,4.9183,5.0039,5.1127,5.2355,5.3471,5.4282,5.4854,5.5078,5.5179,5.5179,5.5179,5.5179,5.5089,5.4461,5.3773,5.3054,5.2396,5.1738,5.1229,5.1229,5.1229,5.1229,5.1229,5.1229,5.1229,5.1229,5.1678,5.2127,5.2127,5.2665,5.3114,5.3114,5.3144,5.3174,5.3174,5.3713,5.4132,5.4132,5.467,5.5059,5.5059,5.5059,5.482,5.4192,5.4132,5.3862,5.3174,5.3114,5.2815,5.2157,5.2127,5.2127,5.2127,5.1528,5.1229,5.1229,5.1229,5.1229,5.1229,5.1229,5.1229,5.1229,5.1259,5.1618,5.2217,5.2306,5.3054,5.4221,5.4251,5.464,5.5179,5.5179,5.5179,5.5179,5.5179,5.5179,5.5179,4.4644,4.4292,4.3966,4.3815,4.3463,4.2936,4.2313,4.1806,4.1279,4.0601,4.0149,3.9848,3.9697,3.9697,3.9798,4.0074,4.0074,4.0074,4.0074,4.0282,4.0615,4.1098,4.1868,4.2539,4.3003,4.381,4.4313,4.4531,4.4559,4.4613,4.4748,4.5794,4.6342,4.6525,4.7519,4.8068,4.8172,4.8172,4.8548,4.9183,5.0039,5.1238,5.2623,5.3524,5.4385,5.5078,5.5179,5.5179,5.5179,5.5179,5.5179,5.5149,5.4999,5.4132,5.3054,5.2396,5.1738,5.1229,5.1229,5.1229,5.1229,5.1229,5.1229,5.1229,5.1229,5.1349,5.1439,5.1439,5.1977,5.2426,5.2426,5.2845,5.3174,5.3174,5.3324,5.3414,5.3414,5.3563,5.3653,5.3653,5.3653,5.3593,5.3443,5.3414,5.3144,5.2486,5.2426,5.2157,5.1498,5.1439,5.1439,5.1439,5.1289,5.1229,5.1229,5.1229,5.1229,5.1229,5.1229,5.1229,5.1229,5.1738,5.2067,5.2247,5.3294,5.3922,5.4251,5.476,5.5059,5.5179,5.5179,5.5179,5.5179,5.5179,5.5179,5.5179,4.3915,4.3639,4.3413,4.3413,4.3162,4.271,4.1907,4.153,4.1,4.0249,3.9873,3.9697,3.9697,3.9697,3.9749,3.9878,3.9878,3.9878,3.9878,4.0134,4.0466,4.0875,4.1595,4.2318,4.2991,4.3721,4.4325,4.4668,4.4668,4.4668,4.4748,4.5924,4.6473,4.6525,4.7675,4.8172,4.8172,4.8172,4.8548,4.9183,4.9926,5.11,5.2516,5.3366,5.4282,5.5057,5.5128,5.5179,5.5179,5.5179,5.5179,5.5179,5.5179,5.4491,5.3533,5.2845,5.1977,5.1229,5.1229,5.1229,5.1229,5.1229,5.1229,5.1229,5.1229,5.1229,5.1229,5.1229,5.1498,5.1738,5.1738,5.2037,5.2276,5.2276,5.2546,5.2725,5.2725,5.2995,5.3174,5.3174,5.3174,5.3054,5.2755,5.2725,5.2456,5.1798,5.1738,5.1588,5.1229,5.1229,5.1229,5.1229,5.1229,5.1229,5.1229,5.1229,5.1229,5.1229,5.1229,5.1379,5.1678,5.2037,5.2546,5.3144,5.3892,5.4371,5.47,5.5029,5.5179,5.5179,5.5179,5.5179,5.5179,5.5179,5.5179,5.5179,4.3062,4.2986,4.2986,4.2986,4.2986,4.261,4.1451,4.1275,4.0899,3.9848,3.9697,3.9697,3.9697,3.9697,3.98,4.0083,4.0134,4.0185,4.0185,4.0389,4.0643,4.0896,4.1517,4.2242,4.2945,4.3676,4.4225,4.4668,4.4668,4.4668,4.4748,4.5924,4.6473,4.6525,4.7675,4.8172,4.8172,4.8172,4.8521,4.9068,4.967,5.0767,5.2139,5.3049,5.3919,5.47,5.5057,5.5179,5.5179,5.5179,5.5179,5.5179,5.5179,5.473,5.4072,5.3384,5.2306,5.1349,5.1259,5.1229,5.1229,5.1229,5.1229,5.1229,5.1229,5.1229,5.1229,5.1229,5.1229,5.1229,5.1229,5.1229,5.1229,5.1229,5.1678,5.2067,5.2067,5.2546,5.2875,5.2875,5.2875,5.2665,5.2097,5.2067,5.1828,5.1259,5.1229,5.1229,5.1229,5.1229,5.1229,5.1229,5.1229,5.1229,5.1229,5.1229,5.1229,5.1229,5.1229,5.1558,5.2187,5.2306,5.3025,5.4221,5.4311,5.467,5.5179,5.5179,5.5179,5.5179,5.5179,5.5179,5.5179,5.5179,5.5179,5.5179,4.2986,4.2986,4.2986,4.2986,4.2986,4.261,4.1451,4.1275,4.0899,3.9848,3.9697,3.9697,3.9697,3.9697,3.98,4.0083,4.0287,4.0466,4.0466,4.0694,4.0846,4.0896,4.1694,4.2396,4.3023,4.4068,4.4643,4.4668,4.4668,4.4668,4.4748,4.5924,4.6473,4.6525,4.7675,4.8172,4.8172,4.8172,4.8431,4.8779,4.9412,5.0235,5.121,5.2301,5.3261,5.4126,5.4671,5.5006,5.5179,5.5179,5.5179,5.5179,5.5179,5.473,5.4072,5.3384,5.2636,5.1917,5.1379,5.1229,5.1229,5.1229,5.1229,5.1229,5.1229,5.1229,5.1229,5.1229,5.1229,5.1229,5.1229,5.1229,5.1229,5.1229,5.1319,5.1379,5.1379,5.1468,5.1528,5.1528,5.1528,5.1498,5.1379,5.1379,5.1319,5.1229,5.1229,5.1229,5.1229,5.1229,5.1229,5.1229,5.1229,5.1229,5.1229,5.1229,5.1229,5.1229,5.1229,5.1558,5.2217,5.2785,5.3473,5.4251,5.479,5.5089,5.5179,5.5179,5.5179,5.5179,5.5179,5.5179,5.5179,5.5179,5.5179,5.5179,4.2986,4.2986,4.2986,4.2986,4.2986,4.261,4.1451,4.1275,4.0899,3.9848,3.9697,3.9697,3.9697,3.9697,3.9852,4.0287,4.044,4.0593,4.0922,4.1047,4.1097,4.1097,4.1509,4.2108,4.2997,4.3833,4.4408,4.4668,4.4668,4.4905,4.5164,4.6081,4.663,4.697,4.7806,4.8172,4.8172,4.8172,4.8373,4.8721,4.901,4.9727,5.0712,5.143,5.2408,5.3553,5.4126,5.4619,5.5006,5.5128,5.5179,5.5179,5.5179,5.497,5.4551,5.3473,5.2456,5.1618,5.1289,5.1229,5.1229,5.1229,5.1229,5.1229,5.1229,5.1229,5.1229,5.1229,5.1229,5.1229,5.1229,5.1229,5.1229,5.1229,5.1229,5.1229,5.1229,5.1229,5.1229,5.1229,5.1229,5.1229,5.1229,5.1229,5.1229,5.1229,5.1229,5.1229,5.1229,5.1229,5.1229,5.1229,5.1229,5.1229,5.1229,5.1229,5.1229,5.1229,5.1588,5.2097,5.2755,5.3414,5.4102,5.476,5.5059,5.5179,5.5179,5.5179,5.5179,5.5179,5.5179,5.5179,5.5179,5.5179,5.5418,5.5718,4.2986,4.2986,4.2986,4.2986,4.2986,4.261,4.1451,4.1275,4.0899,3.9848,3.9697,3.9697,3.9697,3.9697,3.9903,4.044,4.0517,4.072,4.1274,4.1324,4.1324,4.1324,4.1428,4.1977,4.2997,4.3572,4.4147,4.4668,4.4668,4.5036,4.5637,4.6212,4.6787,4.7304,4.7937,4.8172,4.8172,4.8172,4.8373,4.8606,4.869,4.9213,5.0039,5.06,5.154,5.2705,5.3366,5.3971,5.4568,5.4875,5.5027,5.5128,5.5179,5.5179,5.494,5.3563,5.2247,5.1229,5.1229,5.1229,5.1229,5.1229,5.1229,5.1229,5.1229,5.1229,5.1229,5.1229,5.1229,5.1229,5.1229,5.1229,5.1229,5.1229,5.1229,5.1229,5.1229,5.1229,5.1229,5.1229,5.1229,5.1229,5.1229,5.1229,5.1229,5.1229,5.1229,5.1229,5.1229,5.1229,5.1229,5.1229,5.1229,5.1229,5.1229,5.1229,5.1289,5.1439,5.1947,5.2636,5.3443,5.3982,5.4581,5.5179,5.5179,5.5179,5.5179,5.5179,5.5179,5.5209,5.5359,5.5418,5.5448,5.57,5.6059,5.656,4.2986,4.2986,4.2986,4.2986,4.2986,4.261,4.1451,4.1275,4.0899,3.9848,3.9697,3.9697,3.9697,3.9697,3.9903,4.044,4.0517,4.072,4.1274,4.1324,4.1324,4.1324,4.1821,4.2396,4.2997,4.3572,4.4147,4.4668,4.4668,4.5036,4.5637,4.6212,4.6787,4.7304,4.7937,4.8172,4.8172,4.8172,4.8172,4.8257,4.8548,4.8721,4.8952,5.0039,5.0712,5.1238,5.2301,5.3102,5.3681,5.42,5.4539,5.4854,5.5128,5.5179,5.494,5.3563,5.2247,5.1229,5.1229,5.1229,5.1229,5.1229,5.1229,5.1229,5.1229,5.1229,5.1229,5.1229,5.1229,5.1229,5.1229,5.1229,5.1229,5.1229,5.1229,5.1229,5.1229,5.1229,5.1229,5.1229,5.1229,5.1229,5.1229,5.1229,5.1229,5.1229,5.1229,5.1229,5.1229,5.1229,5.1229,5.1229,5.1229,5.1229,5.1229,5.1229,5.1528,5.2127,5.2187,5.2875,5.4132,5.4192,5.4581,5.5179,5.5179,5.5179,5.5179,5.5179,5.5179,5.5239,5.5867,5.6158,5.6218,5.7075,5.745,5.7532,4.2986,4.2986,4.2986,4.2986,4.2986,4.261,4.1451,4.1275,4.0899,3.9848,3.9697,3.9697,3.9697,3.9697,3.9903,4.044,4.0517,4.072,4.1274,4.1324,4.1324,4.1324,4.1533,4.1899,4.2474,4.3049,4.3624,4.4199,4.4565,4.5036,4.5637,4.6212,4.6787,4.7304,4.7937,4.8172,4.8172,4.8172,4.8172,4.8172,4.8373,4.8489,4.8721,4.9156,4.987,5.0656,5.132,5.2139,5.2996,5.3337,5.3838,5.4282,5.459,5.4743,5.4738,5.3514,5.2247,5.1229,5.1229,5.1229,5.1229,5.1229,5.1229,5.1229,5.1229,5.1229,5.1229,5.1229,5.1229,5.1229,5.1229,5.1229,5.1229,5.1229,5.1229,5.1229,5.1229,5.1229,5.1229,5.1229,5.1229,5.1229,5.1229,5.1229,5.1229,5.1229,5.1229,5.1229,5.1229,5.1229,5.1229,5.1229,5.1618,5.1618,5.1229,5.1618,5.1947,5.2217,5.3054,5.3713,5.4221,5.464,5.497,5.5179,5.5179,5.5418,5.5807,5.5807,5.6149,5.6745,5.6985,5.7178,5.7363,5.7737,5.8122,5.8486,4.2986,4.2986,4.2986,4.2986,4.2986,4.261,4.1451,4.1275,4.0899,3.9848,3.9697,3.9697,3.9697,3.9697,3.9903,4.044,4.0517,4.072,4.1274,4.1324,4.1324,4.1324,4.1324,4.1664,4.2422,4.2814,4.3389,4.4147,4.4539,4.5036,4.5637,4.6029,4.6604,4.7304,4.7728,4.8015,4.8172,4.8172,4.8172,4.8172,4.8172,4.8373,4.8548,4.8663,4.9156,4.9926,5.0348,5.11,5.1948,5.2326,5.2914,5.3576,5.3942,5.4089,5.4051,5.3394,5.2247,5.1229,5.1229,5.1229,5.1229,5.1229,5.1229,5.1229,5.1229,5.1229,5.1229,5.1229,5.1229,5.1229,5.1229,5.1229,5.1229,5.1229,5.1229,5.1229,5.1229,5.1229,5.1229,5.1229,5.1229,5.1229,5.1229,5.1229,5.1229,5.1229,5.1229,5.1229,5.1229,5.1409,5.1528,5.1528,5.2157,5.2276,5.1828,5.2276,5.2606,5.2845,5.3773,5.4431,5.485,5.5299,5.5598,5.5777,5.5777,5.6047,5.6517,5.6569,5.6994,5.7622,5.7937,5.8183,5.8368,5.8653,5.9049,5.9444,4.2986,4.2986,4.2986,4.2986,4.2986,4.261,4.1451,4.1275,4.0899,3.9848,3.9697,3.9697,3.9697,3.9697,3.9903,4.044,4.0517,4.072,4.1274,4.1324,4.1324,4.1324,4.1324,4.1847,4.2997,4.3023,4.3598,4.4668,4.4668,4.5036,4.5555,4.5581,4.6182,4.7278,4.7278,4.7649,4.8172,4.8172,4.8172,4.8172,4.8172,4.8172,4.8257,4.8548,4.8663,4.8779,4.9412,4.9926,5.0461,5.1072,5.1839,5.2677,5.3314,5.3165,5.2862,5.3125,5.2247,5.1229,5.1229,5.1229,5.1229,5.1229,5.1229,5.1229,5.1229,5.1229,5.1229,5.1229,5.1229,5.1229,5.1229,5.1229,5.1229,5.1229,5.1229,5.1229,5.1229,5.1229,5.1229,5.1229,5.1229,5.1229,5.1229,5.1229,5.1229,5.1229,5.1229,5.1229,5.1229,5.1858,5.2217,5.2217,5.2845,5.3204,5.3204,5.3204,5.3533,5.4221,5.4221,5.491,5.6218,5.6218,5.6526,5.7094,5.7094,5.7094,5.7146,5.7437,5.7622,5.7682,5.8659,5.9006,5.9149,6.008,6.0377,6.0429,4.2986,4.2986,4.2986,4.2986,4.2986,4.261,4.1451,4.1275,4.0899,3.9848,3.9697,3.9697,3.9697,3.9697,3.9903,4.044,4.0517,4.072,4.1274,4.1324,4.1324,4.1324,4.1716,4.2082,4.2422,4.3206,4.3781,4.4121,4.4539,4.4772,4.5009,4.5373,4.6029,4.6761,4.7153,4.7649,4.8172,4.8172,4.8172,4.8172,4.8172,4.8172,4.8172,4.8315,4.8489,4.8721,4.8895,4.9328,4.9897,5.0039,5.0656,5.1595,5.2837,5.2887,5.2566,5.2862,5.2103,5.1229,5.1229,5.1229,5.1229,5.1229,5.1229,5.1229,5.1229,5.1229,5.1229,5.1229,5.1229,5.1229,5.1229,5.1229,5.1229,5.1229,5.1229,5.1229,5.1229,5.1229,5.1229,5.1229,5.1229,5.1229,5.1229,5.1229,5.1229,5.1229,5.1648,5.1917,5.1917,5.2546,5.2875,5.2875,5.3533,5.3892,5.3892,5.3892,5.4012,5.4221,5.5149,5.5777,5.6248,5.6615,5.6915,5.7094,5.7094,5.7498,5.8159,5.8294,5.8797,5.9588,5.9853,6.0071,6.031,6.0576,6.069,6.069,4.2986,4.2986,4.2986,4.2986,4.2986,4.261,4.1451,4.1275,4.0899,3.9848,3.9697,3.9697,3.9697,3.9697,3.9903,4.044,4.0694,4.0946,4.1274,4.1324,4.1428,4.1638,4.2213,4.25,4.25,4.3468,4.399,4.4225,4.4565,4.4668,4.4694,4.5088,4.5584,4.6159,4.6734,4.731,4.7858,4.8094,4.8172,4.8172,4.8172,4.8172,4.8172,4.8172,4.8315,4.8489,4.8489,4.8837,4.924,4.924,4.9897,5.0934,5.2301,5.2393,5.2138,5.2665,5.2055,5.1229,5.1229,5.1229,5.1229,5.1229,5.1229,5.1229,5.1229,5.1229,5.1229,5.1229,5.1229,5.1229,5.1229,5.1229,5.1229,5.1229,5.1229,5.1229,5.1229,5.1229,5.1229,5.1229,5.1229,5.1229,5.1229,5.1229,5.1319,5.1588,5.1977,5.2306,5.2576,5.3234,5.3593,5.3593,5.4491,5.497,5.497,5.5239,5.5239,5.4999,5.6047,5.6675,5.6944,5.7334,5.7633,5.7902,5.7978,5.8407,5.8957,5.9221,5.9727,6.0429,6.0534,6.0638,6.0794,6.0794,6.0794,6.0794,4.2986,4.2986,4.2986,4.2986,4.2986,4.261,4.1451,4.1275,4.0899,3.9848,3.9697,3.9697,3.9697,3.9697,3.9903,4.044,4.1023,4.1324,4.1324,4.135,4.1638,4.2185,4.2762,4.3101,4.3101,4.365,4.4199,4.4668,4.4668,4.4668,4.4668,4.4668,4.5033,4.5715,4.6238,4.6813,4.744,4.7963,4.8172,4.8172,4.8172,4.8172,4.8172,4.8172,4.8172,4.8172,4.8172,4.8431,4.8663,4.869,4.9442,5.0517,5.1674,5.1761,5.1606,5.2427,5.1977,5.1229,5.1229,5.1229,5.1229,5.1229,5.1229,5.1229,5.1229,5.1229,5.1229,5.1229,5.1229,5.1229,5.1229,5.1229,5.1229,5.1229,5.1229,5.1229,5.1229,5.1229,5.1229,5.1229,5.1229,5.1229,5.1229,5.1259,5.1588,5.2247,5.2336,5.2636,5.3234,5.3922,5.4311,5.4371,5.5538,5.6248,5.6308,5.6885,5.6885,5.6308,5.6885,5.7513,5.8112,5.8171,5.853,5.9153,5.9369,5.9529,5.9636,6.0167,6.0429,6.0481,6.069,6.0794,6.0794,6.0794,6.0794,6.0794,4.2986,4.2986,4.2986,4.2986,4.2986,4.261,4.1451,4.1275,4.0899,3.9848,3.9697,3.9697,3.9697,3.9697,3.9903,4.044,4.1023,4.1324,4.1324,4.1742,4.2081,4.2211,4.3154,4.3676,4.3676,4.4251,4.4591,4.4668,4.4668,4.4668,4.4668,4.4668,4.5297,4.629,4.6421,4.7048,4.8015,4.812,4.8172,4.8172,4.8172,4.8172,4.8172,4.8172,4.8172,4.8172,4.8172,4.8257,4.8373,4.8606,4.9183,4.9872,5.0545,5.0946,5.1215,5.1621,5.1446,5.1229,5.1229,5.1229,5.1229,5.1229,5.1229,5.1229,5.1229,5.1229,5.1229,5.1229,5.1229,5.1229,5.1229,5.1229,5.1229,5.1229,5.1229,5.1229,5.1229,5.1229,5.1229,5.1229,5.1229,5.1229,5.1229,5.1678,5.2247,5.2905,5.3473,5.3832,5.3982,5.461,5.5209,5.5718,5.6017,5.6406,5.6885,5.7573,5.7573,5.6885,5.7573,5.7992,5.8141,5.865,5.9087,5.9422,5.9476,5.9796,6.0219,6.0324,6.0534,6.069,6.0794,6.0794,6.0794,6.0794,6.0794,6.0794,4.2986,4.2986,4.2986,4.2986,4.2986,4.261,4.1451,4.1275,4.0899,3.9848,3.9697,3.9697,3.9697,3.98,4.0083,4.0643,4.1307,4.1716,4.1716,4.2265,4.2709,4.3023,4.3598,4.399,4.4278,4.4565,4.4668,4.4668,4.4668,4.4668,4.4668,4.4668,4.5218,4.6081,4.6342,4.697,4.7806,4.8068,4.8172,4.8172,4.8172,4.8172,4.8172,4.8172,4.8172,4.8172,4.8172,4.8172,4.8257,4.8431,4.8895,4.9392,4.9831,5.041,5.0931,5.1149,5.1213,5.1229,5.1229,5.1229,5.1229,5.1229,5.1229,5.1229,5.1229,5.1229,5.1229,5.1229,5.1229,5.1229,5.1229,5.1229,5.1229,5.1229,5.1229,5.1229,5.1229,5.1229,5.1229,5.1229,5.1498,5.1798,5.2127,5.2456,5.2965,5.3623,5.4012,5.4341,5.467,5.5299,5.5807,5.6218,5.6765,5.7274,5.7573,5.8261,5.8411,5.8052,5.8411,5.859,5.859,5.8949,5.9261,5.9529,5.9636,5.9955,6.0429,6.0534,6.069,6.0794,6.0794,6.0794,6.0794,6.0794,6.0794,6.0794,4.2986,4.2986,4.2986,4.2986,4.2986,4.261,4.1451,4.1275,4.0899,3.9848,3.9697,3.9749,3.9749,4.0032,4.0466,4.1025,4.1771,4.2264,4.2342,4.284,4.3389,4.3912,4.3964,4.4225,4.4668,4.4668,4.4668,4.4668,4.4668,4.4668,4.4668,4.4668,4.5114,4.5794,4.6264,4.6865,4.7519,4.7989,4.8172,4.8172,4.8172,4.8172,4.8172,4.8172,4.8172,4.8172,4.8172,4.8172,4.8172,4.8172,4.8526,4.8973,4.917,4.9872,5.0595,5.0851,5.1216,5.1434,5.1362,5.1379,5.1349,5.1259,5.1229,5.1229,5.1229,5.1229,5.1229,5.1229,5.1229,5.1229,5.1229,5.1229,5.1229,5.1229,5.1229,5.1229,5.1229,5.1229,5.1259,5.1379,5.1977,5.2636,5.3294,5.3354,5.3653,5.4311,5.4371,5.467,5.5329,5.5867,5.6286,5.6496,5.7573,5.8171,5.8291,5.883,5.9099,5.9099,5.9099,5.9099,5.9099,5.9099,5.9261,5.9583,5.988,6.0197,6.0481,6.069,6.0794,6.0794,6.0794,6.0794,6.0794,6.0794,6.0794,6.0794,4.2986,4.2986,4.2986,4.2986,4.2986,4.261,4.1451,4.1275,4.0899,3.9848,3.9697,3.98,4.0032,4.0491,4.1052,4.1621,4.2032,4.2369,4.2866,4.3441,4.3781,4.3912,4.4356,4.4643,4.4668,4.4668,4.4668,4.4668,4.4668,4.4668,4.4668,4.4668,4.5323,4.6369,4.6447,4.7074,4.8068,4.8146,4.8172,4.8172,4.8172,4.8172,4.8172,4.8172,4.8172,4.8172,4.8172,4.8172,4.8172,4.8172,4.8237,4.8332,4.8298,4.9218,5.0417,5.0572,5.1591,5.2524,5.2169,5.2067,5.1947,5.1349,5.1229,5.1229,5.1229,5.1229,5.1229,5.1229,5.1229,5.1229,5.1229,5.1229,5.1229,5.1229,5.1229,5.1229,5.1229,5.1229,5.1439,5.2007,5.2665,5.3324,5.4012,5.4072,5.4341,5.4999,5.5059,5.5359,5.6068,5.6188,5.6675,5.7812,5.8022,5.8411,5.8979,5.9069,5.9099,5.9099,5.9099,5.9099,5.9099,5.9099,5.9399,5.9933,6.0016,6.0302,6.0742,6.0794,6.0794,6.0794,6.0794,6.0794,6.0794,6.0794,6.0794,6.0794,4.2986,4.2986,4.2986,4.2986,4.2766,4.2258,4.1401,4.1275,4.1,4.0249,4.0583,4.0942,4.1022,4.1517,4.1983,4.2424,4.2892,4.3232,4.3467,4.4042,4.4356,4.4356,4.4591,4.4668,4.4668,4.4668,4.4668,4.4668,4.4668,4.4668,4.4694,4.5007,4.5689,4.6499,4.6813,4.7414,4.8172,4.8172,4.8172,4.8172,4.8172,4.8172,4.8172,4.8172,4.8172,4.8172,4.8172,4.8172,4.8172,4.8172,4.8305,4.8448,4.8398,4.9173,5.0138,5.056,5.1424,5.2299,5.2475,5.2659,5.2665,5.2396,5.2306,5.2306,5.2306,5.2037,5.1648,5.1289,5.1229,5.1229,5.1229,5.1229,5.1229,5.1229,5.1528,5.1768,5.1768,5.2067,5.2576,5.3234,5.3593,5.4012,5.47,5.476,5.488,5.5179,5.5538,5.5867,5.6166,5.6855,5.7513,5.8112,5.8471,5.88,5.9099,5.9099,5.9099,5.9099,5.9099,5.9099,5.9099,5.9099,5.9315,5.972,5.9933,6.0197,6.0586,6.0742,6.0794,6.0794,6.0794,6.0794,6.0794,6.0794,6.0794,6.0794]}]]